[[{"header":{"parameterUnit":"m.s-1","parameterCategory":1,"la1":31.0,"la2":29.5877,"lo1":-88.7671,"lo2":-86.6584,"dy":0.0162,"dx":0.0185,"nx":115,"ny":88,"refTime":"2023-11-02T18:00:00:Z","depth":0,"parameterNumber":2,"parameterNumberName":"U-component_of_WINDS"},"data":[0.0,0.0,0.0,0.0,0.0,0.0,0.0,0.0,0.0,0.0,0.0,0.0,0.0,0.0,0.0,0.0,0.0,0.0,0.0,0.0,0.0,0.0,0.0,0.0,0.0,0.0,0.0,0.0,0.0,0.0,0.0,0.0,0.0,0.0,0.0,0.0,0.0,0.0,0.0,0.0,0.0,0.0,0.0,0.0,0.0,0.0,0.0,0.0,0.0,0.0,0.0,0.0,0.0,0.0,0.0,0.0,0.0,0.0,0.0,0.0,0.0,0.0,0.0,0.0,0.0,0.0,0.0,0.0,0.0,0.0,0.0,0.0,0.0,0.0,0.0,0.0,0.0,0.0,0.0,0.0,0.0,0.0,0.0,0.0,0.0,0.0,0.0,0.0,0.0,0.0,0.0,0.0,0.0,0.0,0.0,0.0,0.0,0.0,0.0,0.0,0.0,0.0,0.0,0.0,0.0,0.0,0.0,0.0,0.0,0.0,0.0,0.0,0.0,0.0,0.0,0.0,0.0,0.0,0.0,0.0,0.0,0.0,0.0,0.0,0.0,0.0,0.0,0.0,0.0,0.0,0.0,0.0,0.0,0.0,0.0,0.0,0.0,0.0,0.0,0.0,0.0,0.0,0.0,0.0,0.0,0.0,0.0,0.0,0.0,0.0,0.0,0.0,0.0,0.0,0.0,0.0,0.0,0.0,0.0,0.0,0.0,0.0,0.0,0.0,0.0,0.0,0.0,0.0,0.0,0.0,0.0,0.0,0.0,0.0,0.0,0.0,0.0,0.0,0.0,0.0,0.0,0.0,0.0,0.0,0.0,0.0,0.0,0.0,0.0,0.0,0.0,0.0,0.0,0.0,0.0,0.0,0.0,0.0,0.0,0.0,0.0,0.0,0.0,0.0,0.0,0.0,0.0,0.0,0.0,0.0,0.0,0.0,0.0,0.0,0.0,0.0,0.0,0.0,0.0,0.0,0.0,0.0,0.0,0.0,0.0,0.0,0.0,0.0,0.0,0.0,0.0,0.0,0.0,0.0,0.0,0.0,0.0,0.0,0.0,0.0,0.0,0.0,0.0,0.0,0.0,0.0,0.0,0.0,0.0,0.0,0.0,0.0,0.0,0.0,0.0,0.0,0.0,0.0,0.0,0.0,0.0,0.0,0.0,0.0,0.0,0.0,0.0,0.0,0.0,0.0,0.0,0.0,0.0,0.0,0.0,0.0,0.0,0.0,0.0,0.0,0.0,0.0,0.0,0.0,0.0,0.0,0.0,0.0,0.0,0.0,0.0,0.0,0.0,0.0,0.0,0.0,0.0,0.0,0.0,0.0,0.0,0.0,0.0,0.0,0.0,0.0,0.0,0.0,0.0,0.0,0.0,0.0,0.0,0.0,0.0,0.0,0.0,0.0,0.0,0.0,0.0,0.0,0.0,0.0,0.0,0.0,0.0,0.0,0.0,0.0,0.0,0.0,0.0,0.0,0.0,0.0,0.0,0.0,0.0,0.0,0.0,0.0,0.0,0.0,0.0,0.0,0.0,0.0,0.0,0.0,0.0,0.0,0.0,0.0,0.0,0.0,0.0,0.0,0.0,0.0,0.0,0.0,0.0,0.0,0.0,0.0,0.0,0.0,0.0,0.0,0.0,0.0,0.0,0.0,0.0,0.0,0.0,0.0,0.0,0.0,0.0,0.0,0.0,0.0,0.0,0.0,0.0,0.0,0.0,0.0,0.0,0.0,0.0,0.0,0.0,0.0,0.0,0.0,0.0,0.0,0.0,0.0,0.0,0.0,0.0,0.0,0.0,0.0,0.0,0.0,0.0,0.0,0.0,0.0,0.0,0.0,0.0,0.0,0.0,0.0,0.0,0.0,0.0,0.0,0.0,0.0,0.0,0.0,0.0,0.0,0.0,0.0,0.0,0.0,0.0,0.0,0.0,0.0,0.0,0.0,0.0,0.0,0.0,0.0,0.0,0.0,0.0,0.0,0.0,0.0,0.0,0.0,0.0,0.0,0.0,0.0,0.0,0.0,0.0,0.0,0.0,0.0,0.0,0.0,0.0,0.0,0.0,0.0,0.0,0.0,0.0,0.0,0.0,0.0,0.0,0.0,0.0,0.0,0.0,0.0,0.0,0.0,0.0,0.0,0.0,0.0,0.0,0.0,0.0,0.0,0.0,0.0,0.0,0.0,0.0,0.0,0.0,0.0,0.0,0.0,0.0,0.0,0.0,0.0,0.0,0.0,0.0,0.0,0.0,0.0,0.0,0.0,0.0,0.0,0.0,0.0,0.0,0.0,0.0,0.0,0.0,0.0,0.0,0.0,0.0,0.0,0.0,0.0,0.0,0.0,0.0,0.0,0.0,0.0,0.0,0.0,0.0,0.0,0.0,0.0,0.0,0.0,0.0,0.0,0.0,0.0,0.0,0.0,0.0,0.0,0.0,0.0,0.0,0.0,0.0,0.0,0.0,0.0,0.0,0.0,0.0,0.0,0.0,0.0,0.0,0.0,0.0,0.0,0.0,0.0,0.0,0.0,0.0,0.0,0.0,0.0,0.0,0.0,0.0,0.0,0.0,0.0,0.0,0.0,0.0,0.0,0.0,0.0,0.0,0.0,0.0,0.0,0.0,0.0,0.0,0.0,0.0,0.0,0.0,0.0,0.0,0.0,0.0,0.0,0.0,0.0,0.0,0.0,0.0,0.0,0.0,0.0,0.0,0.0,0.0,0.0,0.0,0.0,0.0,0.0,0.0,0.0,0.0,0.0,0.0,0.0,0.0,0.0,0.0,0.0,0.0,0.0,0.0,0.0,0.0,0.0,0.0,0.0,0.0,0.0,0.0,0.0,0.0,0.0,0.0,0.0,0.0,0.0,0.0,0.0,0.0,0.0,0.0,0.0,0.0,0.0,0.0,0.0,0.0,0.0,0.0,0.0,0.0,0.0,0.0,0.0,0.0,0.0,0.0,0.0,0.0,0.0,0.0,0.0,0.0,0.0,0.0,0.0,0.0,0.0,0.0,0.0,0.0,0.0,0.0,0.0,0.0,0.0,0.0,0.0,0.0,0.0,0.0,0.0,0.0,0.0,0.0,0.0,0.0,0.0,0.0,0.0,0.0,0.0,0.0,0.0,0.0,0.0,0.0,0.0,0.0,0.0,0.0,0.0,0.0,0.0,0.0,0.0,0.0,0.0,0.0,0.0,0.0,0.0,0.0,0.0,0.0,0.0,0.0,0.0,0.0,0.0,0.0,0.0,0.0,0.0,0.0,0.0,0.0,0.0,0.0,0.0,0.0,0.0,0.0,0.0,0.0,0.0,0.0,0.0,0.0,0.0,0.0,0.0,0.0,0.0,0.0,0.0,0.0,0.0,0.0,0.0,0.0,0.0,0.0,0.0,0.0,0.0,0.0,0.0,0.0,0.0,0.0,0.0,0.0,0.0,0.0,0.0,0.0,0.0,0.0,0.0,0.0,0.0,0.0,0.0,0.0,0.0,0.0,0.0,0.0,0.0,0.0,0.0,0.0,0.0,0.0,0.0,0.0,0.0,0.0,0.0,0.0,0.0,0.0,0.0,0.0,0.0,0.0,0.0,0.0,0.0,0.0,0.0,0.0,0.0,0.0,0.0,0.0,0.0,0.0,0.0,0.0,0.0,0.0,0.0,0.0,0.0,0.0,0.0,0.0,0.0,0.0,0.0,0.0,0.0,0.0,0.0,0.0,0.0,0.0,0.0,0.0,0.0,0.0,0.0,0.0,0.0,0.0,0.0,0.0,0.0,0.0,0.0,0.0,0.0,0.0,0.0,0.0,0.0,0.0,0.0,0.0,0.0,0.0,0.0,0.0,0.0,0.0,0.0,0.0,0.0,0.0,0.0,0.0,0.0,0.0,0.0,0.0,0.0,0.0,0.0,0.0,0.0,0.0,0.0,0.0,0.0,0.0,0.0,0.0,0.0,0.0,0.0,0.0,0.0,0.0,0.0,0.0,0.0,0.0,0.0,0.0,0.0,0.0,0.0,0.0,0.0,0.0,0.0,0.0,0.0,0.0,0.0,0.0,0.0,0.0,0.0,0.0,0.0,0.0,0.0,0.0,0.0,0.0,0.0,0.0,0.0,0.0,0.0,0.0,0.0,0.0,0.0,0.0,0.0,0.0,0.0,0.0,0.0,0.0,0.0,0.0,0.0,0.0,0.0,0.0,0.0,0.0,0.0,0.0,0.0,0.0,0.0,0.0,0.0,0.0,0.0,0.0,0.0,0.0,0.0,0.0,0.0,0.0,0.0,1.3672,0.0,0.0,0.0,0.0,0.0,0.0,0.0,0.0,0.0,0.0,0.0,0.0,0.0,0.0,0.0,0.0,0.0,0.0,0.0,0.0,0.0,0.0,0.0,0.0,0.0,0.0,0.0,0.0,0.0,0.0,0.0,0.0,0.0,0.0,0.0,0.0,0.0,0.0,0.0,0.0,0.0,0.0,0.0,0.0,0.0,0.0,0.0,0.0,0.0,0.0,0.0,0.0,0.0,0.0,0.0,0.0,0.0,0.0,0.0,0.0,0.0,0.0,0.0,0.0,0.0,0.0,0.0,0.0,0.0,0.0,0.0,0.0,0.0,0.0,0.0,0.0,0.0,0.0,0.0,0.0,0.0,0.0,0.0,0.0,0.0,0.0,0.0,0.0,0.0,0.0,0.0,0.0,0.0,0.0,0.0,0.0,0.0,0.0,0.0,0.0,0.0,0.0,0.0,0.0,0.0,0.0,0.0,0.0,0.0,0.0,1.522,1.4835,1.5669,1.5396,1.388,0.0,0.0,0.0,0.0,0.0,0.0,0.0,0.0,0.0,0.0,0.0,0.0,0.0,0.0,0.0,0.0,0.0,0.0,0.0,0.0,0.0,0.0,0.0,0.0,0.0,0.0,0.0,0.0,0.0,0.0,0.0,0.0,0.0,0.0,0.0,0.0,0.0,0.0,0.0,0.0,0.0,0.0,0.0,0.0,0.0,0.0,0.0,0.0,0.0,0.0,0.0,0.0,0.0,0.0,0.0,0.0,0.0,0.0,0.0,0.0,0.0,0.0,0.0,0.0,0.0,0.0,0.0,0.0,0.0,0.0,0.0,0.0,0.0,0.0,0.0,0.0,0.0,0.0,0.0,0.0,0.0,0.0,0.0,0.0,0.0,0.0,0.0,0.0,0.0,0.0,0.0,0.0,0.0,0.0,0.0,0.0,0.0,0.0,0.0,0.0,0.0,0.0,0.0,0.0,0.0,0.0,0.0,0.0,0.0,0.0,0.0,0.0,1.6449,1.6137,1.4635,0.0,0.0,0.0,0.0,0.0,0.0,0.0,0.0,0.0,0.0,0.0,0.0,0.0,0.0,0.0,0.0,0.0,0.0,0.0,0.0,0.0,0.0,0.0,0.0,0.0,0.0,0.0,0.0,0.0,0.0,0.0,0.0,0.0,0.0,0.0,0.0,0.0,0.0,0.0,0.0,0.0,0.0,0.0,0.0,0.0,0.0,0.0,0.0,0.0,0.0,0.0,0.0,0.0,0.0,0.0,0.0,0.0,0.0,0.0,0.0,0.0,0.0,0.0,0.0,0.0,0.0,0.0,0.0,0.0,0.0,0.0,0.0,0.0,0.0,0.0,0.0,0.0,0.0,0.0,0.0,0.0,0.0,0.0,0.0,0.0,0.0,0.0,0.0,0.0,0.0,0.0,0.0,0.0,0.0,0.0,0.0,0.0,0.0,0.0,0.0,0.0,0.0,0.0,0.0,0.0,0.0,0.0,0.0,0.0,0.0,1.5391,1.6566,1.707,0.0,1.5968,0.0,0.0,0.0,0.0,0.0,0.0,0.0,0.0,0.0,0.0,0.0,0.0,0.0,0.0,0.0,0.0,0.0,0.0,0.0,0.0,0.0,0.0,0.0,0.0,0.0,0.0,0.0,0.0,0.0,0.0,0.0,0.0,0.0,0.0,0.0,0.0,0.0,0.0,0.0,0.0,0.0,0.0,0.0,0.0,0.0,0.0,0.0,0.0,0.0,0.0,0.0,0.0,0.0,0.0,0.0,0.0,0.0,0.0,0.0,0.0,0.0,0.0,0.0,0.0,0.0,0.0,0.0,0.0,0.0,0.0,0.0,0.0,0.0,0.0,0.0,0.0,0.0,0.0,0.0,0.0,0.0,0.0,0.0,0.0,0.0,0.0,0.0,0.0,0.0,0.0,0.0,0.0,0.0,0.0,0.0,0.0,0.0,0.0,0.0,0.0,0.0,0.0,0.0,0.0,0.0,0.0,0.0,0.0,0.0,0.0,1.523,1.6157,1.6201,1.5801,0.0,0.0,0.0,0.0,0.0,0.0,0.0,0.0,0.0,0.0,0.0,0.0,0.0,0.0,0.0,0.0,0.0,0.0,0.0,0.0,0.0,0.0,0.0,0.0,0.0,0.0,0.0,0.0,0.0,0.0,0.0,0.0,0.0,0.0,0.0,0.0,0.0,0.0,0.0,0.0,0.0,0.0,0.0,0.0,0.0,0.0,0.0,0.0,0.0,0.0,0.0,0.0,0.0,0.0,0.0,0.0,0.0,0.0,0.0,0.0,0.0,0.0,0.0,0.0,0.0,0.0,0.0,0.0,0.0,0.0,0.0,0.0,0.0,0.0,0.0,0.0,0.0,0.0,0.0,0.0,0.0,0.0,0.0,0.0,0.0,0.0,0.0,0.0,0.0,0.0,0.0,0.0,0.0,0.0,0.0,0.0,0.0,0.0,0.0,0.0,0.0,0.0,0.0,0.0,0.0,0.0,0.0,0.0,0.0,0.0,1.43,1.506,1.6094,1.576,1.5182,1.4484,0.0,0.0,0.0,0.0,0.0,0.0,0.0,0.0,0.0,0.0,0.0,0.0,0.0,0.0,0.0,0.0,0.0,0.0,0.0,0.0,0.0,0.0,0.0,0.0,0.0,0.0,0.0,0.0,0.0,0.0,0.0,0.0,0.0,0.0,0.0,0.0,0.0,0.0,0.0,0.0,0.0,0.0,0.0,0.0,0.0,0.0,0.0,0.0,0.0,0.0,0.0,0.0,0.0,0.0,0.0,0.0,0.0,0.0,0.0,0.0,0.0,0.0,0.0,0.0,0.0,0.0,0.0,0.0,0.0,0.0,0.0,0.0,0.0,0.0,0.0,0.0,0.0,0.0,0.0,0.0,0.0,0.0,0.0,0.0,0.0,0.0,0.0,0.0,0.0,0.0,0.0,0.0,0.0,0.0,0.0,0.0,0.0,0.0,0.0,0.0,0.0,0.0,0.0,0.0,0.0,0.0,0.0,0.0,1.5343,1.444,1.4906,1.6991,1.6246,1.5644,0.0,0.0,0.0,0.0,0.0,0.0,0.0,0.0,0.0,0.0,0.0,0.0,0.0,0.0,0.0,0.0,0.0,0.0,0.0,0.0,0.0,0.0,0.0,0.0,0.0,0.0,0.0,0.0,0.0,0.0,0.0,0.0,0.0,0.0,0.0,0.0,0.0,0.0,0.0,0.0,0.0,0.0,0.0,0.0,0.0,0.0,0.0,0.0,0.0,0.0,0.0,0.0,0.0,0.0,0.0,0.0,0.0,0.0,0.0,0.0,0.0,0.0,0.0,0.0,0.0,0.0,0.0,0.0,0.0,0.0,0.0,0.0,0.0,0.0,0.0,0.0,0.0,0.0,0.0,0.0,0.0,0.0,0.0,0.0,0.0,0.0,0.0,0.0,0.0,0.0,0.0,0.0,0.0,0.0,0.0,0.0,0.0,0.0,0.0,0.0,0.0,0.0,0.0,0.0,0.0,0.0,0.0,0.0,0.0,1.2888,1.3508,1.4681,1.6416,1.5205,1.4723,0.0,0.0,0.0,0.0,0.0,0.0,0.0,0.0,0.0,0.0,0.0,0.0,0.0,0.0,0.0,0.0,0.0,0.0,0.0,0.0,0.0,0.0,0.0,0.0,0.0,0.0,0.0,0.0,0.0,0.0,0.0,0.0,0.0,0.0,0.0,0.0,0.0,0.0,0.0,0.0,0.0,0.0,0.0,0.0,0.0,0.0,0.0,0.0,0.0,0.0,0.0,0.0,0.0,0.0,0.0,0.0,0.0,0.0,0.0,0.0,0.0,0.0,0.0,0.0,0.0,0.0,0.0,0.0,0.0,0.0,0.0,0.0,0.0,0.0,0.0,0.0,0.0,0.0,0.0,0.0,0.0,0.0,0.0,0.0,0.0,0.0,0.0,0.0,0.0,0.0,0.0,0.0,0.0,0.0,0.0,0.0,0.0,0.0,0.0,0.0,0.0,0.0,0.0,0.0,0.0,0.0,0.0,0.0,0.0,1.2212,0.0,1.4921,1.565,1.4513,1.394,0.0,0.0,0.0,0.0,0.0,0.0,0.0,0.0,0.0,0.0,0.0,0.0,0.0,0.0,0.0,0.0,0.0,0.0,0.0,0.0,0.0,0.0,0.0,0.0,0.0,0.0,0.0,0.0,0.0,0.0,0.0,0.0,0.0,0.0,0.0,0.0,0.0,0.0,0.0,0.0,0.0,0.0,0.0,0.0,0.0,0.0,0.0,0.0,0.0,0.0,0.0,0.0,0.0,0.0,0.0,0.0,0.0,0.0,0.0,0.0,0.0,0.0,0.0,0.0,0.0,0.0,0.0,0.0,0.0,0.0,0.0,0.0,0.0,0.0,0.0,0.0,0.0,0.0,0.0,0.0,0.0,0.0,0.0,0.0,0.0,0.0,0.0,0.0,0.0,0.0,0.0,0.0,0.0,0.0,0.0,0.0,0.0,0.0,0.0,0.0,0.0,0.0,0.0,0.0,0.0,0.0,0.0,0.0,1.1355,1.3818,1.5072,1.5351,1.4813,1.4255,1.3316,0.0,0.0,0.0,0.0,0.0,0.0,0.0,0.0,0.0,0.0,0.0,0.0,0.0,0.0,0.0,0.0,0.0,0.0,0.0,0.0,0.0,0.0,0.0,0.0,0.0,0.0,0.0,0.0,0.0,0.0,0.0,0.0,0.0,0.0,0.0,0.0,0.0,0.0,0.0,0.0,0.0,0.0,0.0,0.0,0.0,0.0,0.0,0.0,0.0,0.0,0.0,0.0,0.0,0.0,0.0,0.0,0.0,0.0,0.0,0.0,0.0,0.0,0.0,0.0,0.0,0.0,0.0,0.0,0.0,0.0,0.0,0.0,0.0,0.0,0.0,0.0,0.0,0.0,0.0,0.0,0.0,0.0,0.0,0.0,0.0,0.0,0.0,0.0,0.0,0.0,0.0,0.0,0.0,0.0,0.0,0.0,0.0,0.0,0.0,0.0,0.0,0.0,0.0,0.0,0.0,0.0,0.0,0.0,0.0,1.1998,1.2833,1.3394,1.3587,1.2824,1.2321,0.0,0.0,0.0,0.0,0.0,0.0,0.0,0.0,0.0,0.0,0.0,0.0,0.0,0.0,0.0,0.0,0.0,0.0,0.0,0.0,0.0,0.0,0.0,0.0,0.0,0.0,0.0,0.0,0.0,0.0,0.0,0.0,0.0,0.0,0.0,0.0,0.0,0.0,0.0,0.0,0.0,0.0,0.0,0.0,0.0,0.0,0.0,0.0,0.0,0.0,0.0,0.0,0.0,0.0,0.0,0.0,0.0,0.0,0.0,0.0,0.0,0.0,0.0,0.0,0.0,0.0,0.0,0.0,0.0,0.0,0.0,0.0,0.0,0.0,0.0,0.0,0.0,0.0,0.0,0.0,0.0,0.0,0.0,0.0,0.0,0.0,0.0,0.0,0.0,0.0,0.0,0.0,0.0,0.0,0.0,0.0,0.0,0.0,0.0,0.0,0.0,0.0,0.0,0.0,0.0,0.0,0.0,0.0,0.0,1.0989,1.2181,1.2783,1.2752,1.189,1.1417,1.1445,0.0,0.0,0.0,0.0,0.0,0.0,0.0,0.0,0.0,0.0,0.0,0.0,0.0,0.0,0.0,0.0,0.0,0.0,0.0,0.0,0.0,0.0,0.0,0.0,0.0,0.0,0.0,0.0,0.0,0.0,0.0,0.0,0.0,0.0,0.0,0.0,0.0,0.0,0.0,0.0,0.0,0.0,0.0,0.0,0.0,0.0,0.0,0.0,0.0,0.0,0.0,0.0,0.0,0.0,0.0,0.0,0.0,0.0,0.0,0.0,0.0,0.0,0.0,0.0,0.0,0.0,0.0,0.0,0.0,0.0,0.0,0.0,0.0,0.0,0.0,0.0,0.0,0.0,0.0,0.0,0.0,0.0,0.0,0.0,0.0,0.0,0.0,0.0,0.0,0.0,0.0,0.0,0.0,0.0,0.0,0.0,0.0,0.0,0.0,0.0,0.0,0.0,0.0,0.0,0.0,0.0,0.0,0.0,1.0564,1.2602,1.3149,1.2183,1.1458,1.0695,0.0,0.0,0.0,0.0,0.0,0.0,0.0,0.0,0.0,0.0,0.0,0.0,0.0,0.0,0.0,0.0,0.0,0.0,0.0,0.0,0.0,0.0,0.0,0.0,0.0,0.0,0.0,0.0,0.0,0.0,0.0,0.0,0.0,0.0,0.0,0.0,0.0,0.0,0.0,0.0,0.0,0.0,0.0,0.0,0.0,0.0,0.0,0.0,0.0,0.0,0.0,0.0,0.0,0.0,0.0,0.0,0.0,0.0,0.0,0.0,0.0,0.0,0.0,0.0,0.0,0.0,0.0,0.0,0.0,0.0,0.0,0.0,0.0,0.0,0.0,0.0,0.0,0.0,0.0,0.0,0.0,0.0,0.0,0.0,0.0,0.0,0.0,0.0,0.0,0.0,0.0,0.0,0.0,0.0,0.0,0.0,0.0,0.0,0.0,0.0,0.0,0.0,0.0,0.0,0.0,0.0,0.0,0.0,0.0,0.8375,0.9311,1.0331,1.1401,1.1124,1.0394,0.0,0.0,0.0,0.0,0.0,0.0,0.0,0.0,0.0,0.0,0.0,0.0,0.0,0.0,0.0,0.0,0.0,0.0,0.0,0.0,0.0,0.0,0.0,0.0,0.0,0.0,0.0,0.0,0.0,0.0,0.0,0.0,0.0,0.0,0.0,0.0,0.0,0.0,0.0,0.0,0.0,0.0,0.0,0.0,0.0,0.0,0.0,0.0,0.0,0.0,0.0,0.0,0.0,0.0,0.0,0.0,0.0,0.0,0.0,0.0,0.0,0.0,0.0,0.0,0.0,0.0,0.0,0.0,0.0,0.0,0.0,0.0,0.0,0.0,0.0,0.0,0.0,0.0,0.0,0.0,0.0,0.0,0.0,0.0,0.0,0.0,0.0,0.0,0.0,0.0,0.0,0.0,0.0,0.0,0.0,0.0,0.0,0.0,0.0,0.0,0.0,0.0,0.0,0.0,0.0,0.0,0.0,0.0,0.6896,0.6962,0.7112,0.769,0.87,0.9471,0.9429,0.0,0.0,0.0,0.0,0.0,0.0,0.0,0.0,0.0,0.0,0.0,0.0,0.0,0.0,0.0,0.0,0.0,0.0,0.0,0.0,0.0,0.0,0.0,0.0,0.0,0.0,0.0,0.0,0.0,0.0,0.0,0.0,0.0,0.0,0.0,0.0,0.0,0.0,0.0,0.0,0.0,0.0,0.0,0.0,0.0,0.0,0.0,0.0,0.0,0.0,0.0,0.0,0.0,0.0,0.0,0.0,0.0,0.0,0.0,0.0,0.0,0.0,0.0,0.0,0.0,0.0,0.0,0.0,0.0,0.0,0.0,0.0,0.0,0.0,0.0,0.0,0.0,0.0,0.0,0.0,0.0,0.0,0.0,0.0,0.0,0.0,0.0,0.0,0.0,0.0,0.0,0.0,0.0,0.0,0.0,0.0,0.0,0.0,0.0,0.0,0.0,0.0,0.0,0.0,0.0,0.0,0.0,0.0,0.5711,0.586,0.557,0.5317,0.5167,0.7122,0.7995,0.0,0.0,0.0,0.0,0.0,0.0,0.0,0.0,0.0,0.0,0.0,0.0,0.0,0.0,0.0,0.0,0.0,0.0,0.0,0.0,0.0,0.0,0.0,0.0,0.0,0.0,0.0,0.0,0.0,0.0,0.0,0.0,0.0,0.0,0.0,0.0,0.0,0.0,0.0,0.0,0.0,0.0,0.0,0.0,0.0,0.0,0.0,0.0,0.0,0.0,0.0,0.0,0.0,0.0,0.0,0.0,0.0,0.0,0.0,0.0,0.0,0.0,0.0,0.0,0.0,0.0,0.0,0.0,0.0,0.0,0.0,0.0,0.0,0.0,0.0,0.0,0.0,0.0,0.0,0.0,0.0,0.0,0.0,0.0,0.0,0.0,0.0,0.0,0.0,0.0,0.0,0.0,0.0,0.0,0.0,0.0,0.0,0.0,0.0,0.0,0.0,0.0,0.0,0.0,0.0,0.0,0.0,0.0,0.4342,0.361,0.3581,0.3598,0.3651,0.5459,0.6164,0.0,0.0,0.0,0.0,0.0,0.0,0.0,0.0,0.0,0.0,0.0,0.0,0.0,0.0,0.0,0.0,0.0,0.0,0.0,0.0,0.0,0.0,0.0,0.0,0.0,0.0,0.0,0.0,0.0,0.0,0.0,0.0,0.0,0.0,0.0,0.0,0.0,0.0,0.0,0.0,0.0,0.0,0.0,0.0,0.0,0.0,0.0,0.0,2.044,0.0,0.0,0.0,0.0,0.0,0.0,0.0,0.0,0.0,0.0,0.0,0.0,0.0,0.0,0.0,0.0,0.0,0.0,0.0,0.0,0.0,0.0,0.0,0.0,0.0,0.0,0.0,0.0,0.0,0.0,0.0,0.0,0.0,0.0,0.0,0.0,0.0,0.0,0.0,0.0,0.0,0.0,0.0,0.0,0.0,0.0,0.0,0.0,0.0,0.0,0.0,0.0,0.0,0.0,0.0,0.0,0.0,0.0,0.0,0.3483,0.2186,0.2217,0.2083,0.1756,0.3017,0.398,0.0,0.0,0.0,0.0,0.0,0.0,0.0,0.0,0.0,0.0,0.0,0.0,0.0,0.0,0.0,0.0,0.0,0.0,0.0,0.0,0.0,0.0,0.0,0.0,0.0,0.0,0.0,0.0,0.0,0.0,0.0,0.0,0.0,0.0,0.0,0.0,0.0,0.0,0.0,0.0,0.0,0.0,0.0,0.0,0.0,0.0,0.0,0.0,0.0,0.0,0.0,0.0,0.0,0.0,0.0,0.0,0.0,0.0,0.0,0.0,0.0,0.0,0.0,0.0,0.0,0.0,0.0,0.0,0.0,0.0,0.0,0.0,0.0,0.0,0.0,0.0,0.0,0.0,0.0,0.0,0.0,0.0,0.0,0.0,0.0,0.0,0.0,0.0,0.0,0.0,0.0,0.0,0.0,0.0,0.0,0.0,0.0,0.0,0.0,0.0,0.0,0.0,0.0,0.0,0.0,0.0,0.0,0.2883,0.2582,0.0974,0.093,0.0535,-0.0334,0.0446,0.1629,0.3201,0.0,0.0,0.0,0.0,0.0,0.0,0.0,0.0,0.0,0.0,0.0,0.0,0.0,0.0,0.0,0.0,0.0,0.0,0.0,0.0,0.0,0.0,0.0,0.0,0.0,0.0,0.0,0.0,0.0,0.0,0.0,0.0,0.0,0.0,0.0,0.0,0.0,0.0,1.5547,1.7187,0.0,0.0,0.0,0.0,0.0,0.0,0.0,0.0,2.152,0.0,0.0,0.0,0.0,0.0,0.0,0.0,0.0,0.0,0.0,0.0,0.0,0.0,0.0,0.0,0.0,0.0,0.0,0.0,0.0,0.0,0.0,0.0,0.0,0.0,0.0,0.0,0.0,0.0,0.0,0.0,0.0,0.0,0.0,0.0,0.0,0.0,0.0,0.0,0.0,0.0,0.0,0.0,0.0,0.0,0.0,0.0,0.0,0.0,0.0,0.0,0.0,0.0,0.0,0.0,0.0,0.1182,0.1416,0.0757,-0.0832,-0.0916,-0.1297,-0.2019,-0.1339,-0.078,-0.0321,0.0,0.0,0.0,0.0,0.0,0.0,0.0,0.0,0.0,0.0,0.0,0.0,0.0,0.0,0.0,0.0,0.0,0.0,0.0,0.0,0.0,0.0,0.0,0.0,0.0,0.0,0.0,0.0,0.0,0.0,0.0,0.0,0.0,0.0,0.0,0.0,0.0,0.0,0.0,1.8532,1.9268,0.0,0.0,0.0,0.0,0.0,0.0,0.0,0.0,2.1783,0.0,0.0,0.0,0.0,0.0,0.0,0.0,0.0,0.0,0.0,0.0,0.0,0.0,0.0,0.0,0.0,0.0,0.0,0.0,0.0,0.0,0.0,0.0,0.0,0.0,0.0,0.0,0.0,0.0,0.0,0.0,0.0,0.0,0.0,0.0,0.0,0.0,0.0,0.0,0.0,0.0,0.0,0.0,0.0,0.0,0.0,0.0,0.0,0.0,0.0,0.0,0.0,0.0,0.0,0.0,0.0455,0.0484,-0.0058,-0.1276,-0.1814,-0.2216,-0.2476,-0.2148,-0.187,0.0,0.0,0.0,0.0,0.0,0.0,0.0,0.0,0.0,0.0,0.0,0.0,0.0,0.0,0.0,0.0,0.0,0.0,0.0,0.0,0.0,0.0,0.0,0.0,0.0,0.0,0.0,0.0,0.0,0.0,0.0,0.0,0.0,0.0,0.0,0.0,0.0,0.0,0.0,0.0,1.8132,1.8926,2.0324,0.0,0.0,0.0,0.0,0.0,0.0,2.1769,2.2142,0.0,0.0,0.0,0.0,0.0,0.0,0.0,0.0,0.0,0.0,0.0,0.0,0.0,0.0,0.0,0.0,0.0,0.0,0.0,0.0,0.0,0.0,0.0,0.0,0.0,0.0,0.0,0.0,0.0,0.0,0.0,0.0,0.0,0.0,0.0,0.0,0.0,0.0,0.0,0.0,0.0,0.0,0.0,0.0,0.0,0.0,0.0,0.0,0.0,0.0,0.0,0.0,0.0,0.0,0.0,-0.049,-0.0407,-0.0858,-0.1935,-0.2636,-0.3055,-0.3164,-0.2978,-0.2787,0.0,0.0,0.0,0.0,0.0,0.0,0.0,0.0,0.0,0.0,0.0,0.0,0.0,0.0,0.0,0.0,0.0,0.0,0.0,0.0,0.0,0.0,0.0,0.0,0.0,0.0,0.0,0.0,0.0,0.0,0.0,0.0,0.0,0.0,0.0,0.0,0.0,0.0,0.0,0.0,0.0,1.8447,1.9918,1.9989,0.0,0.0,0.0,0.0,2.1392,2.2384,0.0,0.0,0.0,0.0,0.0,0.0,0.0,0.0,0.0,0.0,0.0,0.0,0.0,0.0,0.0,0.0,0.0,0.0,0.0,0.0,0.0,0.0,0.0,0.0,0.0,0.0,0.0,0.0,0.0,0.0,0.0,0.0,0.0,0.0,0.0,0.0,0.0,0.0,0.0,0.0,0.0,0.0,0.0,0.0,0.0,0.0,0.0,0.0,0.0,0.0,0.0,0.0,0.0,0.0,0.0,0.0,-0.1733,-0.153,-0.23,-0.4103,-0.4097,-0.4506,-0.5462,-0.4579,-0.4237,0.0,0.0,0.0,0.0,0.0,0.0,0.0,0.0,0.0,0.0,0.0,0.0,0.0,0.0,0.0,0.0,0.0,0.0,0.0,0.0,0.0,0.0,0.0,0.0,0.0,0.0,0.0,0.0,0.0,0.0,0.0,0.0,0.0,0.0,0.0,0.0,0.0,0.0,0.0,0.0,0.0,1.8224,1.8211,1.8756,1.9189,0.0,0.0,0.0,2.2187,2.4277,0.0,0.0,0.0,0.0,0.0,0.0,0.0,0.0,0.0,0.0,0.0,0.0,0.0,0.0,0.0,0.0,0.0,0.0,0.0,0.0,0.0,0.0,0.0,0.0,0.0,0.0,0.0,0.0,0.0,0.0,0.0,0.0,0.0,0.0,0.0,0.0,0.0,0.0,0.0,0.0,0.0,0.0,0.0,0.0,0.0,0.0,0.0,0.0,0.0,0.0,0.0,0.0,0.0,0.0,0.0,-0.0502,-0.1291,-0.1634,-0.2396,-0.3711,-0.4188,-0.4854,-0.572,-0.52,-0.4949,0.0,0.0,0.0,0.0,0.0,0.0,0.0,0.0,0.0,0.0,0.0,0.0,0.0,0.0,0.0,0.0,0.0,0.0,0.0,0.0,0.0,0.0,0.0,0.0,0.0,0.0,0.0,0.0,0.0,0.0,0.0,0.0,0.0,0.0,0.0,0.0,0.0,0.0,0.0,0.0,0.0,0.0,1.7799,1.8723,0.0,0.0,0.0,2.1297,2.1551,0.0,0.0,0.0,0.0,0.0,0.0,0.0,0.0,0.0,0.0,0.0,0.0,0.0,0.0,0.0,0.0,0.0,0.0,0.0,0.0,0.0,0.0,0.0,0.0,0.0,0.0,0.0,0.0,0.0,0.0,0.0,0.0,0.0,0.0,0.0,0.0,0.0,0.0,0.0,0.0,0.0,0.0,0.0,0.0,0.0,0.0,0.0,0.0,0.0,0.0,0.0,0.0,0.0,0.0,0.0,0.0,0.0,-0.1162,-0.1901,-0.2708,-0.3592,-0.4475,-0.5215,-0.58,-0.5632,0.0,0.0,0.0,0.0,0.0,0.0,0.0,0.0,0.0,0.0,0.0,0.0,0.0,0.0,0.0,0.0,0.0,0.0,0.0,0.0,0.0,0.0,0.0,0.0,0.0,0.0,0.0,0.7295,0.0,0.0,0.0,0.0,0.0,0.0,0.0,0.0,0.0,0.0,0.0,0.0,0.0,0.0,1.6762,1.7523,1.8489,1.91,0.0,0.0,2.0474,2.0875,2.2443,2.3162,0.0,0.0,0.0,0.0,0.0,0.0,0.0,0.0,0.0,0.0,0.0,0.0,0.0,0.0,0.0,0.0,0.0,0.0,0.0,0.0,0.0,0.0,0.0,0.0,0.0,0.0,0.0,0.0,0.0,0.0,0.0,0.0,0.0,0.0,0.0,0.0,0.0,0.0,0.0,0.0,0.0,0.0,0.0,0.0,0.0,0.0,0.0,0.0,0.0,0.0,0.0,0.0,0.0,0.0,0.0,-0.2195,-0.2927,-0.3837,-0.5024,-0.5564,-0.6015,-0.6431,-0.6122,-0.584,0.0,0.0,0.0,0.0,0.0,0.0,0.0,0.0,0.0,0.0,0.0,0.0,0.0,0.0,0.0,0.0,0.0,0.0,0.0,0.0,0.0,0.0,0.0,0.0,0.0,0.0,0.0,0.0,0.0,0.0,0.0,0.0,0.0,0.0,0.0,0.0,0.0,0.0,0.0,0.0,0.0,1.6377,1.7068,1.7582,1.8135,0.0,0.0,2.0629,2.0457,2.3434,2.4826,2.1994,0.0,0.0,0.0,0.0,0.0,0.0,0.0,0.0,0.0,0.0,0.0,0.0,0.0,0.0,0.0,0.0,0.0,0.0,0.0,0.0,0.0,0.0,0.0,0.0,0.0,0.0,0.0,0.0,0.0,0.0,0.0,0.0,0.0,0.0,0.0,0.0,0.0,0.0,0.0,0.0,0.0,0.0,0.0,0.0,0.0,0.0,0.0,0.0,0.0,0.0,0.0,0.0,0.0,-0.1742,-0.2998,-0.2898,-0.3581,-0.5013,-0.5243,-0.5691,-0.6355,-0.6139,-0.5917,0.0,0.0,0.0,0.0,0.0,0.0,0.0,0.0,0.0,0.0,0.0,0.0,0.0,0.0,0.0,0.0,0.0,0.0,0.0,0.0,0.0,0.0,0.0,0.0,0.0,0.0,0.0,0.0,0.7075,0.7285,0.719,0.0,0.0,0.0,0.0,0.0,0.0,0.0,0.0,0.0,0.0,1.6495,1.7244,1.7974,0.0,0.0,1.8939,1.9435,2.001,2.1131,2.1593,2.0609,2.1236,0.0,0.0,0.0,0.0,0.0,0.0,0.0,0.0,0.0,0.0,0.0,0.0,0.0,0.0,0.0,0.0,0.0,0.0,0.0,0.0,0.0,0.0,0.0,0.0,0.0,0.0,0.0,0.0,0.0,0.0,0.0,0.0,0.0,0.0,0.0,0.0,0.0,0.0,0.0,0.0,0.0,0.0,0.0,0.0,0.0,0.0,0.0,0.0,0.0,0.0,0.0,0.0,-0.1766,-0.311,-0.2705,-0.3191,-0.4613,-0.4885,-0.5415,-0.6254,-0.6159,-0.5893,0.0,0.0,0.0,0.0,0.0,0.0,0.0,0.0,0.0,0.0,0.0,0.0,0.0,0.0,0.0,0.0,0.0,0.0,0.0,0.0,0.0,0.0,0.0,0.0,0.0,0.0,0.0,0.0,0.7171,0.7114,0.7059,0.0,0.0,0.0,0.0,0.0,0.0,0.0,0.0,0.0,0.0,1.6578,1.699,1.7806,1.8239,1.7744,1.7892,1.8336,1.917,1.9524,1.9786,2.0025,0.0,0.0,0.0,0.0,0.0,0.0,0.0,0.0,0.0,0.0,0.0,0.0,0.0,0.0,0.0,0.0,0.0,0.0,0.0,0.0,0.0,0.0,0.0,0.0,0.0,0.0,0.0,0.0,0.0,0.0,0.0,0.0,0.0,0.0,0.0,0.0,0.0,0.0,0.0,0.0,0.0,0.0,0.0,0.0,0.0,0.0,0.0,0.0,0.0,0.0,0.0,0.0,0.0,0.0,-0.2225,-0.242,-0.2937,-0.383,-0.4594,-0.5376,-0.6203,-0.6273,-0.5816,-0.4835,0.0,0.0,0.0,0.0,0.0,0.0,0.0,0.0,0.0,0.0,0.0,0.0,0.0,0.0,0.0,0.0,0.0,0.0,0.0,0.0,0.0,0.0,0.0,0.0,0.0,0.0,0.7098,0.7066,0.7051,0.0,0.0,0.0,0.0,0.0,0.0,0.0,0.0,0.0,0.0,1.5919,1.6538,1.6122,1.6875,1.7188,1.6274,1.6892,1.7566,1.7945,1.9298,2.0467,0.0,0.0,0.0,0.0,0.0,0.0,0.0,0.0,0.0,0.0,0.0,0.0,0.0,0.0,0.0,0.0,0.0,0.0,0.0,0.0,0.0,0.0,0.0,0.0,0.0,0.0,0.0,0.0,-0.4643,0.0,0.0,0.0,0.0,0.0,0.0,0.0,0.0,0.0,0.0,0.0,0.1128,0.1566,0.0,0.0,0.0,0.0,0.0,0.0,0.0,0.0,0.0,0.0,0.0,0.0,-0.1748,-0.2966,-0.2686,-0.292,-0.3772,-0.4064,-0.4341,-0.4632,-0.4632,-0.4423,-0.3946,0.0,0.0,0.0,0.0,0.0,0.0,0.0,0.0,0.0,0.0,0.0,0.0,0.0,0.0,0.0,0.0,0.0,0.0,0.0,0.0,0.0,0.0,0.0,0.0,0.0,0.5691,0.0,0.0,0.0,0.0,0.0,0.0,0.0,0.0,0.0,0.0,0.0,1.316,1.4534,1.5074,1.563,1.6359,1.6473,1.6782,0.0,0.0,0.0,0.0,0.0,0.0,0.0,0.0,0.0,0.0,0.0,0.0,0.0,0.0,2.5019,2.3479,2.3027,2.3167,2.3962,0.0,0.0,0.0,0.0,0.0,0.0,0.0,0.0,0.0,0.0,0.0,0.0,0.0,0.0,0.0,0.0,-0.4308,0.0,0.0,0.0,0.0,0.0,0.0,0.0,0.0,0.0814,0.1502,0.1888,0.2284,0.2246,0.0,0.1463,0.1067,0.0,0.0,0.0,0.0,0.0,0.0,0.0,0.0,-0.177,-0.2969,-0.2411,-0.249,-0.3308,-0.3366,-0.3503,-0.3772,-0.3526,-0.3322,-0.3195,-0.289,-0.2487,0.0,0.0,0.0,0.0,0.0,0.0,0.0,0.0,0.0,0.0,0.0,0.0,0.0,0.0,0.0,0.0,0.0,0.0,0.0,0.0,0.0,0.0,0.0,0.6011,0.0,0.0,0.0,0.0,0.0,0.0,0.0,0.0,0.0,0.9911,1.1729,1.3271,1.406,1.4961,1.5567,1.5544,0.0,0.0,0.0,0.0,0.0,0.0,0.0,1.7294,1.8047,1.8066,1.8538,2.0167,2.303,2.5238,2.5597,0.0,0.0,2.498,2.4613,2.4674,2.5367,2.526,2.5329,2.635,2.6443,2.6627,0.0,0.0,0.0,0.0,0.0,0.0,0.0,0.0,-0.5203,-0.4831,0.0,-0.4433,0.0,0.0,0.0,0.0,0.0,0.0,0.0,0.0,0.2606,0.3124,0.3101,0.3154,0.3152,0.3074,0.2422,0.204,0.1808,0.0604,0.0,0.0,0.0,0.0,0.0,0.0,-0.1515,-0.2142,-0.1612,-0.1671,-0.2439,-0.2459,-0.2868,-0.3632,-0.2987,-0.2597,-0.2577,-0.2252,-0.1969,-0.1826,-0.1864,0.0,0.0,0.0,0.0,0.0,0.0,0.0,0.0,0.0,0.0,0.0,0.0,0.0,0.0,0.0,0.0,0.0,0.0,0.0,0.0,0.6283,0.0,0.0,0.0,0.0,0.0,0.0,0.0,0.0,0.0,0.0,1.0557,1.1925,1.2997,1.3286,0.0,0.0,0.0,0.0,1.6079,1.4728,1.5738,1.6741,1.6821,1.7446,1.83,1.9325,0.0,0.0,1.9965,2.2081,2.3664,2.3344,2.4857,2.6332,2.7415,2.6498,2.5898,2.6275,2.5756,2.5674,2.6829,2.7352,2.7944,-0.933,0.0,0.0,0.0,0.0,-0.746,-0.6999,-0.6381,-0.617,-0.5692,-0.5017,-0.4928,0.0,0.0,0.0,0.0,0.0,0.0,-0.0808,0.1466,0.1772,0.2382,0.3244,0.3261,0.3261,0.3239,0.2941,0.2529,0.1969,0.1489,0.0671,-0.0462,0.0,0.0,0.0,0.0,-0.1312,-0.154,-0.1388,-0.1401,-0.1651,-0.163,-0.1775,-0.2022,-0.2178,-0.2247,-0.2247,-0.2455,-0.2547,-0.2454,-0.2711,0.0,0.0,0.0,0.0,0.0,0.0,0.0,0.0,0.0,0.0,0.0,0.0,0.0,0.0,0.0,0.0,0.0,0.0,0.0,0.3577,0.5752,0.692,0.0,0.0,0.0,0.0,0.0,0.0,0.0,0.0,0.0,1.1356,1.2337,1.3079,0.0,0.0,1.3445,1.4394,1.4356,1.4857,1.674,0.0,0.0,0.0,1.7756,1.7615,1.8342,1.9254,2.0305,2.1564,2.2574,2.3766,2.5365,2.5478,2.5722,2.7064,2.7001,2.6693,2.6777,2.6621,2.6559,2.6933,2.6973,2.7329,-0.883,-0.8441,-0.8527,-0.8045,-0.7199,-0.7221,-0.6832,-0.6218,-0.6218,-0.5875,-0.5338,-0.5271,-0.5186,-0.5155,-0.4976,0.0,0.0,0.0,-0.0746,0.1881,0.1944,0.2438,0.3267,0.3271,0.3261,0.3252,0.2877,0.2602,0.2434,0.1998,0.1397,0.0594,0.0,0.0,-0.0783,-0.082,-0.101,-0.1296,-0.1305,-0.131,-0.1305,-0.1306,-0.1306,-0.1327,-0.1655,-0.1924,-0.2136,-0.2588,-0.2918,-0.3046,-0.3261,-0.3318,0.0,0.0,0.0,0.0,0.0,0.0,0.0,0.0,0.0,0.0,0.0,0.2131,0.0,0.0,0.0,0.0,0.3527,0.4138,0.4173,0.6156,0.0,0.0,0.0,0.0,0.0,0.0,0.0,0.9567,1.0146,1.0847,1.1791,1.2766,1.3433,1.3659,1.3281,1.3518,1.4942,0.0,1.5455,1.7298,1.7303,1.7406,1.8082,1.7717,1.7452,1.7765,1.8682,1.9682,2.0723,2.1786,2.3079,2.4482,2.4979,2.5363,2.6321,2.6402,2.6651,2.7337,2.7226,2.7133,2.7475,2.7075,2.7222,-0.8307,-0.7432,-0.7958,-0.7584,-0.6647,-0.6706,-0.6309,-0.5634,-0.563,-0.5626,-0.5614,-0.5484,-0.5382,-0.5282,-0.5099,0.0,0.0,-0.1228,0.024,0.2668,0.2857,0.3065,0.3293,0.3239,0.3209,0.3179,0.2499,0.2503,0.3052,0.2293,0.1888,0.1868,0.1253,0.0602,-0.0102,-0.0187,-0.0519,-0.1122,-0.1146,-0.1139,-0.1143,-0.1143,-0.1143,-0.1143,-0.1229,-0.1561,-0.2155,-0.2628,-0.3124,-0.3643,-0.3621,-0.3549,-0.349,0.0,0.0,0.0,0.0,0.0,0.0,0.0,0.0,0.0,0.0,0.0,0.0,0.0,0.0,0.0,0.4755,0.0,0.6002,0.7127,0.0,0.0,0.0,0.8182,0.9059,0.9429,0.9648,0.9764,0.0,0.0,0.0,0.0,1.4011,1.4319,1.491,1.5319,1.5435,1.6304,1.6984,1.6874,1.7046,1.7233,1.7378,1.746,1.7594,1.7635,1.7809,1.8252,1.8796,2.0286,2.1648,2.2423,2.3721,2.5089,2.5301,2.5511,2.5971,2.7779,2.75,2.7207,2.7925,2.7603,2.769,-0.6679,-0.6361,-0.65,-0.6381,-0.6094,-0.6116,-0.6003,-0.5847,-0.5778,-0.5749,-0.5745,-0.5734,-0.5178,-0.4245,-0.4263,-0.258,0.0276,0.0221,0.1318,0.323,0.3284,0.3286,0.3296,0.3282,0.325,0.3179,0.2969,0.296,0.3088,0.2854,0.2661,0.2546,0.2337,0.1663,0.0528,0.0469,0.0391,0.0229,0.021,0.0235,0.0221,0.0221,0.0221,0.0221,-0.0155,-0.0852,-0.1925,-0.2426,-0.3207,-0.4293,-0.4351,-0.4287,-0.4151,-0.3927,0.0,0.0,0.0,0.0,0.0,0.0,0.0,0.0,0.0,0.2321,0.1989,0.0,0.2959,0.0,0.4867,0.5917,0.5147,0.7411,0.0,0.0,0.8663,0.9179,0.9665,0.977,1.023,1.1235,1.166,1.2637,1.4464,1.4231,1.4616,1.6435,1.5317,1.462,1.5584,1.5857,1.6341,1.7172,1.7448,1.7501,1.7501,1.7528,1.7608,1.7608,1.7809,1.832,1.9304,1.9855,2.0825,2.2701,2.3413,2.4229,2.5557,2.6007,2.6365,2.7084,2.6894,2.6593,2.6848,2.7296,2.8031,-0.6028,-0.5988,-0.5948,-0.5598,-0.5095,-0.5655,-0.5892,-0.5851,-0.5761,-0.572,-0.5661,-0.5182,-0.4266,-0.3115,-0.3063,-0.1713,0.0566,0.059,0.1581,0.328,0.3277,0.3286,0.3336,0.3332,0.3279,0.3244,0.3185,0.3117,0.3112,0.3047,0.3015,0.2947,0.2889,0.249,0.1721,0.125,0.0885,0.0571,0.063,0.07,0.0782,0.0784,0.0751,0.0642,0.0423,-0.02,-0.1224,-0.1454,-0.2203,-0.3673,-0.3699,-0.3678,-0.3677,-0.3479,-0.3,0.0,0.0,0.0,0.0,0.0,0.0,0.0,0.0,0.0,0.0,0.0,0.3026,0.0,0.4991,0.0,0.5517,0.7981,0.9387,0.8869,0.9359,0.9845,1.0015,1.057,1.1226,1.1935,1.2981,1.4197,1.5541,1.5618,1.602,1.7424,1.6426,1.581,1.6461,1.6557,1.6768,1.7476,1.7608,1.7608,1.7608,1.7608,1.7608,1.7595,1.7729,1.8103,1.8869,1.987,2.1018,2.2402,2.3439,2.4397,2.5481,2.5797,2.6018,2.6278,2.6245,2.6364,2.6947,2.7529,2.8226,-0.5935,-0.5964,-0.5733,-0.5014,-0.405,-0.5014,-0.5384,-0.532,-0.5196,-0.5133,-0.5082,-0.4039,-0.2928,-0.1813,-0.1616,-0.0745,0.0629,0.0703,0.1606,0.3119,0.3139,0.3242,0.3401,0.332,0.3293,0.3308,0.3231,0.3177,0.3103,0.312,0.3079,0.3086,0.3077,0.3039,0.2938,0.2039,0.1266,0.0714,0.0824,0.0964,0.1158,0.1153,0.1052,0.0868,0.0925,0.0542,-0.0267,-0.0167,-0.0823,-0.2389,-0.2389,-0.2399,-0.2546,-0.2407,-0.1989,0.0,-0.1103,0.0,0.0,0.0,0.0,0.0,0.0,0.0,0.0,0.2854,0.3108,0.3352,0.5239,0.6494,0.667,0.865,0.9942,0.995,1.0088,1.0194,1.0253,1.1388,1.2267,1.2418,1.4498,1.5941,1.6195,1.7041,1.7635,1.7714,1.7648,1.7555,1.7687,1.7595,1.7542,1.7608,1.7608,1.7608,1.7608,1.7608,1.7608,1.7608,1.7622,1.7702,1.801,1.9902,2.1515,2.1931,2.3611,2.5077,2.5317,2.5376,2.545,2.5728,2.5879,2.6371,2.7406,2.79,2.8492,-0.5898,-0.5818,-0.4715,-0.4147,-0.3857,-0.3063,-0.2765,-0.2803,-0.272,-0.2678,-0.2658,-0.2176,-0.1296,-0.0173,0.0172,0.1111,0.2558,0.2602,0.2907,0.3414,0.3369,0.3316,0.3315,0.3301,0.3269,0.3223,0.3212,0.3201,0.3162,0.3114,0.3082,0.3022,0.2952,0.2875,0.0,0.0,0.0,0.0,0.2396,0.2491,0.2517,0.2415,0.2337,0.2307,0.2316,0.0,0.0642,0.0601,-0.0022,-0.137,-0.1458,0.0,0.0,0.0,0.0,0.0,0.0,0.0,0.0,0.0,0.0,0.0,0.2206,0.2724,0.2617,0.2904,0.354,0.4689,0.5964,0.7136,0.8099,0.9354,1.0137,1.0163,1.017,1.0243,1.039,1.1469,1.258,1.365,1.5026,1.634,1.7371,1.7806,1.8016,1.816,1.8239,1.8239,1.8239,1.7871,1.7635,1.7608,1.7635,1.7608,1.7608,1.7635,1.7661,1.7608,1.7608,1.7714,1.8151,1.984,2.1485,2.1995,2.3802,2.535,2.5572,2.562,2.5625,2.5693,2.6332,2.6982,2.7279,2.8012,2.8859,-0.4926,0.0,-0.3509,-0.2585,0.0,-0.1306,-0.0725,-0.0255,-0.132,-0.1315,-0.056,-0.0367,0.0368,0.1503,0.1589,0.215,0.3032,0.2981,0.3103,0.3339,0.3368,0.3325,0.3296,0.3296,0.3305,0.325,0.325,0.3234,0.3206,0.3204,0.3158,0.3093,0.3065,0.3019,0.2959,0.2956,0.2916,0.2848,0.2905,0.2982,0.3044,0.2989,0.2916,0.285,0.0,0.0,0.0,0.0,0.0,0.0,0.0,0.0,0.0,0.0,0.0,0.0817,0.1049,0.1174,0.1155,0.1739,0.2414,0.3228,0.4291,0.4614,0.3895,0.4022,0.467,0.5979,0.7054,0.7941,0.8551,0.9628,1.029,1.0298,1.0371,1.0675,1.137,1.2427,1.3635,1.4839,1.6021,1.7041,1.7687,1.7938,1.8043,1.82,1.8318,1.8422,1.8396,1.8187,1.8003,1.8003,1.8003,1.8003,1.8003,1.8003,1.795,1.7819,1.7806,1.8082,1.8696,2.0158,2.1641,2.271,2.4239,2.5382,2.5625,2.5698,2.5698,2.5771,2.6504,2.7369,2.784,2.875,2.9555,-0.362,-0.3441,-0.2119,-0.0933,0.009,0.0291,0.1024,0.1908,0.0,0.0,0.0,0.1258,0.1821,0.2742,0.2715,0.2837,0.307,0.2939,0.3017,0.3223,0.344,0.356,0.3563,0.3778,0.3888,0.3888,0.3953,0.393,0.3872,0.393,0.393,0.3901,0.3872,0.3869,0.3869,0.3869,0.3806,0.3684,0.3251,0.3076,0.3182,0.3169,0.3115,0.3025,0.3069,0.3027,0.2861,0.2967,0.2625,0.1764,0.1745,0.1721,0.1594,0.157,0.1883,0.2531,0.2663,0.2801,0.2993,0.3289,0.4017,0.5434,0.6451,0.6563,0.5508,0.5501,0.6032,0.7222,0.815,0.8732,0.8977,0.9846,1.045,1.0458,1.077,1.1391,1.2336,1.3625,1.4797,1.5835,1.6829,1.7635,1.7766,1.7938,1.8122,1.8253,1.8515,1.8553,1.8527,1.8448,1.8344,1.8344,1.8318,1.837,1.8422,1.8643,1.8579,1.8461,1.8605,1.9008,1.9911,2.0963,2.2181,2.3459,2.4633,2.5357,2.5625,2.5698,2.5698,2.5698,2.6672,2.7699,2.8564,2.9624,3.0441,-0.2273,-0.2121,-0.0575,0.0181,0.0451,0.1748,0.2534,0.2828,0.202,0.1923,0.2361,0.2674,0.2884,0.3078,0.3268,0.3374,0.3423,0.3284,0.3256,0.0,0.4177,0.4603,0.4657,0.5695,0.6226,0.6231,0.6401,0.6469,0.6458,0.6443,0.6469,0.6453,0.6479,0.6422,0.6453,0.6453,0.6453,0.6375,0.424,0.3074,0.3123,0.3049,0.3058,0.3083,0.3094,0.3086,0.3061,0.3077,0.3012,0.287,0.2854,0.2901,0.2989,0.3002,0.3014,0.3042,0.3276,0.3339,0.3158,0.4322,0.5564,0.6704,0.7007,0.7013,0.684,0.6813,0.7332,0.8483,0.8818,0.9297,1.0233,1.0549,1.0647,1.0729,1.1538,1.2227,1.2499,1.4298,1.5675,1.5994,1.6909,1.7793,1.816,1.8291,1.8527,1.8959,1.9037,1.9142,1.9037,1.871,1.8422,1.8396,1.8396,1.8396,1.8658,1.9254,1.9705,1.9731,2.0461,2.1075,2.1574,2.2484,2.3384,2.3973,2.4947,2.5552,2.5698,2.5698,2.5698,2.5771,2.7081,2.8425,2.8727,3.0102,3.1383,-0.0425,-0.0243,0.1107,0.1695,0.1751,0.2411,0.2847,0.308,0.2807,0.2881,0.3133,0.3324,0.3362,0.338,0.3377,0.3716,0.4258,0.4073,0.4356,0.4943,0.5401,0.5687,0.5865,0.643,0.6746,0.6865,0.6987,0.7036,0.6986,0.7036,0.7042,0.7012,0.698,0.698,0.698,0.698,0.698,0.6969,0.5193,0.4242,0.4249,0.3584,0.3243,0.3271,0.3273,0.3287,0.3315,0.3317,0.3334,0.3367,0.3367,0.3405,0.3458,0.3466,0.3447,0.3385,0.4117,0.4508,0.4365,0.62,0.7537,0.8029,0.8692,0.9051,0.9036,0.8457,0.8565,0.9746,0.9864,1.0111,1.0633,1.0715,1.0715,1.0715,1.1719,1.2635,1.3383,1.4808,1.6154,1.6909,1.7477,1.7977,1.8344,1.8541,1.8724,1.9052,1.9208,1.9272,1.9324,1.9595,1.9528,1.9101,1.9823,2.0287,1.9927,2.0656,2.1218,2.1167,2.1574,2.2181,2.276,2.3459,2.4023,2.4781,2.5406,2.565,2.5698,2.5698,2.5698,2.5868,2.7295,2.8495,2.8912,3.0283,3.156,0.1358,0.1474,0.2489,0.293,0.2967,0.2904,0.3179,0.3614,0.3611,0.3891,0.4309,0.4117,0.4005,0.3987,0.405,0.4531,0.5214,0.5101,0.548,0.629,0.6617,0.6861,0.7086,0.7357,0.7629,0.7767,0.7863,0.7869,0.7855,0.7876,0.7876,0.7837,0.783,0.783,0.7857,0.783,0.783,0.7751,0.6653,0.5896,0.5607,0.4706,0.4236,0.4226,0.4253,0.4145,0.3951,0.3926,0.384,0.3611,0.3589,0.3701,0.3977,0.4005,0.4117,0.4421,0.5258,0.5898,0.626,0.7842,0.903,0.9306,1.0166,1.0715,1.0633,0.9864,0.9664,1.0523,1.0661,1.0688,1.0743,1.0989,1.1099,1.1154,1.2363,1.3599,1.446,1.561,1.675,1.7819,1.8043,1.82,1.8463,1.8738,1.8921,1.9026,1.9182,1.935,1.9698,2.0585,2.0816,2.0637,2.1464,2.2005,2.1464,2.2131,2.2659,2.2584,2.2827,2.3377,2.3998,2.4171,2.4486,2.5406,2.5625,2.5698,2.5718,2.5941,2.6042,2.6284,2.7767,2.9143,2.9578,3.0621,3.1673,0.2775,0.2768,0.311,0.3356,0.3582,0.3571,0.4207,0.5091,0.5202,0.581,0.6533,0.5676,0.5258,0.5345,0.6049,0.6448,0.6584,0.6356,0.6319,0.6589,0.7585,0.8126,0.8289,0.9403,1.0067,1.0053,1.014,1.014,1.0144,1.0229,1.0319,1.0366,1.0366,1.0268,1.0304,1.0304,1.0331,1.0311,0.9181,0.802,0.698,0.6808,0.6752,0.6774,0.6747,0.6259,0.527,0.5218,0.4721,0.3726,0.367,0.4117,0.5094,0.523,0.5704,0.6611,0.6861,0.7393,0.845,0.8782,0.9396,1.0386,1.0578,1.0715,1.0715,1.0606,1.0551,1.0688,1.0715,1.0715,1.077,1.1582,1.2146,1.2336,1.411,1.5621,1.5781,1.6962,1.7885,1.7964,1.8253,1.8489,1.8776,1.8895,1.9,1.9208,1.9402,1.9765,2.0508,2.1641,2.2307,2.2181,2.2484,2.2534,2.2484,2.326,2.3807,2.3973,2.4707,2.5094,2.524,2.5357,2.5596,2.5528,2.5698,2.5698,2.5893,2.636,2.6962,2.7081,2.8425,3.026,3.1116,3.1516,3.1717,0.35,0.3505,0.4292,0.5032,0.5624,0.5671,0.595,0.6394,0.6422,0.6695,0.7138,0.7337,0.705,0.6319,0.6674,0.7066,0.7524,0.7409,0.7766,0.8449,0.9008,0.9355,0.9613,1.0089,1.0458,1.0582,1.0655,1.0715,1.0715,1.0715,1.0715,1.0715,1.0715,1.0715,1.0715,1.0715,1.0715,1.0688,1.0221,0.9717,0.9132,0.7807,0.7117,0.7105,0.711,0.6916,0.6478,0.6422,0.6172,0.5699,0.5671,0.5894,0.6366,0.6422,0.6616,0.711,0.7775,0.8692,0.9891,0.9974,1.0166,1.0688,1.0715,1.0715,1.0715,1.0715,1.0715,1.0715,1.0715,1.0935,1.161,1.2146,1.2662,1.3437,1.4915,1.5968,1.6154,1.7239,1.8095,1.8477,1.8634,1.8803,1.9078,1.9156,1.9182,1.9376,1.9776,2.0483,2.0954,2.2333,2.3335,2.3509,2.3949,2.4048,2.3725,2.4319,2.4903,2.5094,2.5382,2.5674,2.5698,2.5698,2.5693,2.5698,2.5698,2.5698,2.5698,2.648,2.7226,2.7699,2.8796,3.0486,3.1494,3.1717,3.1717,0.4802,0.4868,0.5618,0.6383,0.7088,0.711,0.7304,0.7587,0.7587,0.7753,0.8161,0.903,0.8838,0.7942,0.781,0.8157,0.8648,0.8646,0.9069,0.9931,1.0006,1.015,1.0401,1.0458,1.0566,1.0699,1.0715,1.0715,1.0715,1.0715,1.0715,1.0715,1.0715,1.0715,1.0715,1.0715,1.0715,1.0715,1.0715,1.0715,1.0441,0.8996,0.8085,0.8079,0.8085,0.794,0.7581,0.7614,0.7415,0.711,0.711,0.7277,0.7587,0.7609,0.7747,0.8106,0.892,0.9774,1.0661,1.0715,1.0715,1.0715,1.0715,1.0825,1.1099,1.1181,1.1309,1.1692,1.1637,1.201,1.2254,1.2977,1.376,1.4647,1.5781,1.6564,1.6935,1.774,1.8424,1.8817,1.8947,1.9078,1.9272,1.9558,1.9802,1.9905,2.0688,2.154,2.1828,2.311,2.4146,2.4492,2.5216,2.5265,2.4732,2.5069,2.5625,2.5698,2.5698,2.5698,2.5698,2.5698,2.5698,2.5698,2.5698,2.5965,2.6356,2.6986,2.8028,2.8588,2.9601,3.0824,3.156,3.1695,3.1717,0.7119,0.7033,0.703,0.7121,0.7166,0.7221,0.7808,0.8809,0.8809,0.9444,1.0304,1.0496,1.0463,1.0122,1.0026,1.0198,1.0211,1.0054,1.0042,1.0194,1.0314,1.0385,1.0391,1.0599,1.0707,1.0715,1.0715,1.0715,1.0715,1.0715,1.0715,1.0715,1.0715,1.0715,1.0715,1.0715,1.0715,1.0715,1.0715,1.0715,1.068,1.0543,1.0343,1.03,1.046,0.9841,0.8961,0.883,0.8327,0.7193,0.726,0.7686,0.8665,0.8796,0.9299,1.0276,1.0523,1.0606,1.0688,1.0715,1.0743,1.077,1.0852,1.1208,1.22,1.2336,1.2706,1.376,1.376,1.3518,1.3004,1.4325,1.5595,1.6127,1.716,1.7845,1.8213,1.8489,1.8817,1.8947,1.913,1.9246,1.9324,2.02,2.0611,2.0918,2.1718,2.2685,2.3434,2.3955,2.4584,2.5216,2.5601,2.565,2.5601,2.5577,2.565,2.5698,2.5698,2.5698,2.5698,2.5698,2.5698,2.5771,2.5917,2.6332,2.7057,2.8098,2.9349,3.017,3.0779,3.1627,3.1695,3.1695,3.1717,0.7652,0.827,0.8276,0.8692,0.9388,0.9416,0.9664,1.0056,1.0056,1.0276,1.0633,1.0715,1.0655,1.0599,1.0571,1.0477,1.0266,1.0219,1.0251,1.0331,1.0377,1.0466,1.0599,1.0664,1.0715,1.0715,1.0715,1.0715,1.0715,1.0715,1.0715,1.0715,1.0715,1.0715,1.0715,1.0715,1.0715,1.0715,1.0715,1.0639,1.0507,1.0498,1.0477,1.039,1.0469,1.0281,0.977,0.9735,0.9522,0.9089,0.9062,0.9275,0.9671,0.9815,1.0085,1.0617,1.0715,1.0715,1.0715,1.0715,1.1017,1.1719,1.1801,1.2282,1.3221,1.3491,1.3679,1.4137,1.4888,1.4995,1.5076,1.5568,1.6313,1.7239,1.7753,1.82,1.8593,1.8843,1.8974,1.913,1.926,1.9272,1.9558,2.0251,2.0867,2.1056,2.2383,2.3552,2.4072,2.4633,2.524,2.5552,2.5698,2.5698,2.5698,2.5674,2.5698,2.5698,2.5698,2.5698,2.5698,2.5698,2.5698,2.6408,2.6504,2.6982,2.7864,2.9004,3.0306,3.1048,3.1717,3.1717,3.1717,3.1717,3.1717,0.8785,0.9423,0.9478,0.9946,1.0661,1.0715,1.0715,1.0715,1.0715,1.0715,1.0715,1.0715,1.0715,1.0715,1.0715,1.0601,1.0373,1.0365,1.0422,1.0482,1.049,1.0772,1.1128,1.088,1.1091,1.1719,1.1792,1.1792,1.1801,1.1792,1.161,1.1282,1.1255,1.1044,1.077,1.0715,1.0672,1.0623,1.0607,1.0498,1.0371,1.032,1.0257,1.0145,1.0193,1.0233,1.0186,1.0186,1.0186,1.0186,1.0186,1.0186,1.0202,1.0282,1.042,1.0582,1.0607,1.0639,1.0735,1.1017,1.1582,1.2336,1.2788,1.3437,1.4513,1.4701,1.4835,1.5316,1.5994,1.667,1.6776,1.6776,1.7147,1.8095,1.8305,1.8463,1.8947,1.9026,1.9089,1.9298,1.9661,1.9802,1.9968,2.1158,2.187,2.1946,2.3527,2.4535,2.4732,2.5167,2.5698,2.5698,2.5698,2.5698,2.5698,2.5698,2.5698,2.5698,2.5698,2.5698,2.5698,2.5698,2.6091,2.6867,2.7534,2.8004,2.8819,2.9966,3.0801,3.1538,3.1717,3.1717,3.1717,3.1717,3.1717,1.0614,1.0606,1.0688,1.0606,1.0715,1.0715,1.0715,1.0715,1.0715,1.0715,1.0715,1.0715,1.0715,1.0715,1.0852,1.0789,1.0838,1.0958,1.0967,1.0882,1.0945,1.151,1.2336,1.15,1.2037,1.3706,1.3949,1.3976,1.3814,1.3733,1.3275,1.2499,1.2227,1.1664,1.0715,1.0699,1.0571,1.0458,1.0426,1.0339,1.0211,1.0186,1.0097,0.9934,0.99,0.9999,1.0145,1.0154,1.0137,1.0145,1.0154,1.0178,1.0162,1.0186,1.0268,1.051,1.049,1.058,1.092,1.1864,1.2445,1.2906,1.3545,1.462,1.5648,1.5914,1.6287,1.7067,1.7582,1.7911,1.7964,1.8082,1.8344,1.8817,1.8791,1.8921,1.9194,1.9298,1.9324,1.9532,2.0163,2.0816,2.1311,2.2484,2.3534,2.3874,2.4707,2.5479,2.543,2.5577,2.5674,2.5698,2.5698,2.5698,2.5698,2.5698,2.5698,2.5698,2.5698,2.5698,2.5698,2.5723,2.6404,2.72,2.8448,2.8981,2.9829,3.0846,3.1137,3.1717,3.1717,3.1717,3.1717,3.1717,3.1717,1.0715,1.0715,1.0715,1.0715,1.0715,1.0715,1.0715,1.0715,1.0715,1.0715,1.0715,1.0715,1.0715,1.0935,1.1473,1.1882,1.1928,1.2607,1.2635,1.2118,1.2662,1.3166,1.3437,1.3221,1.3383,1.3992,1.41,1.41,1.4153,1.4153,1.3545,1.2607,1.2445,1.1801,1.0836,1.0574,1.045,1.0401,1.0306,1.0178,1.0015,0.9999,0.9909,0.973,0.9705,0.9713,0.9786,0.9795,0.9795,0.9803,0.9795,0.9843,0.9966,0.9999,1.0415,1.1194,1.1521,1.2028,1.2706,1.3237,1.3938,1.462,1.5141,1.5888,1.6909,1.7186,1.745,1.7859,1.8122,1.8358,1.8581,1.8686,1.8817,1.8895,1.8895,1.9026,1.9246,1.9298,1.9687,2.0277,2.0698,2.1183,2.2005,2.3409,2.4146,2.427,2.5069,2.5674,2.5698,2.5698,2.5698,2.5698,2.5698,2.5698,2.5698,2.5698,2.5698,2.5698,2.5698,2.5698,2.5698,2.6042,2.672,2.784,2.9073,3.0056,3.0891,3.1361,3.1629,3.1717,3.1717,3.1717,3.1717,3.1717,3.1717,1.0715,1.0715,1.0715,1.0715,1.077,1.1126,1.1345,1.1391,1.1801,1.1955,1.1982,1.1982,1.1964,1.2118,1.2743,1.3004,1.3166,1.4245,1.4379,1.3733,1.3814,1.4325,1.4781,1.5236,1.5129,1.4915,1.5183,1.5396,1.5396,1.5343,1.4835,1.3895,1.3706,1.3089,1.1927,1.1674,1.1566,1.1385,1.1327,1.1129,1.0991,1.092,1.0891,1.0732,1.0404,1.0207,1.0183,0.9821,0.9599,0.9698,0.9945,1.0268,1.0387,1.0755,1.1312,1.2002,1.2406,1.2847,1.364,1.4186,1.4931,1.5757,1.6287,1.6803,1.7503,1.7766,1.7871,1.8016,1.8239,1.8541,1.8817,1.9,1.9052,1.9052,1.9052,1.913,1.9246,1.9298,1.9776,2.0585,2.1234,2.1996,2.296,2.3998,2.4658,2.4805,2.524,2.5698,2.5698,2.5698,2.5698,2.5698,2.5698,2.5698,2.5698,2.5698,2.5698,2.5698,2.5698,2.5698,2.5698,2.6308,2.6986,2.8773,3.0192,3.0734,3.1494,3.1538,3.1717,3.1717,3.1717,3.1717,3.1717,3.1717,3.1717,1.0798,1.077,1.0907,1.1072,1.1173,1.2091,1.248,1.2633,1.3464,1.382,1.389,1.3739,1.3895,1.4003,1.4083,1.4191,1.4406,1.5423,1.5968,1.5595,1.5129,1.5102,1.5994,1.6803,1.6697,1.6234,1.6909,1.7371,1.7213,1.7199,1.7015,1.5728,1.5476,1.5067,1.3673,1.3588,1.3184,1.2783,1.2804,1.2692,1.2492,1.2554,1.2543,1.2495,1.1731,1.1268,1.1146,1.0527,0.992,0.9846,1.0739,1.1277,1.1448,1.2193,1.2636,1.3021,1.3093,1.3489,1.4016,1.5007,1.5712,1.6182,1.6962,1.7608,1.7661,1.7819,1.795,1.8148,1.837,1.8646,1.8947,1.913,1.926,1.9298,1.9428,1.9506,1.9428,1.9532,2.0354,2.1209,2.2047,2.2985,2.4023,2.5045,2.543,2.5596,2.5645,2.5674,2.5698,2.5698,2.5698,2.5698,2.5698,2.5698,2.5698,2.5698,2.5698,2.5698,2.5698,2.5723,2.6014,2.6696,2.7673,2.9441,3.0824,3.1405,3.1717,3.1717,3.1717,3.1717,3.1717,3.1717,3.1717,3.1717,3.1717,1.1964,1.2037,1.2842,1.3193,1.3221,1.3545,1.3532,1.3434,1.3912,1.4185,1.3954,1.4008,1.4234,1.4207,1.5076,1.5423,1.5689,1.6578,1.7147,1.712,1.6882,1.6803,1.712,1.7424,1.745,1.7199,1.7397,1.7608,1.7608,1.7608,1.7054,1.5941,1.5956,1.5241,1.3908,1.3661,1.3318,1.3004,1.2885,1.2862,1.2821,1.2799,1.2702,1.2654,1.246,1.2315,1.229,1.2047,1.1487,1.091,1.1755,1.229,1.2315,1.2654,1.3206,1.3855,1.4177,1.4773,1.572,1.6343,1.6821,1.7134,1.7556,1.7885,1.7911,1.8305,1.8529,1.8712,1.8921,1.9063,1.9182,1.9298,1.9324,1.9402,2.0112,2.0508,2.0508,2.1209,2.2055,2.3085,2.3459,2.4072,2.4922,2.543,2.5698,2.5698,2.5698,2.5698,2.5698,2.5698,2.5698,2.5698,2.5698,2.5698,2.5698,2.5698,2.5698,2.5698,2.5723,2.5771,2.638,2.7247,2.8448,2.9966,3.0958,3.1673,3.1717,3.1717,3.1717,3.1717,3.1717,3.1717,3.1717,3.1717,3.1717,1.3112,1.3166,1.3814,1.41,1.4191,1.462,1.4756,1.4771,1.5299,1.5485,1.539,1.5485,1.5583,1.5636,1.6313,1.6644,1.6711,1.7292,1.7556,1.7582,1.7529,1.7556,1.7582,1.7608,1.7608,1.7608,1.7608,1.7608,1.7608,1.7608,1.7213,1.6738,1.6504,1.5899,1.5154,1.4725,1.4464,1.424,1.4063,1.4004,1.4016,1.3992,1.404,1.3896,1.3631,1.3245,1.2848,1.3089,1.2896,1.229,1.2775,1.3366,1.3414,1.3824,1.4304,1.4927,1.5078,1.566,1.6622,1.7064,1.7411,1.7815,1.8108,1.8134,1.8213,1.8515,1.8712,1.8869,1.9078,1.9168,1.9376,1.9687,2.0163,2.079,2.1591,2.1844,2.1056,2.1794,2.291,2.3732,2.4171,2.451,2.5528,2.5674,2.5698,2.5698,2.5698,2.5698,2.5698,2.5698,2.5698,2.5698,2.5698,2.5698,2.5698,2.5698,2.5698,2.5698,2.5917,2.5941,2.6935,2.7908,2.9096,3.0306,3.116,3.1717,3.1717,3.1717,3.1717,3.1717,3.1717,3.1741,3.1741,3.1934,3.191,1.4298,1.4298,1.4433,1.446,1.4728,1.561,1.6037,1.6211,1.6936,1.7358,1.7318,1.7476,1.7265,1.7608,1.7318,1.7556,1.7529,1.7556,1.7582,1.7608,1.7608,1.7608,1.7608,1.7608,1.7608,1.7608,1.7608,1.7608,1.7608,1.7608,1.7608,1.741,1.7237,1.7009,1.6377,1.6251,1.6104,1.5584,1.5373,1.5272,1.5246,1.5232,1.5196,1.5102,1.4607,1.3921,1.3553,1.3802,1.3945,1.3049,1.3944,1.4388,1.4556,1.5367,1.5713,1.5747,1.5838,1.6233,1.6966,1.7205,1.7528,1.8152,1.8396,1.8448,1.8475,1.8593,1.875,1.8974,1.8947,1.9194,1.9698,2.0431,2.1311,2.208,2.3235,2.2985,2.1996,2.2173,2.321,2.4072,2.4295,2.4781,2.5333,2.5698,2.5698,2.5698,2.5698,2.5698,2.5698,2.5698,2.5698,2.5698,2.5698,2.5698,2.5698,2.5698,2.5698,2.5723,2.6091,2.65,2.7696,2.8727,2.9761,3.0733,3.1427,3.1717,3.1717,3.1717,3.1765,3.1789,3.1839,3.1839,3.1839,3.22,3.2321,1.5515,1.5595,1.6472,1.6856,1.6882,1.712,1.7108,1.6964,1.7384,1.7501,1.7367,1.7501,1.7608,1.7608,1.7608,1.7608,1.7608,1.7608,1.7608,1.7608,1.7608,1.7608,1.7608,1.7635,1.7608,1.7608,1.7608,1.7608,1.7608,1.7608,1.7608,1.7595,1.7474,1.7221,1.6754,1.658,1.6219,1.5645,1.5511,1.5404,1.5267,1.5263,1.5249,1.5227,1.5012,1.479,1.465,1.4865,1.4955,1.4924,1.5131,1.5389,1.5457,1.5778,1.6028,1.6113,1.6292,1.6673,1.726,1.7441,1.7728,1.835,1.8672,1.8817,1.8817,1.8959,1.9089,1.9194,1.9234,1.9698,2.0637,2.1565,2.2282,2.286,2.3558,2.4023,2.3658,2.4288,2.4922,2.5167,2.5265,2.543,2.5669,2.5674,2.5698,2.5698,2.5718,2.5698,2.5698,2.5698,2.5698,2.5698,2.5698,2.5698,2.5698,2.5786,2.5947,2.6181,2.6569,2.7493,2.8685,2.9341,3.0308,3.1011,3.156,3.1765,3.1982,3.1887,3.196,3.1984,3.208,3.2224,3.2393,3.2634,3.273,1.6697,1.6776,1.7371,1.7608,1.7608,1.7608,1.7515,1.7421,1.7541,1.7528,1.7434,1.7555,1.7608,1.7608,1.7608,1.7608,1.7635,1.774,1.7793,1.7819,1.7898,1.7924,1.7832,1.7871,1.7871,1.7661,1.7608,1.7608,1.7608,1.7608,1.7608,1.7582,1.7488,1.7153,1.6727,1.6605,1.6192,1.5712,1.5458,1.5334,1.52,1.5165,1.521,1.5359,1.554,1.5636,1.5318,1.5517,1.5557,1.5562,1.5755,1.5877,1.5754,1.5846,1.5994,1.6164,1.6285,1.6842,1.7397,1.7729,1.8031,1.8745,1.8985,1.9052,1.9104,1.9246,1.9272,1.9428,1.9853,2.0662,2.2181,2.2785,2.3359,2.3998,2.4461,2.483,2.4947,2.5382,2.5698,2.5698,2.5625,2.5625,2.5698,2.5698,2.5698,2.5698,2.5737,2.5737,2.5693,2.5693,2.5698,2.5698,2.5698,2.5698,2.5698,2.5879,2.6269,2.6709,2.7341,2.8663,3.0149,3.0483,3.0766,3.1432,3.2128,3.2345,3.2513,3.2369,3.2369,3.2609,3.2755,3.2827,3.2923,3.3044,3.3092,1.7608,1.7608,1.7608,1.7608,1.7608,1.7608,1.7608,1.7595,1.7608,1.7595,1.7608,1.7608,1.7608,1.7608,1.7608,1.7608,1.7661,1.778,1.7859,1.7859,1.8003,1.7977,1.7938,1.7977,1.795,1.7635,1.774,1.7766,1.7793,1.774,1.7819,1.7726,1.755,1.7318,1.6916,1.6621,1.6346,1.59,1.5693,1.5544,1.5404,1.5327,1.5344,1.5457,1.591,1.5956,1.5642,1.5765,1.5948,1.5715,1.597,1.5965,1.583,1.5813,1.5911,1.6271,1.6452,1.7032,1.7777,1.8085,1.8419,1.9228,1.9298,1.9298,1.9272,1.9324,1.948,2.0019,2.0723,2.2148,2.3831,2.4245,2.4707,2.5308,2.5625,2.5737,2.5796,2.5815,2.5835,2.5698,2.5698,2.5698,2.5698,2.5698,2.5698,2.5737,2.5776,2.5815,2.5815,2.5869,2.601,2.6108,2.6186,2.6225,2.6206,2.626,2.6596,2.7496,2.8178,2.9609,3.1192,3.1622,3.1856,3.2202,3.2707,3.2875,3.2994,3.2922,3.2996,3.3284,3.338,3.3381,3.3428,3.3477,3.3549,1.7608,1.7608,1.7608,1.7608,1.7608,1.7608,1.7608,1.7608,1.7608,1.7608,1.7608,1.7608,1.7635,1.7635,1.7608,1.7608,1.774,1.7845,1.7806,1.7806,1.7924,1.7898,1.7898,1.8003,1.7845,1.7766,1.8003,1.8265,1.8187,1.8291,1.8108,1.8199,1.817,1.7867,1.7452,1.7277,1.6815,1.6228,1.6026,1.5883,1.5658,1.5516,1.5366,1.5394,1.5871,1.5824,1.5645,1.5796,1.5988,1.5968,1.6211,1.63,1.6349,1.6558,1.6732,1.6841,1.7116,1.7544,1.8153,1.8494,1.8811,1.9169,1.9298,1.9298,1.9298,1.9428,1.9972,2.1094,2.235,2.3737,2.4048,2.4937,2.542,2.5713,2.5815,2.5932,2.6191,2.6269,2.6128,2.5952,2.5835,2.5815,2.5932,2.5991,2.601,2.6089,2.6167,2.625,2.6269,2.644,2.668,2.6777,2.683,2.683,2.683,2.6873,2.715,2.838,2.9278,3.0321,3.1681,3.2536,3.3026,3.3262,3.326,3.326,3.3332,3.3428,3.3501,3.3645,3.3742,3.3862,3.3958,3.4006,3.427,1.7608,1.7608,1.7608,1.7608,1.7608,1.7608,1.7608,1.7608,1.7608,1.7661,1.7766,1.7806,1.7898,1.7977,1.8003,1.8082,1.82,1.8253,1.8279,1.8279,1.841,1.8384,1.8279,1.8384,1.8475,1.8553,1.8736,1.8501,1.8055,1.8108,1.8227,1.8213,1.8318,1.8184,1.7792,1.7543,1.7215,1.6668,1.6355,1.6116,1.5962,1.5857,1.5847,1.5897,1.6171,1.6253,1.6019,1.6251,1.6379,1.6292,1.6491,1.6696,1.6937,1.7145,1.7326,1.7278,1.745,1.7887,1.8408,1.873,1.8921,1.9213,1.9324,1.9298,1.9454,1.9894,2.0988,2.2639,2.3724,2.5018,2.561,2.6048,2.6331,2.6381,2.6342,2.644,2.6615,2.6674,2.6557,2.6381,2.6479,2.6498,2.6459,2.6459,2.6401,2.6459,2.6582,2.666,2.6744,2.6934,2.7187,2.7168,2.7187,2.7187,2.7258,2.7464,2.804,2.9249,3.0293,3.1367,3.2452,3.3458,3.3887,3.4102,3.4054,3.3765,3.403,3.4198,3.4102,3.4006,3.4198,3.4366,3.4462,3.4607,3.4727,1.7608,1.7608,1.7608,1.7608,1.7608,1.7608,1.7608,1.7608,1.7608,1.7687,1.7911,1.7911,1.8003,1.816,1.8239,1.8358,1.866,1.8608,1.8608,1.862,1.8803,1.8907,1.8895,1.9,1.8959,1.8803,1.8907,1.8724,1.8344,1.8331,1.8305,1.8436,1.8527,1.845,1.819,1.7988,1.7587,1.7163,1.6758,1.6424,1.6377,1.651,1.6569,1.6496,1.6993,1.7022,1.6683,1.6906,1.7033,1.6989,1.7077,1.7305,1.7492,1.7741,1.7784,1.7638,1.7594,1.8086,1.8525,1.8917,1.9192,1.9735,1.9747,1.9881,2.0498,2.1561,2.2741,2.4524,2.5454,2.5975,2.6576,2.6947,2.6973,2.6953,2.6934,2.7006,2.7109,2.7168,2.7246,2.7187,2.722,2.7084,2.6928,2.6791,2.6693,2.6811,2.6934,2.7109,2.7213,2.7363,2.7519,2.7461,2.7441,2.7441,2.7616,2.8018,2.8947,3.037,3.1343,3.2305,3.3421,3.4534,3.4679,3.4583,3.4462,3.427,3.4631,3.4799,3.4559,3.4487,3.4703,3.4775,3.4703,3.4679,3.4751,1.7608,1.7608,1.7608,1.7608,1.7635,1.7635,1.7635,1.7635,1.7661,1.7608,1.7793,1.7687,1.7766,1.7845,1.7845,1.7819,1.7924,1.82,1.8358,1.8436,1.8622,1.8741,1.8529,1.8475,1.8824,1.889,1.8755,1.8803,1.8857,1.9014,1.9063,1.9037,1.8982,1.9022,1.8673,1.8513,1.8334,1.7804,1.763,1.7361,1.7041,1.7124,1.7001,1.6893,1.7082,1.7339,1.7303,1.7523,1.7691,1.7964,1.8052,1.813,1.8189,1.8203,1.8408,1.8525,1.8628,1.8697,1.8873,1.9247,1.9757,2.0504,2.0997,2.1707,2.2506,2.3609,2.4677,2.5138,2.621,2.6821,2.7091,2.7064,2.7051,2.7109,2.7207,2.7344,2.748,2.7598,2.7676,2.7793,2.7793,2.75,2.7246,2.7109,2.7012,2.7148,2.7305,2.7506,2.7643,2.7773,2.7871,2.7812,2.7793,2.7793,2.8042,2.8421,2.9549,3.1215,3.2171,3.304,3.3996,3.4799,3.4799,3.4703,3.4631,3.4607,3.4727,3.4799,3.4799,3.4799,3.4799,3.4799,3.4775,3.4799,3.4799,1.8055,1.8055,1.8055,1.8055,1.8055,1.8055,1.8055,1.8055,1.8055,1.816,1.8305,1.8331,1.841,1.8448,1.8567,1.8553,1.8567,1.862,1.8724,1.8783,1.8986,1.9165,1.9264,1.9352,1.9411,1.9299,1.9292,1.9353,1.948,1.9243,1.9078,1.913,1.922,1.9228,1.9008,1.8902,1.8657,1.8369,1.8179,1.7979,1.7829,1.7809,1.777,1.7553,1.7732,1.7833,1.7921,1.8003,1.812,1.8291,1.8306,1.8408,1.8525,1.8674,1.8928,1.9964,2.022,1.9937,1.9347,2.0063,2.0768,2.1388,2.2225,2.3269,2.4296,2.519,2.6147,2.6714,2.731,2.7669,2.7695,2.7734,2.7734,2.7715,2.7598,2.7715,2.7891,2.7995,2.8112,2.8203,2.8262,2.793,2.7676,2.7656,2.7598,2.7676,2.7773,2.7891,2.7988,2.8086,2.8164,2.8184,2.8184,2.8184,2.8523,2.8918,2.9958,3.1349,3.2484,3.3355,3.4239,3.4799,3.4799,3.4799,3.4727,3.4751,3.4799,3.4799,3.4799,3.4799,3.4799,3.4799,3.4799,3.4799,3.4799,1.8567,1.8605,1.8475,1.8396,1.8396,1.8396,1.8396,1.8396,1.837,1.8541,1.8712,1.8738,1.8855,1.9011,1.8959,1.8866,1.9011,1.9168,1.9267,1.9383,1.9623,1.9784,1.9847,2.0051,2.0112,2.0225,1.9893,1.9859,1.9704,1.9461,1.9167,1.9,1.9234,1.9283,1.9224,1.9078,1.8887,1.8726,1.8408,1.8277,1.8247,1.8262,1.8262,1.8277,1.8306,1.835,1.8408,1.8423,1.8438,1.8584,1.873,1.8906,1.9078,1.925,1.9847,2.0779,2.1281,2.1323,2.1113,2.1558,2.2101,2.2861,2.3834,2.5291,2.5982,2.6435,2.677,2.7681,2.7955,2.8203,2.8281,2.8242,2.8184,2.8164,2.8184,2.8262,2.8281,2.8223,2.8203,2.8242,2.8301,2.8301,2.8144,2.8203,2.8223,2.8262,2.8301,2.8301,2.8301,2.8281,2.8281,2.8301,2.8301,2.8327,2.8628,2.927,3.0401,3.1564,3.2675,3.3598,3.4483,3.4799,3.4799,3.4799,3.4799,3.4799,3.4799,3.4799,3.4799,3.4799,3.4799,3.4799,3.4799,3.4799,3.4799,1.9026,1.9194,1.8632,1.8422,1.8448,1.8396,1.8422,1.8475,1.8448,1.8527,1.8736,1.8605,1.8866,1.8762,1.9034,1.8956,1.8658,1.8817,1.9421,1.9676,1.9677,2.0177,2.0355,2.0418,2.0298,2.0283,2.0237,2.0181,2.0093,1.9859,1.9567,1.9356,1.9389,1.9316,1.9283,1.9224,1.9078,1.8887,1.8584,1.8423,1.8408,1.8394,1.8408,1.8394,1.8379,1.8452,1.8756,1.893,1.8982,1.9217,1.9732,1.9807,1.999,2.0302,2.1119,2.2042,2.2464,2.2815,2.3344,2.3502,2.4097,2.519,2.6259,2.7137,2.7506,2.7912,2.8196,2.8157,2.8262,2.8281,2.8301,2.8301,2.8301,2.8301,2.8301,2.8301,2.8301,2.8301,2.8262,2.8281,2.8301,2.8301,2.8301,2.8301,2.8301,2.8301,2.8301,2.8301,2.8301,2.8301,2.8301,2.8301,2.8301,2.8361,2.8575,2.9487,3.0923,3.2022,3.3076,3.3918,3.4702,3.4799,3.4799,3.4799,3.4799,3.4799,3.4799,3.4799,3.4799,3.4799,3.4799,3.4799,3.4799,3.4799,3.4799,1.922,1.9272,1.9037,1.8959,1.8959,1.8959,1.8959,1.8945,1.8959,1.9387,1.9916,2.0595,2.0912,2.0836,2.0912,2.0912,2.0986,2.1322,2.1378,2.1502,2.1611,2.153,2.1484,2.1026,2.0824,2.0792,2.0675,2.0502,2.0473,2.0426,2.0074,1.9857,1.9867,1.9474,1.9386,1.9356,1.9254,1.918,1.9005,1.8931,1.8891,1.8906,1.9019,1.9224,1.9224,1.9283,1.9505,2.013,2.0012,2.0155,2.1081,2.1306,2.1346,2.1883,2.2778,2.3796,2.4067,2.4854,2.5587,2.5605,2.5758,2.693,2.7731,2.8132,2.8281,2.8301,2.8301,2.8281,2.832,2.8359,2.8301,2.8301,2.8301,2.8301,2.834,2.8379,2.8359,2.8379,2.8301,2.832,2.8301,2.8301,2.8301,2.8301,2.8301,2.8301,2.8301,2.8301,2.8301,2.8301,2.8301,2.8415,2.8468,2.8495,2.8688,3.001,3.1538,3.2502,3.3449,3.4164,3.4799,3.4799,3.4799,3.4799,3.4799,3.4799,3.4799,3.4799,3.4799,3.4799,3.4799,3.4799,3.4799,3.4799,3.4799,1.9776,1.9802,2.0138,1.9853,1.9324,1.9298,1.9298,1.9298,1.9272,1.9687,2.0483,2.1234,2.154,2.1632,2.2028,2.1704,2.1612,2.2022,2.2314,2.2156,2.1799,2.2028,2.1879,2.1651,2.1343,2.1515,2.1551,2.1442,2.1496,2.1426,2.1301,2.1166,2.0975,2.0796,1.9667,1.9576,1.9576,1.9591,1.9971,2.0076,2.014,2.0574,2.083,2.109,2.1169,2.1169,2.1344,2.1792,2.1782,2.1872,2.2366,2.2974,2.3185,2.3577,2.4597,2.5395,2.6072,2.6683,2.7278,2.7396,2.718,2.7931,2.8143,2.8262,2.8301,2.8301,2.8301,2.832,2.8379,2.8476,2.8496,2.8652,2.8789,2.8914,2.8914,2.8914,2.8652,2.8574,2.8437,2.834,2.832,2.832,2.832,2.832,2.8359,2.834,2.8301,2.8301,2.8301,2.8301,2.8301,2.8468,2.8734,2.8767,2.8926,3.0691,3.2249,3.275,3.3646,3.4311,3.4799,3.4823,3.4823,3.4799,3.4799,3.4799,3.4799,3.4823,3.4799,3.4799,3.4799,3.4799,3.4799,3.4799,3.4799,2.0877,2.1021,2.1929,2.1183,1.9609,1.935,1.9454,1.9687,1.9698,1.9802,2.006,2.0189,2.0256,2.0576,2.21,2.2154,2.1822,2.2309,2.2532,2.2291,2.2367,2.1627,2.1652,2.1915,2.2312,2.2805,2.2867,2.2835,2.2911,2.3283,2.3135,2.2955,2.2939,2.256,2.0414,2.0194,2.0208,2.0303,2.1175,2.1344,2.1526,2.2113,2.2384,2.2818,2.2782,2.2648,2.3074,2.3446,2.3419,2.333,2.4067,2.4463,2.4405,2.4746,2.5567,2.6425,2.6543,2.7176,2.8075,2.8174,2.8247,2.8293,2.834,2.8418,2.834,2.8359,2.8457,2.8633,2.875,2.8887,2.9043,2.9227,2.9344,2.9383,2.9344,2.9285,2.9023,2.8906,2.8789,2.8613,2.8437,2.8367,2.8367,2.8406,2.8445,2.8398,2.832,2.832,2.8379,2.8398,2.8437,2.8388,2.8708,2.9085,2.9539,3.1538,3.2926,3.3325,3.3843,3.4554,3.4919,3.4991,3.4943,3.4871,3.5039,3.528,3.5063,3.4847,3.4871,3.4895,3.4799,3.4799,3.4799,3.4799,3.4799,2.1954,2.1996,2.2358,2.2097,2.1464,2.1438,2.1413,2.1565,2.2106,2.2458,2.2677,2.3153,2.3749,2.4148,2.4122,2.4338,2.4521,2.5213,2.5459,2.5129,2.4419,2.4672,2.4394,2.3631,2.3687,2.4005,2.4117,2.4133,2.41,2.4676,2.4484,2.4236,2.4443,2.3459,2.2154,2.1491,2.1132,2.0387,2.059,2.078,2.0931,2.1503,2.2258,2.3182,2.3307,2.3685,2.4365,2.489,2.4943,2.473,2.5451,2.6121,2.5991,2.6309,2.7133,2.7611,2.7684,2.796,2.8513,2.8664,2.8555,2.8496,2.8555,2.8691,2.8711,2.9031,2.9109,2.9149,2.9219,2.9336,2.9442,2.9481,2.954,2.954,2.952,2.95,2.9383,2.9383,2.9305,2.9062,2.8867,2.9012,2.9051,2.8933,2.8914,2.8926,2.8926,2.8769,2.8769,2.8711,2.8691,2.8425,2.8548,2.9138,3.0162,3.2265,3.3451,3.3802,3.4252,3.482,3.5063,3.528,3.5328,3.5376,3.5592,3.576,3.552,3.528,3.5063,3.4991,3.5063,3.4919,3.4799,3.4775,3.4775,2.3035,2.3085,2.3477,2.3601,2.3477,2.281,2.2484,2.2609,2.326,2.3534,2.3626,2.4239,2.4523,2.4933,2.5629,2.5673,2.5966,2.6712,2.6683,2.6667,2.6082,2.5508,2.5251,2.5323,2.4893,2.5113,2.5306,2.5306,2.5361,2.579,2.6018,2.6055,2.5882,2.5285,2.4214,2.3365,2.2694,2.2343,2.2644,2.2955,2.3037,2.3309,2.3891,2.456,2.4884,2.5091,2.5712,2.6114,2.64,2.6275,2.6758,2.7644,2.7534,2.7745,2.8379,2.8457,2.8711,2.884,2.9082,2.9141,2.9023,2.8867,2.9023,2.9121,2.916,2.9355,2.9481,2.9559,2.9735,2.9794,2.9813,2.9833,2.9989,2.9989,3.0009,3.0009,2.9833,2.9813,2.9676,2.9434,2.9316,2.952,2.9676,2.9598,2.9481,2.9512,2.9551,2.9375,2.918,2.9121,2.907,2.8917,2.9353,3.037,3.1522,3.307,3.3991,3.428,3.4731,3.5202,3.5617,3.5881,3.5881,3.5881,3.6026,3.6073,3.5978,3.5809,3.5689,3.5568,3.5593,3.5328,3.4895,3.4919,3.5039,2.4146,2.4319,2.526,2.5601,2.5308,2.3601,2.2777,2.2677,2.2735,2.281,2.2785,2.312,2.3605,2.3447,2.4477,2.4966,2.4886,2.5911,2.5945,2.5647,2.5864,2.5498,2.5416,2.5333,2.5899,2.6354,2.6545,2.6572,2.6654,2.716,2.7745,2.796,2.7645,2.7004,2.6118,2.5439,2.4621,2.4257,2.4395,2.4668,2.4733,2.6118,2.6307,2.6678,2.6913,2.7128,2.755,2.781,2.7936,2.7982,2.8182,2.8254,2.8293,2.832,2.8574,2.8906,2.9344,2.9434,2.957,2.9618,2.9696,2.959,2.9676,2.9676,2.9676,2.9746,2.9931,2.9989,3.0106,3.0204,3.0263,3.0497,3.0732,3.0732,3.0752,3.0595,3.0293,3.0156,2.998,2.9805,2.9696,2.9755,2.9911,2.9891,3.0009,3.0106,3.0117,3.0019,2.9824,2.9609,2.9595,2.9605,3.0377,3.1949,3.299,3.3358,3.4171,3.4342,3.5092,3.5619,3.6036,3.6435,3.6435,3.6435,3.6435,3.6435,3.6435,3.6411,3.6362,3.6266,3.605,3.5857,3.5448,3.552,3.564,2.524,2.5284,2.5572,2.5698,2.5601,2.502,2.4775,2.4799,2.4775,2.4775,2.4775,2.5145,2.5126,2.5806,2.6551,2.6731,2.7036,2.7336,2.7458,2.723,2.6871,2.7141,2.7168,2.706,2.7484,2.7565,2.7718,2.7618,2.7745,2.8301,2.8301,2.8247,2.8301,2.796,2.7699,2.7403,2.6245,2.5433,2.5588,2.568,2.5653,2.6173,2.6681,2.7133,2.7349,2.7638,2.8147,2.8274,2.8301,2.832,2.8301,2.8379,2.8703,2.8723,2.8926,2.9316,2.9559,2.9696,2.997,3.0048,3.0146,3.0351,3.0458,3.0302,3.0215,3.0234,3.0439,3.0458,3.0478,3.0556,3.0595,3.0791,3.0928,3.0928,3.0928,3.081,3.0566,3.0527,3.0351,3.0176,3.0067,3.0146,3.0263,3.04,3.0517,3.0654,3.0673,3.0556,3.041,3.0156,3.0028,3.0041,3.0633,3.2001,3.203,3.226,3.3466,3.4439,3.5349,3.6159,3.6687,3.6964,3.6964,3.6964,3.6964,3.6964,3.6964,3.6964,3.694,3.6555,3.6314,3.6194,3.6073,3.6145,3.6169,2.5698,2.5698,2.5698,2.5698,2.5698,2.5698,2.5698,2.5698,2.5698,2.5796,2.6016,2.622,2.6621,2.6851,2.7169,2.748,2.787,2.7791,2.7881,2.8094,2.8301,2.8147,2.8247,2.8301,2.8174,2.8301,2.8301,2.8121,2.8301,2.8301,2.8301,2.8301,2.8301,2.8301,2.8174,2.8006,2.7598,2.6837,2.6391,2.6154,2.6054,2.6072,2.6654,2.6981,2.7171,2.7684,2.8186,2.8313,2.8379,2.8496,2.8535,2.875,2.9113,2.9316,2.9473,2.9872,3.0106,3.0234,3.0449,3.0469,3.0644,3.0801,3.0928,3.0723,3.0644,3.0644,3.0771,3.083,3.0869,3.0908,3.0908,3.0928,3.0928,3.0928,3.0928,3.0928,3.0908,3.0908,3.0723,3.0547,3.0527,3.0625,3.0742,3.0869,3.0908,3.0869,3.083,3.081,3.0732,3.0615,3.0469,3.0437,3.0937,3.1694,3.1601,3.2016,3.3638,3.512,3.6239,3.6956,3.739,3.7519,3.7469,3.7493,3.7517,3.7469,3.7421,3.7493,3.7421,3.706,3.6892,3.6964,3.6916,3.6795,3.6795,2.5713,2.5698,2.5698,2.5698,2.5698,2.5698,2.5698,2.5718,2.5776,2.5991,2.6328,2.6445,2.6719,2.7129,2.7344,2.7559,2.7878,2.7956,2.8066,2.8301,2.8301,2.8301,2.8301,2.8301,2.8301,2.8301,2.8301,2.8301,2.8301,2.8301,2.8301,2.8301,2.8379,2.8437,2.8457,2.8574,2.8412,2.8375,2.8131,2.8005,2.8138,2.8276,2.8398,2.8357,2.833,2.8398,2.8418,2.8476,2.8535,2.8828,2.9023,2.9199,2.957,2.998,3.0204,3.0322,3.0527,3.0664,3.0742,3.0791,3.083,3.0908,3.0928,3.0859,3.084,3.082,3.0908,3.0928,3.0928,3.0928,3.0928,3.0928,3.0928,3.0928,3.0928,3.0928,3.0928,3.0928,3.0869,3.0703,3.0723,3.0801,3.082,3.0928,3.0928,3.0928,3.0928,3.0928,3.0908,3.0849,3.0781,3.0723,3.1029,3.1474,3.1864,3.2566,3.4339,3.5768,3.6637,3.7411,3.7601,3.7803,3.7976,3.788,3.7757,3.788,3.788,3.7856,3.7808,3.776,3.7663,3.7856,3.7784,3.7445,3.7348,2.601,2.5693,2.5698,2.5698,2.5698,2.5698,2.5698,2.5757,2.6094,2.6289,2.6445,2.6738,2.7109,2.7506,2.7773,2.7988,2.8066,2.8066,2.821,2.8262,2.8301,2.8301,2.8301,2.8301,2.8301,2.8301,2.8301,2.834,2.8379,2.8359,2.834,2.8379,2.8574,2.8769,2.8789,2.8965,2.9219,2.9375,2.9324,2.9246,2.9277,2.9285,2.9285,2.9149,2.9023,2.8965,2.8945,2.8926,2.9082,2.9316,2.9422,2.9676,3.0039,3.0469,3.0713,3.0771,3.0801,3.0888,3.0928,3.0928,3.0928,3.0928,3.0928,3.0928,3.0928,3.0928,3.0928,3.0928,3.0928,3.0928,3.0928,3.0928,3.0928,3.0928,3.0928,3.0928,3.0928,3.0928,3.0928,3.0928,3.0928,3.0928,3.0928,3.0928,3.0928,3.0928,3.0928,3.0928,3.0928,3.0888,3.0888,3.082,3.084,3.1236,3.1759,3.2685,3.4246,3.5057,3.5677,3.6673,3.7788,3.7921,3.8,3.8,3.7976,3.8,3.8,3.7976,3.7976,3.8,3.8,3.8,3.8,3.776,3.7784,2.5932,2.5718,2.5698,2.5698,2.5698,2.5698,2.5698,2.5796,2.6191,2.6484,2.6719,2.7109,2.7565,2.7936,2.8203,2.8301,2.8301,2.8281,2.8281,2.8281,2.8301,2.8301,2.8301,2.832,2.8301,2.8301,2.8489,2.8594,2.8594,2.8828,2.8926,2.8867,2.9101,2.9219,2.9238,2.9473,2.9735,2.9852,2.9872,2.997,2.998,2.9872,2.9637,2.9481,2.9461,2.9422,2.9403,2.9336,2.9531,2.9852,3.0067,3.0243,3.0508,3.0752,3.0888,3.0908,3.0908,3.0928,3.0928,3.0928,3.0928,3.0928,3.0928,3.0928,3.0928,3.0928,3.0928,3.0928,3.0928,3.0928,3.0928,3.0928,3.0928,3.0928,3.0928,3.0928,3.0928,3.0928,3.0928,3.0928,3.0928,3.0928,3.0928,3.0928,3.0928,3.0928,3.0928,3.0928,3.0928,3.0928,3.0928,3.0928,3.0928,3.0957,3.1257,3.2313,3.3741,3.4391,3.5008,3.6507,3.7894,3.7947,3.8,3.8,3.8,3.8,3.8,3.8,3.8,3.8,3.8,3.8,3.8,3.8,3.7976,2.5815,2.5796,2.5737,2.5698,2.5698,2.5698,2.5757,2.5874,2.6289,2.6719,2.7129,2.7585,2.7995,2.8184,2.8301,2.8301,2.8301,2.8301,2.8301,2.8301,2.8301,2.8301,2.834,2.8379,2.8496,2.8672,2.8887,2.8965,2.9004,2.9238,2.9442,2.9579,2.9657,2.9676,2.9676,2.9794,3.0009,3.0215,3.0351,3.0508,3.0391,3.0224,2.9989,2.9833,2.9715,2.9715,2.9755,2.9774,2.9922,3.0215,3.0595,3.0713,3.0791,3.0888,3.0888,3.0928,3.0928,3.0928,3.0928,3.0928,3.0928,3.0928,3.0928,3.0928,3.0928,3.0928,3.0928,3.0928,3.0928,3.0928,3.0928,3.0928,3.0928,3.0928,3.0928,3.0928,3.0928,3.0928,3.0928,3.0928,3.0928,3.0928,3.0928,3.0928,3.0928,3.0928,3.0928,3.0928,3.0928,3.0928,3.0928,3.0928,3.0928,3.0957,3.0986,3.2076,3.3459,3.4503,3.5361,3.6854,3.7947,3.7974,3.8,3.8,3.8,3.8,3.8,3.8,3.8,3.8,3.8,3.8,3.8,3.8,3.8,2.6269,2.623,2.5854,2.5698,2.5718,2.5718,2.5913,2.6289,2.6699,2.7129,2.7565,2.7949,2.8242,2.8301,2.8301,2.8301,2.8301,2.8301,2.8301,2.8301,2.8359,2.834,2.8437,2.8691,2.9004,2.9199,2.9336,2.9442,2.9492,2.9598,2.9637,2.9696,3.0028,3.0126,3.0137,3.0293,3.0576,3.0664,3.0684,3.0781,3.083,3.0713,3.0703,3.0508,3.0302,3.0439,3.0478,3.0282,3.041,3.0644,3.0849,3.0908,3.0928,3.0928,3.0928,3.0928,3.0928,3.0928,3.0928,3.0928,3.0928,3.0928,3.0928,3.0928,3.0928,3.0928,3.0928,3.0928,3.0928,3.0928,3.0928,3.0928,3.0928,3.0928,3.0928,3.0928,3.0928,3.0928,3.0928,3.0928,3.0928,3.0928,3.0928,3.0928,3.0928,3.0928,3.0928,3.0928,3.0928,3.0928,3.0928,3.0928,3.0928,3.0928,3.0957,3.196,3.3233,3.4363,3.5553,3.68,3.7655,3.7947,3.8,3.8,3.8,3.8,3.8,3.8,3.8,3.8,3.8,3.8,3.8,3.8,3.8]},{"header":{"parameterUnit":"m.s-1","parameterCategory":1,"la1":31.0,"la2":29.5877,"lo1":-88.7671,"lo2":-86.6584,"dy":0.0162,"dx":0.0185,"nx":115,"ny":88,"refTime":"2023-11-02T18:00:00:Z","depth":0,"parameterNumber":3,"parameterNumberName":"V-component_of_WINDS"},"data":[0.0,0.0,0.0,0.0,0.0,0.0,0.0,0.0,0.0,0.0,0.0,0.0,0.0,0.0,0.0,0.0,0.0,0.0,0.0,0.0,0.0,0.0,0.0,0.0,0.0,0.0,0.0,0.0,0.0,0.0,0.0,0.0,0.0,0.0,0.0,0.0,0.0,0.0,0.0,0.0,0.0,0.0,0.0,0.0,0.0,0.0,0.0,0.0,0.0,0.0,0.0,0.0,0.0,0.0,0.0,0.0,0.0,0.0,0.0,0.0,0.0,0.0,0.0,0.0,0.0,0.0,0.0,0.0,0.0,0.0,0.0,0.0,0.0,0.0,0.0,0.0,0.0,0.0,0.0,0.0,0.0,0.0,0.0,0.0,0.0,0.0,0.0,0.0,0.0,0.0,0.0,0.0,0.0,0.0,0.0,0.0,0.0,0.0,0.0,0.0,0.0,0.0,0.0,0.0,0.0,0.0,0.0,0.0,0.0,0.0,0.0,0.0,0.0,0.0,0.0,0.0,0.0,0.0,0.0,0.0,0.0,0.0,0.0,0.0,0.0,0.0,0.0,0.0,0.0,0.0,0.0,0.0,0.0,0.0,0.0,0.0,0.0,0.0,0.0,0.0,0.0,0.0,0.0,0.0,0.0,0.0,0.0,0.0,0.0,0.0,0.0,0.0,0.0,0.0,0.0,0.0,0.0,0.0,0.0,0.0,0.0,0.0,0.0,0.0,0.0,0.0,0.0,0.0,0.0,0.0,0.0,0.0,0.0,0.0,0.0,0.0,0.0,0.0,0.0,0.0,0.0,0.0,0.0,0.0,0.0,0.0,0.0,0.0,0.0,0.0,0.0,0.0,0.0,0.0,0.0,0.0,0.0,0.0,0.0,0.0,0.0,0.0,0.0,0.0,0.0,0.0,0.0,0.0,0.0,0.0,0.0,0.0,0.0,0.0,0.0,0.0,0.0,0.0,0.0,0.0,0.0,0.0,0.0,0.0,0.0,0.0,0.0,0.0,0.0,0.0,0.0,0.0,0.0,0.0,0.0,0.0,0.0,0.0,0.0,0.0,0.0,0.0,0.0,0.0,0.0,0.0,0.0,0.0,0.0,0.0,0.0,0.0,0.0,0.0,0.0,0.0,0.0,0.0,0.0,0.0,0.0,0.0,0.0,0.0,0.0,0.0,0.0,0.0,0.0,0.0,0.0,0.0,0.0,0.0,0.0,0.0,0.0,0.0,0.0,0.0,0.0,0.0,0.0,0.0,0.0,0.0,0.0,0.0,0.0,0.0,0.0,0.0,0.0,0.0,0.0,0.0,0.0,0.0,0.0,0.0,0.0,0.0,0.0,0.0,0.0,0.0,0.0,0.0,0.0,0.0,0.0,0.0,0.0,0.0,0.0,0.0,0.0,0.0,0.0,0.0,0.0,0.0,0.0,0.0,0.0,0.0,0.0,0.0,0.0,0.0,0.0,0.0,0.0,0.0,0.0,0.0,0.0,0.0,0.0,0.0,0.0,0.0,0.0,0.0,0.0,0.0,0.0,0.0,0.0,0.0,0.0,0.0,0.0,0.0,0.0,0.0,0.0,0.0,0.0,0.0,0.0,0.0,0.0,0.0,0.0,0.0,0.0,0.0,0.0,0.0,0.0,0.0,0.0,0.0,0.0,0.0,0.0,0.0,0.0,0.0,0.0,0.0,0.0,0.0,0.0,0.0,0.0,0.0,0.0,0.0,0.0,0.0,0.0,0.0,0.0,0.0,0.0,0.0,0.0,0.0,0.0,0.0,0.0,0.0,0.0,0.0,0.0,0.0,0.0,0.0,0.0,0.0,0.0,0.0,0.0,0.0,0.0,0.0,0.0,0.0,0.0,0.0,0.0,0.0,0.0,0.0,0.0,0.0,0.0,0.0,0.0,0.0,0.0,0.0,0.0,0.0,0.0,0.0,0.0,0.0,0.0,0.0,0.0,0.0,0.0,0.0,0.0,0.0,0.0,0.0,0.0,0.0,0.0,0.0,0.0,0.0,0.0,0.0,0.0,0.0,0.0,0.0,0.0,0.0,0.0,0.0,0.0,0.0,0.0,0.0,0.0,0.0,0.0,0.0,0.0,0.0,0.0,0.0,0.0,0.0,0.0,0.0,0.0,0.0,0.0,0.0,0.0,0.0,0.0,0.0,0.0,0.0,0.0,0.0,0.0,0.0,0.0,0.0,0.0,0.0,0.0,0.0,0.0,0.0,0.0,0.0,0.0,0.0,0.0,0.0,0.0,0.0,0.0,0.0,0.0,0.0,0.0,0.0,0.0,0.0,0.0,0.0,0.0,0.0,0.0,0.0,0.0,0.0,0.0,0.0,0.0,0.0,0.0,0.0,0.0,0.0,0.0,0.0,0.0,0.0,0.0,0.0,0.0,0.0,0.0,0.0,0.0,0.0,0.0,0.0,0.0,0.0,0.0,0.0,0.0,0.0,0.0,0.0,0.0,0.0,0.0,0.0,0.0,0.0,0.0,0.0,0.0,0.0,0.0,0.0,0.0,0.0,0.0,0.0,0.0,0.0,0.0,0.0,0.0,0.0,0.0,0.0,0.0,0.0,0.0,0.0,0.0,0.0,0.0,0.0,0.0,0.0,0.0,0.0,0.0,0.0,0.0,0.0,0.0,0.0,0.0,0.0,0.0,0.0,0.0,0.0,0.0,0.0,0.0,0.0,0.0,0.0,0.0,0.0,0.0,0.0,0.0,0.0,0.0,0.0,0.0,0.0,0.0,0.0,0.0,0.0,0.0,0.0,0.0,0.0,0.0,0.0,0.0,0.0,0.0,0.0,0.0,0.0,0.0,0.0,0.0,0.0,0.0,0.0,0.0,0.0,0.0,0.0,0.0,0.0,0.0,0.0,0.0,0.0,0.0,0.0,0.0,0.0,0.0,0.0,0.0,0.0,0.0,0.0,0.0,0.0,0.0,0.0,0.0,0.0,0.0,0.0,0.0,0.0,0.0,0.0,0.0,0.0,0.0,0.0,0.0,0.0,0.0,0.0,0.0,0.0,0.0,0.0,0.0,0.0,0.0,0.0,0.0,0.0,0.0,0.0,0.0,0.0,0.0,0.0,0.0,0.0,0.0,0.0,0.0,0.0,0.0,0.0,0.0,0.0,0.0,0.0,0.0,0.0,0.0,0.0,0.0,0.0,0.0,0.0,0.0,0.0,0.0,0.0,0.0,0.0,0.0,0.0,0.0,0.0,0.0,0.0,0.0,0.0,0.0,0.0,0.0,0.0,0.0,0.0,0.0,0.0,0.0,0.0,0.0,0.0,0.0,0.0,0.0,0.0,0.0,0.0,0.0,0.0,0.0,0.0,0.0,0.0,0.0,0.0,0.0,0.0,0.0,0.0,0.0,0.0,0.0,0.0,0.0,0.0,0.0,0.0,0.0,0.0,0.0,0.0,0.0,0.0,0.0,0.0,0.0,0.0,0.0,0.0,0.0,0.0,0.0,0.0,0.0,0.0,0.0,0.0,0.0,0.0,0.0,0.0,0.0,0.0,0.0,0.0,0.0,0.0,0.0,0.0,0.0,0.0,0.0,0.0,0.0,0.0,0.0,0.0,0.0,0.0,0.0,0.0,0.0,0.0,0.0,0.0,0.0,0.0,0.0,0.0,0.0,0.0,0.0,0.0,0.0,0.0,0.0,0.0,0.0,0.0,0.0,0.0,0.0,0.0,0.0,0.0,0.0,0.0,0.0,0.0,0.0,0.0,0.0,0.0,0.0,0.0,0.0,0.0,0.0,0.0,0.0,0.0,0.0,0.0,0.0,0.0,0.0,0.0,0.0,0.0,0.0,0.0,0.0,0.0,0.0,0.0,0.0,0.0,0.0,0.0,0.0,0.0,0.0,0.0,0.0,0.0,0.0,0.0,0.0,0.0,0.0,0.0,0.0,0.0,0.0,0.0,0.0,0.0,0.0,0.0,0.0,0.0,0.0,0.0,0.0,0.0,0.0,0.0,0.0,0.0,0.0,0.0,0.0,0.0,0.0,0.0,0.0,0.0,0.0,0.0,0.0,0.0,0.0,0.0,0.0,0.0,0.0,0.0,0.0,0.0,0.0,0.0,0.0,0.0,0.0,0.0,0.0,0.0,0.0,0.0,0.0,0.0,0.0,0.0,0.0,0.0,0.0,0.0,0.0,0.0,0.0,0.0,0.0,0.0,0.0,0.0,0.0,0.0,0.0,0.0,0.0,0.0,0.0,0.0,0.0,0.0,0.0,0.0,0.0,0.0,0.0,0.0,2.368,0.0,0.0,0.0,0.0,0.0,0.0,0.0,0.0,0.0,0.0,0.0,0.0,0.0,0.0,0.0,0.0,0.0,0.0,0.0,0.0,0.0,0.0,0.0,0.0,0.0,0.0,0.0,0.0,0.0,0.0,0.0,0.0,0.0,0.0,0.0,0.0,0.0,0.0,0.0,0.0,0.0,0.0,0.0,0.0,0.0,0.0,0.0,0.0,0.0,0.0,0.0,0.0,0.0,0.0,0.0,0.0,0.0,0.0,0.0,0.0,0.0,0.0,0.0,0.0,0.0,0.0,0.0,0.0,0.0,0.0,0.0,0.0,0.0,0.0,0.0,0.0,0.0,0.0,0.0,0.0,0.0,0.0,0.0,0.0,0.0,0.0,0.0,0.0,0.0,0.0,0.0,0.0,0.0,0.0,0.0,0.0,0.0,0.0,0.0,0.0,0.0,0.0,0.0,0.0,0.0,0.0,0.0,0.0,0.0,0.0,2.6395,2.576,2.7173,2.67,2.4101,0.0,0.0,0.0,0.0,0.0,0.0,0.0,0.0,0.0,0.0,0.0,0.0,0.0,0.0,0.0,0.0,0.0,0.0,0.0,0.0,0.0,0.0,0.0,0.0,0.0,0.0,0.0,0.0,0.0,0.0,0.0,0.0,0.0,0.0,0.0,0.0,0.0,0.0,0.0,0.0,0.0,0.0,0.0,0.0,0.0,0.0,0.0,0.0,0.0,0.0,0.0,0.0,0.0,0.0,0.0,0.0,0.0,0.0,0.0,0.0,0.0,0.0,0.0,0.0,0.0,0.0,0.0,0.0,0.0,0.0,0.0,0.0,0.0,0.0,0.0,0.0,0.0,0.0,0.0,0.0,0.0,0.0,0.0,0.0,0.0,0.0,0.0,0.0,0.0,0.0,0.0,0.0,0.0,0.0,0.0,0.0,0.0,0.0,0.0,0.0,0.0,0.0,0.0,0.0,0.0,0.0,0.0,0.0,0.0,0.0,0.0,0.0,2.8527,2.7985,2.538,0.0,0.0,0.0,0.0,0.0,0.0,0.0,0.0,0.0,0.0,0.0,0.0,0.0,0.0,0.0,0.0,0.0,0.0,0.0,0.0,0.0,0.0,0.0,0.0,0.0,0.0,0.0,0.0,0.0,0.0,0.0,0.0,0.0,0.0,0.0,0.0,0.0,0.0,0.0,0.0,0.0,0.0,0.0,0.0,0.0,0.0,0.0,0.0,0.0,0.0,0.0,0.0,0.0,0.0,0.0,0.0,0.0,0.0,0.0,0.0,0.0,0.0,0.0,0.0,0.0,0.0,0.0,0.0,0.0,0.0,0.0,0.0,0.0,0.0,0.0,0.0,0.0,0.0,0.0,0.0,0.0,0.0,0.0,0.0,0.0,0.0,0.0,0.0,0.0,0.0,0.0,0.0,0.0,0.0,0.0,0.0,0.0,0.0,0.0,0.0,0.0,0.0,0.0,0.0,0.0,0.0,0.0,0.0,0.0,0.0,2.6657,2.873,2.9567,0.0,2.7587,0.0,0.0,0.0,0.0,0.0,0.0,0.0,0.0,0.0,0.0,0.0,0.0,0.0,0.0,0.0,0.0,0.0,0.0,0.0,0.0,0.0,0.0,0.0,0.0,0.0,0.0,0.0,0.0,0.0,0.0,0.0,0.0,0.0,0.0,0.0,0.0,0.0,0.0,0.0,0.0,0.0,0.0,0.0,0.0,0.0,0.0,0.0,0.0,0.0,0.0,0.0,0.0,0.0,0.0,0.0,0.0,0.0,0.0,0.0,0.0,0.0,0.0,0.0,0.0,0.0,0.0,0.0,0.0,0.0,0.0,0.0,0.0,0.0,0.0,0.0,0.0,0.0,0.0,0.0,0.0,0.0,0.0,0.0,0.0,0.0,0.0,0.0,0.0,0.0,0.0,0.0,0.0,0.0,0.0,0.0,0.0,0.0,0.0,0.0,0.0,0.0,0.0,0.0,0.0,0.0,0.0,0.0,0.0,0.0,0.0,2.6749,2.9186,2.8489,2.7368,0.0,0.0,0.0,0.0,0.0,0.0,0.0,0.0,0.0,0.0,0.0,0.0,0.0,0.0,0.0,0.0,0.0,0.0,0.0,0.0,0.0,0.0,0.0,0.0,0.0,0.0,0.0,0.0,0.0,0.0,0.0,0.0,0.0,0.0,0.0,0.0,0.0,0.0,0.0,0.0,0.0,0.0,0.0,0.0,0.0,0.0,0.0,0.0,0.0,0.0,0.0,0.0,0.0,0.0,0.0,0.0,0.0,0.0,0.0,0.0,0.0,0.0,0.0,0.0,0.0,0.0,0.0,0.0,0.0,0.0,0.0,0.0,0.0,0.0,0.0,0.0,0.0,0.0,0.0,0.0,0.0,0.0,0.0,0.0,0.0,0.0,0.0,0.0,0.0,0.0,0.0,0.0,0.0,0.0,0.0,0.0,0.0,0.0,0.0,0.0,0.0,0.0,0.0,0.0,0.0,0.0,0.0,0.0,0.0,0.0,2.6683,2.7738,3.0109,2.8468,2.6732,2.5151,0.0,0.0,0.0,0.0,0.0,0.0,0.0,0.0,0.0,0.0,0.0,0.0,0.0,0.0,0.0,0.0,0.0,0.0,0.0,0.0,0.0,0.0,0.0,0.0,0.0,0.0,0.0,0.0,0.0,0.0,0.0,0.0,0.0,0.0,0.0,0.0,0.0,0.0,0.0,0.0,0.0,0.0,0.0,0.0,0.0,0.0,0.0,0.0,0.0,0.0,0.0,0.0,0.0,0.0,0.0,0.0,0.0,0.0,0.0,0.0,0.0,0.0,0.0,0.0,0.0,0.0,0.0,0.0,0.0,0.0,0.0,0.0,0.0,0.0,0.0,0.0,0.0,0.0,0.0,0.0,0.0,0.0,0.0,0.0,0.0,0.0,0.0,0.0,0.0,0.0,0.0,0.0,0.0,0.0,0.0,0.0,0.0,0.0,0.0,0.0,0.0,0.0,0.0,0.0,0.0,0.0,0.0,0.0,3.1501,2.9812,3.0062,3.2639,3.0515,2.8442,0.0,0.0,0.0,0.0,0.0,0.0,0.0,0.0,0.0,0.0,0.0,0.0,0.0,0.0,0.0,0.0,0.0,0.0,0.0,0.0,0.0,0.0,0.0,0.0,0.0,0.0,0.0,0.0,0.0,0.0,0.0,0.0,0.0,0.0,0.0,0.0,0.0,0.0,0.0,0.0,0.0,0.0,0.0,0.0,0.0,0.0,0.0,0.0,0.0,0.0,0.0,0.0,0.0,0.0,0.0,0.0,0.0,0.0,0.0,0.0,0.0,0.0,0.0,0.0,0.0,0.0,0.0,0.0,0.0,0.0,0.0,0.0,0.0,0.0,0.0,0.0,0.0,0.0,0.0,0.0,0.0,0.0,0.0,0.0,0.0,0.0,0.0,0.0,0.0,0.0,0.0,0.0,0.0,0.0,0.0,0.0,0.0,0.0,0.0,0.0,0.0,0.0,0.0,0.0,0.0,0.0,0.0,0.0,0.0,2.7996,2.9259,3.0953,3.3106,3.0043,2.8359,0.0,0.0,0.0,0.0,0.0,0.0,0.0,0.0,0.0,0.0,0.0,0.0,0.0,0.0,0.0,0.0,0.0,0.0,0.0,0.0,0.0,0.0,0.0,0.0,0.0,0.0,0.0,0.0,0.0,0.0,0.0,0.0,0.0,0.0,0.0,0.0,0.0,0.0,0.0,0.0,0.0,0.0,0.0,0.0,0.0,0.0,0.0,0.0,0.0,0.0,0.0,0.0,0.0,0.0,0.0,0.0,0.0,0.0,0.0,0.0,0.0,0.0,0.0,0.0,0.0,0.0,0.0,0.0,0.0,0.0,0.0,0.0,0.0,0.0,0.0,0.0,0.0,0.0,0.0,0.0,0.0,0.0,0.0,0.0,0.0,0.0,0.0,0.0,0.0,0.0,0.0,0.0,0.0,0.0,0.0,0.0,0.0,0.0,0.0,0.0,0.0,0.0,0.0,0.0,0.0,0.0,0.0,0.0,0.0,2.8595,0.0,3.3465,3.3562,3.06,2.8621,0.0,0.0,0.0,0.0,0.0,0.0,0.0,0.0,0.0,0.0,0.0,0.0,0.0,0.0,0.0,0.0,0.0,0.0,0.0,0.0,0.0,0.0,0.0,0.0,0.0,0.0,0.0,0.0,0.0,0.0,0.0,0.0,0.0,0.0,0.0,0.0,0.0,0.0,0.0,0.0,0.0,0.0,0.0,0.0,0.0,0.0,0.0,0.0,0.0,0.0,0.0,0.0,0.0,0.0,0.0,0.0,0.0,0.0,0.0,0.0,0.0,0.0,0.0,0.0,0.0,0.0,0.0,0.0,0.0,0.0,0.0,0.0,0.0,0.0,0.0,0.0,0.0,0.0,0.0,0.0,0.0,0.0,0.0,0.0,0.0,0.0,0.0,0.0,0.0,0.0,0.0,0.0,0.0,0.0,0.0,0.0,0.0,0.0,0.0,0.0,0.0,0.0,0.0,0.0,0.0,0.0,0.0,0.0,2.8148,3.4146,3.7305,3.7233,3.4323,3.235,2.9261,0.0,0.0,0.0,0.0,0.0,0.0,0.0,0.0,0.0,0.0,0.0,0.0,0.0,0.0,0.0,0.0,0.0,0.0,0.0,0.0,0.0,0.0,0.0,0.0,0.0,0.0,0.0,0.0,0.0,0.0,0.0,0.0,0.0,0.0,0.0,0.0,0.0,0.0,0.0,0.0,0.0,0.0,0.0,0.0,0.0,0.0,0.0,0.0,0.0,0.0,0.0,0.0,0.0,0.0,0.0,0.0,0.0,0.0,0.0,0.0,0.0,0.0,0.0,0.0,0.0,0.0,0.0,0.0,0.0,0.0,0.0,0.0,0.0,0.0,0.0,0.0,0.0,0.0,0.0,0.0,0.0,0.0,0.0,0.0,0.0,0.0,0.0,0.0,0.0,0.0,0.0,0.0,0.0,0.0,0.0,0.0,0.0,0.0,0.0,0.0,0.0,0.0,0.0,0.0,0.0,0.0,0.0,0.0,0.0,2.9742,3.3485,3.5528,3.5454,3.1641,2.9609,0.0,0.0,0.0,0.0,0.0,0.0,0.0,0.0,0.0,0.0,0.0,0.0,0.0,0.0,0.0,0.0,0.0,0.0,0.0,0.0,0.0,0.0,0.0,0.0,0.0,0.0,0.0,0.0,0.0,0.0,0.0,0.0,0.0,0.0,0.0,0.0,0.0,0.0,0.0,0.0,0.0,0.0,0.0,0.0,0.0,0.0,0.0,0.0,0.0,0.0,0.0,0.0,0.0,0.0,0.0,0.0,0.0,0.0,0.0,0.0,0.0,0.0,0.0,0.0,0.0,0.0,0.0,0.0,0.0,0.0,0.0,0.0,0.0,0.0,0.0,0.0,0.0,0.0,0.0,0.0,0.0,0.0,0.0,0.0,0.0,0.0,0.0,0.0,0.0,0.0,0.0,0.0,0.0,0.0,0.0,0.0,0.0,0.0,0.0,0.0,0.0,0.0,0.0,0.0,0.0,0.0,0.0,0.0,0.0,3.0295,3.4639,3.6994,3.684,3.2835,3.0637,3.046,0.0,0.0,0.0,0.0,0.0,0.0,0.0,0.0,0.0,0.0,0.0,0.0,0.0,0.0,0.0,0.0,0.0,0.0,0.0,0.0,0.0,0.0,0.0,0.0,0.0,0.0,0.0,0.0,0.0,0.0,0.0,0.0,0.0,0.0,0.0,0.0,0.0,0.0,0.0,0.0,0.0,0.0,0.0,0.0,0.0,0.0,0.0,0.0,0.0,0.0,0.0,0.0,0.0,0.0,0.0,0.0,0.0,0.0,0.0,0.0,0.0,0.0,0.0,0.0,0.0,0.0,0.0,0.0,0.0,0.0,0.0,0.0,0.0,0.0,0.0,0.0,0.0,0.0,0.0,0.0,0.0,0.0,0.0,0.0,0.0,0.0,0.0,0.0,0.0,0.0,0.0,0.0,0.0,0.0,0.0,0.0,0.0,0.0,0.0,0.0,0.0,0.0,0.0,0.0,0.0,0.0,0.0,0.0,3.4554,3.9893,4.1154,3.8059,3.546,3.2257,0.0,0.0,0.0,0.0,0.0,0.0,0.0,0.0,0.0,0.0,0.0,0.0,0.0,0.0,0.0,0.0,0.0,0.0,0.0,0.0,0.0,0.0,0.0,0.0,0.0,0.0,0.0,0.0,0.0,0.0,0.0,0.0,0.0,0.0,0.0,0.0,0.0,0.0,0.0,0.0,0.0,0.0,0.0,0.0,0.0,0.0,0.0,0.0,0.0,0.0,0.0,0.0,0.0,0.0,0.0,0.0,0.0,0.0,0.0,0.0,0.0,0.0,0.0,0.0,0.0,0.0,0.0,0.0,0.0,0.0,0.0,0.0,0.0,0.0,0.0,0.0,0.0,0.0,0.0,0.0,0.0,0.0,0.0,0.0,0.0,0.0,0.0,0.0,0.0,0.0,0.0,0.0,0.0,0.0,0.0,0.0,0.0,0.0,0.0,0.0,0.0,0.0,0.0,0.0,0.0,0.0,0.0,0.0,0.0,3.7874,4.1147,4.1628,3.9114,3.5894,3.3216,0.0,0.0,0.0,0.0,0.0,0.0,0.0,0.0,0.0,0.0,0.0,0.0,0.0,0.0,0.0,0.0,0.0,0.0,0.0,0.0,0.0,0.0,0.0,0.0,0.0,0.0,0.0,0.0,0.0,0.0,0.0,0.0,0.0,0.0,0.0,0.0,0.0,0.0,0.0,0.0,0.0,0.0,0.0,0.0,0.0,0.0,0.0,0.0,0.0,0.0,0.0,0.0,0.0,0.0,0.0,0.0,0.0,0.0,0.0,0.0,0.0,0.0,0.0,0.0,0.0,0.0,0.0,0.0,0.0,0.0,0.0,0.0,0.0,0.0,0.0,0.0,0.0,0.0,0.0,0.0,0.0,0.0,0.0,0.0,0.0,0.0,0.0,0.0,0.0,0.0,0.0,0.0,0.0,0.0,0.0,0.0,0.0,0.0,0.0,0.0,0.0,0.0,0.0,0.0,0.0,0.0,0.0,0.0,3.6542,3.9112,4.1663,4.2394,4.1041,3.7897,3.4962,0.0,0.0,0.0,0.0,0.0,0.0,0.0,0.0,0.0,0.0,0.0,0.0,0.0,0.0,0.0,0.0,0.0,0.0,0.0,0.0,0.0,0.0,0.0,0.0,0.0,0.0,0.0,0.0,0.0,0.0,0.0,0.0,0.0,0.0,0.0,0.0,0.0,0.0,0.0,0.0,0.0,0.0,0.0,0.0,0.0,0.0,0.0,0.0,0.0,0.0,0.0,0.0,0.0,0.0,0.0,0.0,0.0,0.0,0.0,0.0,0.0,0.0,0.0,0.0,0.0,0.0,0.0,0.0,0.0,0.0,0.0,0.0,0.0,0.0,0.0,0.0,0.0,0.0,0.0,0.0,0.0,0.0,0.0,0.0,0.0,0.0,0.0,0.0,0.0,0.0,0.0,0.0,0.0,0.0,0.0,0.0,0.0,0.0,0.0,0.0,0.0,0.0,0.0,0.0,0.0,0.0,0.0,0.0,3.6707,3.9213,4.1779,4.3111,4.305,4.0392,3.6918,0.0,0.0,0.0,0.0,0.0,0.0,0.0,0.0,0.0,0.0,0.0,0.0,0.0,0.0,0.0,0.0,0.0,0.0,0.0,0.0,0.0,0.0,0.0,0.0,0.0,0.0,0.0,0.0,0.0,0.0,0.0,0.0,0.0,0.0,0.0,0.0,0.0,0.0,0.0,0.0,0.0,0.0,0.0,0.0,0.0,0.0,0.0,0.0,0.0,0.0,0.0,0.0,0.0,0.0,0.0,0.0,0.0,0.0,0.0,0.0,0.0,0.0,0.0,0.0,0.0,0.0,0.0,0.0,0.0,0.0,0.0,0.0,0.0,0.0,0.0,0.0,0.0,0.0,0.0,0.0,0.0,0.0,0.0,0.0,0.0,0.0,0.0,0.0,0.0,0.0,0.0,0.0,0.0,0.0,0.0,0.0,0.0,0.0,0.0,0.0,0.0,0.0,0.0,0.0,0.0,0.0,0.0,0.0,3.6854,3.9523,4.1447,4.2739,4.3362,4.0611,3.7465,0.0,0.0,0.0,0.0,0.0,0.0,0.0,0.0,0.0,0.0,0.0,0.0,0.0,0.0,0.0,0.0,0.0,0.0,0.0,0.0,0.0,0.0,0.0,0.0,0.0,0.0,0.0,0.0,0.0,0.0,0.0,0.0,0.0,0.0,0.0,0.0,0.0,0.0,0.0,0.0,0.0,0.0,0.0,0.0,0.0,0.0,0.0,0.0,3.0268,0.0,0.0,0.0,0.0,0.0,0.0,0.0,0.0,0.0,0.0,0.0,0.0,0.0,0.0,0.0,0.0,0.0,0.0,0.0,0.0,0.0,0.0,0.0,0.0,0.0,0.0,0.0,0.0,0.0,0.0,0.0,0.0,0.0,0.0,0.0,0.0,0.0,0.0,0.0,0.0,0.0,0.0,0.0,0.0,0.0,0.0,0.0,0.0,0.0,0.0,0.0,0.0,0.0,0.0,0.0,0.0,0.0,0.0,0.0,3.6592,3.8493,4.0604,4.194,4.2346,4.0904,3.827,0.0,0.0,0.0,0.0,0.0,0.0,0.0,0.0,0.0,0.0,0.0,0.0,0.0,0.0,0.0,0.0,0.0,0.0,0.0,0.0,0.0,0.0,0.0,0.0,0.0,0.0,0.0,0.0,0.0,0.0,0.0,0.0,0.0,0.0,0.0,0.0,0.0,0.0,0.0,0.0,0.0,0.0,0.0,0.0,0.0,0.0,0.0,0.0,0.0,0.0,0.0,0.0,0.0,0.0,0.0,0.0,0.0,0.0,0.0,0.0,0.0,0.0,0.0,0.0,0.0,0.0,0.0,0.0,0.0,0.0,0.0,0.0,0.0,0.0,0.0,0.0,0.0,0.0,0.0,0.0,0.0,0.0,0.0,0.0,0.0,0.0,0.0,0.0,0.0,0.0,0.0,0.0,0.0,0.0,0.0,0.0,0.0,0.0,0.0,0.0,0.0,0.0,0.0,0.0,0.0,0.0,0.0,3.4019,3.608,3.7214,3.9637,4.0856,4.078,4.0857,3.8755,3.4226,0.0,0.0,0.0,0.0,0.0,0.0,0.0,0.0,0.0,0.0,0.0,0.0,0.0,0.0,0.0,0.0,0.0,0.0,0.0,0.0,0.0,0.0,0.0,0.0,0.0,0.0,0.0,0.0,0.0,0.0,0.0,0.0,0.0,0.0,0.0,0.0,0.0,0.0,3.2097,3.3461,0.0,0.0,0.0,0.0,0.0,0.0,0.0,0.0,3.3903,0.0,0.0,0.0,0.0,0.0,0.0,0.0,0.0,0.0,0.0,0.0,0.0,0.0,0.0,0.0,0.0,0.0,0.0,0.0,0.0,0.0,0.0,0.0,0.0,0.0,0.0,0.0,0.0,0.0,0.0,0.0,0.0,0.0,0.0,0.0,0.0,0.0,0.0,0.0,0.0,0.0,0.0,0.0,0.0,0.0,0.0,0.0,0.0,0.0,0.0,0.0,0.0,0.0,0.0,0.0,0.0,3.283,3.415,3.5578,3.7178,3.9052,3.9627,3.8932,3.9587,3.7609,3.2655,0.0,0.0,0.0,0.0,0.0,0.0,0.0,0.0,0.0,0.0,0.0,0.0,0.0,0.0,0.0,0.0,0.0,0.0,0.0,0.0,0.0,0.0,0.0,0.0,0.0,0.0,0.0,0.0,0.0,0.0,0.0,0.0,0.0,0.0,0.0,0.0,0.0,0.0,0.0,3.6371,3.6429,0.0,0.0,0.0,0.0,0.0,0.0,0.0,0.0,3.503,0.0,0.0,0.0,0.0,0.0,0.0,0.0,0.0,0.0,0.0,0.0,0.0,0.0,0.0,0.0,0.0,0.0,0.0,0.0,0.0,0.0,0.0,0.0,0.0,0.0,0.0,0.0,0.0,0.0,0.0,0.0,0.0,0.0,0.0,0.0,0.0,0.0,0.0,0.0,0.0,0.0,0.0,0.0,0.0,0.0,0.0,0.0,0.0,0.0,0.0,0.0,0.0,0.0,0.0,0.0,3.2067,3.4137,3.5664,3.654,3.8199,3.8647,3.777,3.8573,3.6827,0.0,0.0,0.0,0.0,0.0,0.0,0.0,0.0,0.0,0.0,0.0,0.0,0.0,0.0,0.0,0.0,0.0,0.0,0.0,0.0,0.0,0.0,0.0,0.0,0.0,0.0,0.0,0.0,0.0,0.0,0.0,0.0,0.0,0.0,0.0,0.0,0.0,0.0,0.0,0.0,3.7962,3.875,4.0542,0.0,0.0,0.0,0.0,0.0,0.0,3.6365,3.5956,0.0,0.0,0.0,0.0,0.0,0.0,0.0,0.0,0.0,0.0,0.0,0.0,0.0,0.0,0.0,0.0,0.0,0.0,0.0,0.0,0.0,0.0,0.0,0.0,0.0,0.0,0.0,0.0,0.0,0.0,0.0,0.0,0.0,0.0,0.0,0.0,0.0,0.0,0.0,0.0,0.0,0.0,0.0,0.0,0.0,0.0,0.0,0.0,0.0,0.0,0.0,0.0,0.0,0.0,0.0,3.0973,3.3943,3.5732,3.6159,3.7407,3.7767,3.7092,3.7577,3.5908,0.0,0.0,0.0,0.0,0.0,0.0,0.0,0.0,0.0,0.0,0.0,0.0,0.0,0.0,0.0,0.0,0.0,0.0,0.0,0.0,0.0,0.0,0.0,0.0,0.0,0.0,0.0,0.0,0.0,0.0,0.0,0.0,0.0,0.0,0.0,0.0,0.0,0.0,0.0,0.0,0.0,4.0831,4.2173,4.0534,0.0,0.0,0.0,0.0,3.7715,3.7953,0.0,0.0,0.0,0.0,0.0,0.0,0.0,0.0,0.0,0.0,0.0,0.0,0.0,0.0,0.0,0.0,0.0,0.0,0.0,0.0,0.0,0.0,0.0,0.0,0.0,0.0,0.0,0.0,0.0,0.0,0.0,0.0,0.0,0.0,0.0,0.0,0.0,0.0,0.0,0.0,0.0,0.0,0.0,0.0,0.0,0.0,0.0,0.0,0.0,0.0,0.0,0.0,0.0,0.0,0.0,0.0,3.0811,3.3363,3.5394,3.6725,3.704,3.7031,3.6824,3.6314,3.4349,0.0,0.0,0.0,0.0,0.0,0.0,0.0,0.0,0.0,0.0,0.0,0.0,0.0,0.0,0.0,0.0,0.0,0.0,0.0,0.0,0.0,0.0,0.0,0.0,0.0,0.0,0.0,0.0,0.0,0.0,0.0,0.0,0.0,0.0,0.0,0.0,0.0,0.0,0.0,0.0,0.0,4.1912,4.1449,4.0862,4.0401,0.0,0.0,0.0,4.1292,4.3129,0.0,0.0,0.0,0.0,0.0,0.0,0.0,0.0,0.0,0.0,0.0,0.0,0.0,0.0,0.0,0.0,0.0,0.0,0.0,0.0,0.0,0.0,0.0,0.0,0.0,0.0,0.0,0.0,0.0,0.0,0.0,0.0,0.0,0.0,0.0,0.0,0.0,0.0,0.0,0.0,0.0,0.0,0.0,0.0,0.0,0.0,0.0,0.0,0.0,0.0,0.0,0.0,0.0,0.0,0.0,3.0699,3.1536,3.4023,3.5662,3.6256,3.6754,3.6712,3.6112,3.5322,3.3741,0.0,0.0,0.0,0.0,0.0,0.0,0.0,0.0,0.0,0.0,0.0,0.0,0.0,0.0,0.0,0.0,0.0,0.0,0.0,0.0,0.0,0.0,0.0,0.0,0.0,0.0,0.0,0.0,0.0,0.0,0.0,0.0,0.0,0.0,0.0,0.0,0.0,0.0,0.0,0.0,0.0,0.0,4.2772,4.2931,0.0,0.0,0.0,4.1406,4.0745,0.0,0.0,0.0,0.0,0.0,0.0,0.0,0.0,0.0,0.0,0.0,0.0,0.0,0.0,0.0,0.0,0.0,0.0,0.0,0.0,0.0,0.0,0.0,0.0,0.0,0.0,0.0,0.0,0.0,0.0,0.0,0.0,0.0,0.0,0.0,0.0,0.0,0.0,0.0,0.0,0.0,0.0,0.0,0.0,0.0,0.0,0.0,0.0,0.0,0.0,0.0,0.0,0.0,0.0,0.0,0.0,0.0,3.1776,3.4479,3.5914,3.6071,3.6445,3.6386,3.5862,3.4821,0.0,0.0,0.0,0.0,0.0,0.0,0.0,0.0,0.0,0.0,0.0,0.0,0.0,0.0,0.0,0.0,0.0,0.0,0.0,0.0,0.0,0.0,0.0,0.0,0.0,0.0,0.0,2.7769,0.0,0.0,0.0,0.0,0.0,0.0,0.0,0.0,0.0,0.0,0.0,0.0,0.0,0.0,4.235,4.3645,4.4431,4.4725,0.0,0.0,4.2211,4.1359,4.3056,4.3162,0.0,0.0,0.0,0.0,0.0,0.0,0.0,0.0,0.0,0.0,0.0,0.0,0.0,0.0,0.0,0.0,0.0,0.0,0.0,0.0,0.0,0.0,0.0,0.0,0.0,0.0,0.0,0.0,0.0,0.0,0.0,0.0,0.0,0.0,0.0,0.0,0.0,0.0,0.0,0.0,0.0,0.0,0.0,0.0,0.0,0.0,0.0,0.0,0.0,0.0,0.0,0.0,0.0,0.0,0.0,3.0899,3.4093,3.6125,3.6768,3.6018,3.5945,3.6587,3.5055,3.3439,0.0,0.0,0.0,0.0,0.0,0.0,0.0,0.0,0.0,0.0,0.0,0.0,0.0,0.0,0.0,0.0,0.0,0.0,0.0,0.0,0.0,0.0,0.0,0.0,0.0,0.0,0.0,0.0,0.0,0.0,0.0,0.0,0.0,0.0,0.0,0.0,0.0,0.0,0.0,0.0,0.0,4.2249,4.2985,4.442,4.5672,0.0,0.0,4.5331,4.5281,4.6936,4.6569,4.1528,0.0,0.0,0.0,0.0,0.0,0.0,0.0,0.0,0.0,0.0,0.0,0.0,0.0,0.0,0.0,0.0,0.0,0.0,0.0,0.0,0.0,0.0,0.0,0.0,0.0,0.0,0.0,0.0,0.0,0.0,0.0,0.0,0.0,0.0,0.0,0.0,0.0,0.0,0.0,0.0,0.0,0.0,0.0,0.0,0.0,0.0,0.0,0.0,0.0,0.0,0.0,0.0,0.0,3.128,3.2244,3.4645,3.5955,3.6099,3.575,3.5682,3.5927,3.4814,3.3664,0.0,0.0,0.0,0.0,0.0,0.0,0.0,0.0,0.0,0.0,0.0,0.0,0.0,0.0,0.0,0.0,0.0,0.0,0.0,0.0,0.0,0.0,0.0,0.0,0.0,0.0,0.0,0.0,3.2081,3.2194,3.1695,0.0,0.0,0.0,0.0,0.0,0.0,0.0,0.0,0.0,0.0,4.2623,4.4343,4.5484,0.0,0.0,4.5936,4.5304,4.501,4.5186,4.4273,4.1055,3.9939,0.0,0.0,0.0,0.0,0.0,0.0,0.0,0.0,0.0,0.0,0.0,0.0,0.0,0.0,0.0,0.0,0.0,0.0,0.0,0.0,0.0,0.0,0.0,0.0,0.0,0.0,0.0,0.0,0.0,0.0,0.0,0.0,0.0,0.0,0.0,0.0,0.0,0.0,0.0,0.0,0.0,0.0,0.0,0.0,0.0,0.0,0.0,0.0,0.0,0.0,0.0,0.0,3.1709,3.2861,3.4856,3.5795,3.564,3.5604,3.5567,3.5468,3.493,3.4183,0.0,0.0,0.0,0.0,0.0,0.0,0.0,0.0,0.0,0.0,0.0,0.0,0.0,0.0,0.0,0.0,0.0,0.0,0.0,0.0,0.0,0.0,0.0,0.0,0.0,0.0,0.0,0.0,3.3738,3.3471,3.3123,0.0,0.0,0.0,0.0,0.0,0.0,0.0,0.0,0.0,0.0,4.347,4.5443,4.6011,4.6303,4.6453,4.5641,4.4959,4.4822,4.4371,4.3354,4.1343,0.0,0.0,0.0,0.0,0.0,0.0,0.0,0.0,0.0,0.0,0.0,0.0,0.0,0.0,0.0,0.0,0.0,0.0,0.0,0.0,0.0,0.0,0.0,0.0,0.0,0.0,0.0,0.0,0.0,0.0,0.0,0.0,0.0,0.0,0.0,0.0,0.0,0.0,0.0,0.0,0.0,0.0,0.0,0.0,0.0,0.0,0.0,0.0,0.0,0.0,0.0,0.0,0.0,0.0,3.2071,3.4603,3.5817,3.5693,3.5643,3.5573,3.5517,3.5465,3.5107,3.427,0.0,0.0,0.0,0.0,0.0,0.0,0.0,0.0,0.0,0.0,0.0,0.0,0.0,0.0,0.0,0.0,0.0,0.0,0.0,0.0,0.0,0.0,0.0,0.0,0.0,0.0,3.4033,3.3242,3.3085,0.0,0.0,0.0,0.0,0.0,0.0,0.0,0.0,0.0,0.0,4.2507,4.4903,4.5924,4.5819,4.5744,4.6036,4.5105,4.4595,4.5411,4.5532,4.4976,0.0,0.0,0.0,0.0,0.0,0.0,0.0,0.0,0.0,0.0,0.0,0.0,0.0,0.0,0.0,0.0,0.0,0.0,0.0,0.0,0.0,0.0,0.0,0.0,0.0,0.0,0.0,0.0,3.8156,0.0,0.0,0.0,0.0,0.0,0.0,0.0,0.0,0.0,0.0,0.0,3.9007,4.0986,0.0,0.0,0.0,0.0,0.0,0.0,0.0,0.0,0.0,0.0,0.0,0.0,3.2336,3.2874,3.4858,3.5858,3.57,3.5668,3.5674,3.5638,3.5638,3.5231,3.4462,0.0,0.0,0.0,0.0,0.0,0.0,0.0,0.0,0.0,0.0,0.0,0.0,0.0,0.0,0.0,0.0,0.0,0.0,0.0,0.0,0.0,0.0,0.0,0.0,0.0,3.5682,0.0,0.0,0.0,0.0,0.0,0.0,0.0,0.0,0.0,0.0,0.0,3.9259,4.2134,4.3394,4.4524,4.5799,4.5882,4.6186,0.0,0.0,0.0,0.0,0.0,0.0,0.0,0.0,0.0,0.0,0.0,0.0,0.0,0.0,4.3335,4.0616,3.9884,3.9577,3.9055,0.0,0.0,0.0,0.0,0.0,0.0,0.0,0.0,0.0,0.0,0.0,0.0,0.0,0.0,0.0,0.0,3.9139,0.0,0.0,0.0,0.0,0.0,0.0,0.0,0.0,4.1476,4.2356,4.1676,4.3573,4.377,0.0,4.1263,3.9126,0.0,0.0,0.0,0.0,0.0,0.0,0.0,0.0,3.3078,3.3305,3.5034,3.589,3.5785,3.5779,3.5766,3.57,3.6,3.594,3.5403,3.4332,3.3227,0.0,0.0,0.0,0.0,0.0,0.0,0.0,0.0,0.0,0.0,0.0,0.0,0.0,0.0,0.0,0.0,0.0,0.0,0.0,0.0,0.0,0.0,0.0,3.7292,0.0,0.0,0.0,0.0,0.0,0.0,0.0,0.0,0.0,3.9115,4.0077,4.1852,4.4594,4.4959,4.529,4.6123,0.0,0.0,0.0,0.0,0.0,0.0,0.0,4.3904,4.4739,4.4436,4.4411,4.5496,4.6002,4.6303,4.6418,0.0,0.0,4.3267,4.2577,4.2362,4.2269,4.1832,4.1333,4.1015,4.0816,4.0228,0.0,0.0,0.0,0.0,0.0,0.0,0.0,0.0,4.6114,4.5251,0.0,4.1954,0.0,0.0,0.0,0.0,0.0,0.0,0.0,0.0,4.4611,4.5753,4.505,4.5829,4.579,4.5012,4.4817,4.3468,4.0897,3.6909,0.0,0.0,0.0,0.0,0.0,0.0,3.4263,3.3525,3.5158,3.6016,3.6011,3.601,3.594,3.5871,3.6675,3.7136,3.7137,3.7158,3.6431,3.4835,3.3151,0.0,0.0,0.0,0.0,0.0,0.0,0.0,0.0,0.0,0.0,0.0,0.0,0.0,0.0,0.0,0.0,0.0,0.0,0.0,0.0,3.8316,0.0,0.0,0.0,0.0,0.0,0.0,0.0,0.0,0.0,0.0,4.2538,4.3553,4.4956,4.662,0.0,0.0,0.0,0.0,4.5484,4.4419,4.4444,4.4702,4.4839,4.5897,4.6531,4.6157,0.0,0.0,4.8724,4.776,4.6821,4.6063,4.602,4.6365,4.7545,4.5954,4.4857,4.5452,4.4443,4.3586,4.3621,4.3986,4.3705,5.2577,0.0,0.0,0.0,0.0,4.8294,4.8837,4.9512,4.9578,4.9006,4.7981,4.689,0.0,0.0,0.0,0.0,0.0,0.0,4.4914,4.4781,4.5747,4.6423,4.6762,4.6996,4.6996,4.6685,4.4865,4.3285,4.1946,3.9542,3.7299,3.527,0.0,0.0,0.0,0.0,3.4858,3.5279,3.6341,3.72,3.7815,3.7816,3.781,3.7797,3.7984,3.8098,3.8098,3.8085,3.7609,3.6519,3.5953,0.0,0.0,0.0,0.0,0.0,0.0,0.0,0.0,0.0,0.0,0.0,0.0,0.0,0.0,0.0,0.0,0.0,0.0,0.0,3.9879,3.9979,3.9754,0.0,0.0,0.0,0.0,0.0,0.0,0.0,0.0,0.0,4.576,4.5546,4.5705,0.0,0.0,4.6412,4.6536,4.6057,4.598,4.6866,0.0,0.0,0.0,4.6866,4.6418,4.7395,4.88,4.9556,4.8936,4.9038,4.8863,4.7831,4.7417,4.7374,4.7835,4.7062,4.6293,4.638,4.6109,4.5829,4.5837,4.5677,4.4872,5.575,5.2371,5.113,5.0615,5.0623,5.0975,5.1462,5.2052,5.2052,5.1816,5.1325,5.0153,4.9337,4.8791,4.7592,0.0,0.0,0.0,4.7181,4.7228,4.6874,4.7007,4.7466,4.7152,4.6996,4.6879,4.5025,4.3712,4.2861,4.1123,3.9389,3.7534,0.0,0.0,3.4991,3.5811,3.6314,3.6539,3.736,3.8102,3.8572,3.8611,3.8611,3.861,3.8871,3.9171,3.9513,3.9485,3.9267,3.8708,3.7985,3.7,0.0,0.0,0.0,0.0,0.0,0.0,0.0,0.0,0.0,0.0,0.0,3.5483,0.0,0.0,0.0,0.0,3.957,4.1552,4.1902,4.1657,0.0,0.0,0.0,0.0,0.0,0.0,0.0,4.513,4.5764,4.6405,4.7182,4.6927,4.6944,4.7732,4.719,4.6757,4.6855,0.0,4.6441,4.7204,4.6744,4.6789,4.8121,4.7465,4.7147,4.8073,4.9147,4.9807,4.9722,4.9734,4.9493,4.877,4.7857,4.7079,4.6819,4.637,4.6452,4.7409,4.7158,4.676,4.647,4.6252,4.5529,5.7291,5.7175,5.5526,5.3962,5.2707,5.3409,5.3811,5.3886,5.3847,5.3808,5.3692,5.2173,5.1477,5.133,4.9818,0.0,0.0,4.893,4.8906,4.8872,4.8001,4.7557,4.7464,4.6685,4.6256,4.618,4.5322,4.45,4.3643,4.2008,4.0698,3.98,3.8925,3.8081,3.7383,3.8007,3.8043,3.7405,3.8186,3.8655,3.8811,3.8811,3.8811,3.8811,3.9512,4.0282,4.1115,4.1127,4.1131,4.1128,3.964,3.8391,3.7533,0.0,0.0,0.0,0.0,0.0,0.0,0.0,0.0,0.0,0.0,0.0,0.0,0.0,0.0,0.0,4.1132,0.0,4.3218,4.3166,0.0,0.0,0.0,4.3097,4.3081,4.448,4.5392,4.5447,0.0,0.0,0.0,0.0,4.8363,4.9127,4.8298,4.7677,4.7681,4.735,4.6902,4.6361,4.6755,4.7186,4.7424,4.781,4.8177,4.8287,4.9013,4.9808,5.0273,4.9817,4.9198,4.8849,4.7448,4.6028,4.5063,4.5034,4.5671,4.8237,4.7631,4.6536,4.6018,4.6166,4.552,5.8054,5.7501,5.7053,5.628,5.5369,5.5563,5.5654,5.5631,5.4971,5.4699,5.466,5.4268,5.3775,5.319,5.3424,5.2515,5.0663,5.0703,5.0334,4.97,4.8874,4.813,4.7503,4.7308,4.684,4.618,4.5293,4.4785,4.4502,4.2835,4.1281,3.9841,3.8914,3.8089,3.7262,3.7419,3.7732,3.8202,3.8437,3.9179,4.0468,4.0507,4.0507,4.0507,4.0625,4.1124,4.1987,4.1922,4.2222,4.2871,4.2512,4.189,4.1001,3.8786,0.0,0.0,0.0,0.0,0.0,0.0,0.0,0.0,0.0,3.8641,3.4356,0.0,4.2318,0.0,4.1906,4.4018,4.4311,4.3989,0.0,0.0,4.38,4.4253,4.5468,4.5965,4.6385,4.6795,4.7094,4.7367,4.7495,4.785,4.8183,4.8502,4.8211,4.8101,4.8413,4.7913,4.7543,4.7665,4.7856,4.8003,4.8003,4.8159,4.8296,4.8296,4.9013,4.9492,4.9242,4.9065,4.8618,4.7728,4.6641,4.5869,4.5636,4.5561,4.5896,4.6969,4.6583,4.5945,4.5751,4.5485,4.4805,5.7654,5.758,5.7191,5.652,5.5783,5.6161,5.6058,5.567,5.4815,5.4427,5.4433,5.4441,5.4207,5.3816,5.3936,5.3215,5.1911,5.1481,5.0835,5.0049,4.9579,4.8913,4.8087,4.7657,4.7269,4.6762,4.5905,4.5283,4.4853,4.3918,4.2784,4.1497,4.0992,4.0353,3.9415,3.7557,3.6864,3.7378,3.851,4.0111,4.2141,4.2258,4.1712,4.0581,4.0857,4.0703,4.0059,4.0364,4.0761,4.1204,4.1241,4.1007,4.0497,3.879,3.785,0.0,0.0,0.0,0.0,0.0,0.0,0.0,0.0,0.0,0.0,0.0,4.294,0.0,4.3386,0.0,4.5133,4.512,4.5128,4.5232,4.5492,4.6069,4.6991,4.731,4.756,4.787,4.7921,4.8024,4.8098,4.8156,4.8229,4.828,4.8216,4.8298,4.8493,4.8171,4.8016,4.8261,4.8296,4.8296,4.8296,4.8296,4.8296,4.8343,4.871,4.8989,4.9076,4.8721,4.8194,4.7567,4.6628,4.5824,4.5499,4.5365,4.5464,4.563,4.5514,4.5264,4.5238,4.4978,4.4359,5.6761,5.7347,5.6624,5.5908,5.5321,5.5908,5.5599,5.4624,5.3655,5.3308,5.3391,5.3559,5.3631,5.3602,5.2905,5.2534,5.2379,5.1558,5.0756,5.0098,4.998,4.9464,4.8631,4.7854,4.7464,4.7306,4.6568,4.5788,4.5089,4.497,4.4385,4.3445,4.3328,4.2783,4.1693,3.8109,3.6267,3.636,3.8741,4.1082,4.3305,4.3149,4.194,3.9795,4.038,3.9762,3.7655,3.8242,3.8702,3.8715,3.8715,3.8871,3.9175,3.8323,3.7956,0.0,3.8148,0.0,0.0,0.0,0.0,0.0,0.0,0.0,0.0,4.2482,4.3091,4.4131,4.5323,4.6028,4.6003,4.6388,4.6648,4.6686,4.7335,4.7832,4.7979,4.8365,4.8633,4.8675,4.8749,4.879,4.8665,4.8458,4.8287,4.8258,4.824,4.8233,4.8267,4.826,4.8279,4.8296,4.8296,4.8296,4.8296,4.8296,4.8296,4.8296,4.8333,4.8553,4.9231,4.8497,4.7761,4.7571,4.6716,4.5768,4.4919,4.4796,4.4754,4.473,4.4598,4.4491,4.4504,4.438,4.377,5.6411,5.6537,5.6366,5.6214,5.6039,5.554,5.4461,5.2934,5.1373,5.1102,5.1807,5.2455,5.2796,5.2812,5.2656,5.2215,5.1499,5.0714,5.0228,5.0001,4.9338,4.8559,4.7776,4.7581,4.7113,4.6451,4.6295,4.6139,4.5946,4.5244,4.4072,4.2549,4.1888,4.0797,0.0,0.0,0.0,0.0,3.9889,4.1096,4.1525,4.0201,3.9266,3.8759,3.8915,0.0,3.9213,3.937,3.9805,4.0485,4.0481,0.0,0.0,0.0,0.0,0.0,0.0,0.0,0.0,0.0,0.0,0.0,4.5415,4.4135,4.1676,4.3223,4.5291,4.7346,4.7714,4.7751,4.7597,4.7566,4.7564,4.7559,4.7717,4.8061,4.8749,4.8707,4.8755,4.9115,4.8957,4.8658,4.8382,4.8265,4.8187,4.8092,4.8062,4.8062,4.8062,4.82,4.8287,4.8296,4.8287,4.8296,4.8296,4.8287,4.8277,4.8296,4.8296,4.8341,4.8387,4.7677,4.6873,4.6636,4.5784,4.5035,4.4685,4.4657,4.4609,4.4615,4.415,4.371,4.3709,4.329,4.2635,5.5955,0.0,5.5866,5.5721,0.0,5.4398,5.3159,5.1991,5.1467,5.1272,5.1325,5.1717,5.1952,5.197,5.1108,5.0501,5.0025,4.8737,4.8142,4.8126,4.8164,4.7932,4.7503,4.7503,4.7267,4.684,4.684,4.6607,4.6217,4.6178,4.5515,4.4228,4.3838,4.3176,4.2318,4.2279,4.1695,4.0407,4.1226,4.2317,4.3526,4.2747,4.1695,4.0446,0.0,0.0,0.0,0.0,0.0,0.0,0.0,0.0,0.0,0.0,0.0,4.5383,4.4714,4.4828,4.604,4.6178,4.6539,4.7273,4.7266,4.6333,4.4243,4.5683,4.7152,4.8264,4.8276,4.8099,4.8034,4.8268,4.8411,4.8449,4.8793,4.9167,4.9372,4.9157,4.8957,4.9014,4.8764,4.8458,4.8267,4.8217,4.8177,4.8118,4.8032,4.7992,4.8002,4.8082,4.8151,4.8151,4.8151,4.8151,4.8151,4.8151,4.817,4.8219,4.8265,4.8121,4.7844,4.7204,4.6543,4.5987,4.5288,4.4748,4.4609,4.4567,4.4567,4.4525,4.4001,4.3376,4.3075,4.2473,4.1917,5.5703,5.6262,5.5467,5.5148,5.5078,5.3358,5.2138,5.141,0.0,0.0,0.0,5.1234,5.1335,5.1255,4.9731,4.9019,4.8888,4.7213,4.6425,4.6451,4.6984,4.721,4.7249,4.7349,4.7419,4.7419,4.757,4.7298,4.6597,4.7298,4.7298,4.6634,4.6597,4.6558,4.6558,4.6558,4.5505,4.3477,4.2806,4.3642,4.5866,4.5671,4.454,4.2588,4.3211,4.2627,4.0602,4.177,4.2536,4.2541,4.3207,4.3794,4.4268,4.4269,4.4804,4.5907,4.6017,4.6635,4.8071,4.8169,4.8349,4.8878,4.8794,4.8424,4.7651,4.8281,4.869,4.8686,4.8539,4.8438,4.8433,4.8941,4.9295,4.9333,4.9866,5.0088,4.9824,4.9446,4.9067,4.8824,4.8532,4.8287,4.8238,4.8217,4.8148,4.8098,4.7998,4.7941,4.7951,4.7982,4.8022,4.8022,4.8032,4.8012,4.7992,4.7864,4.7931,4.7935,4.7921,4.7721,4.7266,4.6809,4.6244,4.561,4.5075,4.4762,4.4609,4.4567,4.4567,4.4567,4.39,4.3166,4.2599,4.1869,4.1327,5.6282,5.6327,5.5505,5.5195,5.5076,5.3409,5.2165,5.1289,5.0702,5.0354,5.0296,5.1024,5.1286,5.1236,5.0284,4.9808,4.9726,4.8091,4.731,0.0,4.6571,4.6217,4.625,4.6803,4.709,4.7129,4.7816,4.8122,4.8044,4.8125,4.8122,4.8006,4.8002,4.797,4.8006,4.8006,4.7808,4.7425,4.48,4.3955,4.5009,4.3604,4.3056,4.3406,4.3562,4.3445,4.3094,4.3328,4.3411,4.3421,4.3539,4.4632,4.6779,4.6974,4.7991,5.0181,5.0401,5.0515,5.0722,5.0675,5.0554,5.0494,5.0453,5.0097,4.9254,4.9257,4.9617,5.0186,5.0168,5.0161,5.0018,5.0033,5.0092,5.0074,4.9974,4.985,4.9783,4.9256,4.8876,4.8772,4.8504,4.8229,4.8092,4.8042,4.7951,4.7824,4.7793,4.7752,4.7793,4.788,4.7992,4.8002,4.8002,4.8002,4.7901,4.758,4.7353,4.7342,4.6988,4.6716,4.6531,4.6098,4.5648,4.5385,4.4947,4.4651,4.4567,4.4567,4.4567,4.4525,4.3603,4.2692,4.2489,4.1575,4.0715,5.5701,5.5624,5.4832,5.4505,5.4386,5.3227,5.2149,5.1275,5.0899,5.0738,5.0763,5.1142,5.1296,5.1138,4.9455,4.8569,4.8367,4.6266,4.5495,4.5828,4.5422,4.5702,4.6507,4.6866,4.7255,4.7712,4.8562,4.8713,4.8365,4.8713,4.8752,4.8361,4.8327,4.8327,4.8327,4.8327,4.8327,4.8249,4.694,4.6447,4.68,4.6189,4.6019,4.6408,4.6447,4.6642,4.7032,4.7071,4.7304,4.7772,4.7772,4.8318,4.9449,4.9566,5.0077,5.1216,5.1241,5.1208,5.1181,5.0952,5.0811,5.0696,5.0587,5.0365,4.9971,5.0032,5.0173,5.0434,5.0451,5.0402,5.0294,5.0277,5.0277,5.0277,5.0012,4.9749,4.9512,4.9105,4.872,4.8504,4.8344,4.8161,4.8022,4.7988,4.7917,4.7829,4.7767,4.7699,4.7678,4.7525,4.751,4.7726,4.7346,4.7149,4.7302,4.6945,4.6694,4.6717,4.6531,4.6244,4.5962,4.561,4.5359,4.4994,4.4734,4.4595,4.4567,4.4567,4.4567,4.4468,4.3469,4.2645,4.2363,4.1443,4.0578,5.5335,5.5136,5.4279,5.367,5.3277,5.2654,5.1973,5.1279,5.124,5.122,5.1186,5.1241,5.125,5.1016,4.8738,4.7597,4.7134,4.4985,4.4232,4.4755,4.4945,4.5738,4.6889,4.7283,4.7833,4.8523,4.9299,4.9337,4.8904,4.9376,4.9376,4.8789,4.875,4.875,4.8746,4.875,4.875,4.8763,4.8885,4.8904,4.8741,4.8875,4.9036,4.9233,4.9231,4.9553,5.0196,5.0237,5.0557,5.124,5.132,5.1312,5.1252,5.125,5.1241,5.1176,5.1097,5.1027,5.0984,5.0765,5.0567,5.0517,5.0391,5.0277,5.0294,5.0451,5.045,5.0317,5.0289,5.0283,5.0271,5.0218,5.0194,5.0182,4.9817,4.9453,4.9209,4.8856,4.8559,4.8219,4.8177,4.8118,4.8018,4.7953,4.7881,4.784,4.7777,4.7668,4.7482,4.7062,4.696,4.7039,4.6625,4.6329,4.6625,4.6269,4.6012,4.6049,4.5973,4.5695,4.5372,4.528,4.5156,4.4734,4.4609,4.4567,4.4601,4.4426,4.4321,4.4179,4.3169,4.2205,4.1901,4.1194,4.0539,5.5868,5.5126,5.4247,5.298,5.1634,5.1478,5.1312,5.1114,5.1103,5.0998,5.0911,5.1053,5.1097,5.0853,4.9042,4.8164,4.7988,4.6324,4.5501,4.562,4.6257,4.6681,4.7009,4.8233,4.8936,4.9138,4.9838,5.0117,4.9997,5.0139,5.016,5.0111,5.0111,5.0051,5.0084,5.0084,5.0078,5.0122,5.0302,5.0104,4.9471,4.9416,4.9818,5.0603,5.0607,5.0748,5.0939,5.0984,5.1071,5.1271,5.1275,5.1241,5.1153,5.11,5.1049,5.0861,5.0828,5.0793,5.0667,5.0611,5.054,5.0346,5.0306,5.0277,5.0277,5.03,5.0312,5.0283,5.0277,5.0277,5.0265,5.0044,4.987,4.9824,4.931,4.8893,4.8842,4.8486,4.8236,4.8207,4.8098,4.8008,4.7896,4.7892,4.785,4.7767,4.7646,4.7497,4.7096,4.6543,4.6184,4.6244,4.6098,4.6074,4.6098,4.5711,4.5429,4.5385,4.5035,4.4865,4.4783,4.4762,4.4671,4.4665,4.4567,4.4567,4.4454,4.4088,4.3676,4.3603,4.2692,4.1459,4.0919,4.0612,4.0505,5.5241,5.4379,5.3421,5.2258,5.1098,5.1014,5.0982,5.0928,5.0925,5.085,5.079,5.0801,5.0565,5.0111,4.8843,4.7998,4.7335,4.6127,4.5791,4.6147,4.6479,4.7167,4.8191,4.8772,4.9333,4.9786,5.013,5.0277,5.0277,5.0277,5.0277,5.0277,5.0277,5.0277,5.0277,5.0277,5.0277,5.0283,5.038,5.0281,5.0033,5.0177,5.0438,5.0755,5.0794,5.082,5.0918,5.0925,5.0956,5.1011,5.1014,5.0988,5.0932,5.0925,5.09,5.0794,5.0696,5.0587,5.0446,5.0429,5.0391,5.0283,5.0277,5.0277,5.0277,5.0277,5.0277,5.0277,5.0277,5.023,5.0038,4.987,4.9742,4.9498,4.9072,4.8781,4.872,4.8429,4.8158,4.8055,4.7994,4.7886,4.7819,4.7788,4.7777,4.7657,4.745,4.7107,4.6856,4.6172,4.5673,4.5584,4.5399,4.5346,4.5516,4.5201,4.4927,4.4865,4.4748,4.4581,4.4567,4.4567,4.4615,4.4567,4.4567,4.4567,4.4567,4.4016,4.3466,4.3166,4.2442,4.1294,4.0629,4.0505,4.0505,5.4202,5.3294,5.2356,5.152,5.0836,5.0794,5.0766,5.0764,5.0764,5.0739,5.0635,5.0567,5.0125,4.9444,4.8793,4.8102,4.7381,4.6508,4.6387,4.6849,4.7073,4.7881,4.9066,4.9333,4.971,5.0201,5.0277,5.0277,5.0277,5.0277,5.0277,5.0277,5.0277,5.0277,5.0277,5.0277,5.0277,5.0277,5.0277,5.0277,5.0335,5.0534,5.0687,5.0649,5.0687,5.0671,5.0726,5.076,5.075,5.0794,5.0794,5.077,5.0764,5.0721,5.07,5.0644,5.0587,5.0429,5.0289,5.0277,5.0277,5.0277,5.0277,5.0253,5.0194,5.0175,5.0107,5.0019,5.0032,4.9903,4.9844,4.962,4.9409,4.9153,4.8842,4.8623,4.8495,4.8248,4.8075,4.7922,4.7871,4.7819,4.7699,4.7583,4.7439,4.7396,4.7017,4.659,4.6412,4.5787,4.5294,4.5108,4.4797,4.4769,4.5021,4.4879,4.4609,4.4567,4.4567,4.4567,4.4567,4.4567,4.4567,4.4567,4.4567,4.4412,4.4136,4.3662,4.2953,4.2583,4.1885,4.1091,4.0578,4.0522,4.0505,5.2961,5.2105,5.1239,5.0871,5.0786,5.0778,5.0731,5.0606,5.0606,5.0492,5.0363,5.0323,4.9891,4.9204,4.9144,4.9029,4.8826,4.7941,4.7625,4.7832,4.8525,4.8989,4.9148,4.9862,5.0239,5.0277,5.0277,5.0277,5.0277,5.0277,5.0277,5.0277,5.0277,5.0277,5.0277,5.0277,5.0277,5.0277,5.0277,5.0277,5.0245,5.0274,5.0275,5.0204,5.0291,5.0336,5.05,5.0563,5.0608,5.0782,5.0654,5.067,5.0591,5.0529,5.0479,5.0369,5.0317,5.03,5.0283,5.0277,5.0271,5.0265,5.0248,5.0169,4.9857,4.9824,4.969,4.9409,4.9409,4.9476,4.9613,4.9248,4.8902,4.8729,4.8458,4.8209,4.8072,4.8008,4.7922,4.7871,4.7798,4.771,4.7678,4.7229,4.7051,4.6915,4.6507,4.6,4.5622,4.5351,4.5102,4.4797,4.4623,4.4595,4.4623,4.4637,4.4595,4.4567,4.4567,4.4567,4.4567,4.4567,4.4567,4.4525,4.444,4.415,4.3617,4.2908,4.2062,4.1525,4.1125,4.0526,4.0522,4.0522,4.0505,5.1979,5.1132,5.0815,5.0587,5.0502,5.0497,5.045,5.0413,5.0413,5.0369,5.0294,5.0277,5.013,4.9862,4.9868,4.9289,4.8296,4.7946,4.8099,4.8602,4.8951,4.9371,4.9862,5.0168,5.0277,5.0277,5.0277,5.0277,5.0277,5.0277,5.0277,5.0277,5.0277,5.0277,5.0277,5.0277,5.0277,5.0277,5.0277,5.0054,4.9563,4.9524,4.9289,4.8749,4.9251,4.9291,4.8837,4.8804,4.8846,4.8889,4.8894,4.8854,4.8896,4.9346,4.9849,5.0218,5.0277,5.0277,5.0277,5.0277,5.0212,5.0012,4.9993,4.9837,4.9556,4.9483,4.9431,4.9302,4.908,4.9048,4.9023,4.891,4.8667,4.8429,4.8285,4.8118,4.7968,4.7912,4.7861,4.7798,4.7746,4.7699,4.7583,4.7207,4.6938,4.681,4.6147,4.5606,4.5333,4.5075,4.4783,4.4651,4.4567,4.4567,4.4567,4.4581,4.4567,4.4567,4.4567,4.4567,4.4567,4.4567,4.4567,4.4059,4.4001,4.371,4.306,4.23,4.1426,4.0922,4.0505,4.0505,4.0505,4.0505,4.0505,5.1126,5.0535,5.0525,5.0435,5.0289,5.0277,5.0277,5.0277,5.0277,5.0277,5.0277,5.0277,5.0277,5.0277,5.0277,4.9742,4.8672,4.8634,4.8902,4.9448,4.9486,4.9745,5.0067,5.0242,5.0156,5.0012,4.9955,4.9955,4.9993,4.9955,5.0038,5.0113,5.0119,5.0206,5.0265,5.0277,5.0206,4.9977,4.9901,4.9524,4.8793,4.8684,4.8258,4.7603,4.7952,4.8143,4.7794,4.7794,4.7794,4.7794,4.7794,4.7794,4.787,4.8372,4.9022,4.9786,4.9901,5.0054,5.0233,5.0212,5.0044,4.9824,4.9669,4.9498,4.9193,4.9137,4.9097,4.8949,4.8772,4.8587,4.855,4.855,4.8421,4.8158,4.8078,4.8018,4.7871,4.784,4.7772,4.7689,4.754,4.7439,4.7327,4.6764,4.6436,4.64,4.5619,4.5129,4.5021,4.4824,4.4567,4.4567,4.4567,4.4567,4.4567,4.4567,4.4567,4.4567,4.4567,4.4567,4.4567,4.4567,4.4293,4.3735,4.3272,4.2969,4.2426,4.1673,4.1108,4.0595,4.0505,4.0505,4.0505,4.0505,4.0505,5.0338,5.03,5.0283,5.03,5.0277,5.0277,5.0277,5.0277,5.0277,5.0277,5.0277,5.0277,5.0277,5.0277,5.0248,5.0221,5.0051,4.9945,4.9983,5.0121,5.0147,4.9981,4.9824,5.0063,4.9897,4.9424,4.9356,4.9348,4.9394,4.9416,4.9541,4.9783,4.985,5.0025,5.0277,5.0201,4.9868,4.9333,4.918,4.864,4.7908,4.7794,4.7373,4.6609,4.6577,4.6915,4.7603,4.7641,4.7564,4.7603,4.7641,4.7755,4.7679,4.7794,4.8176,4.8923,4.9087,4.9507,5.0033,4.9898,4.9797,4.9679,4.9468,4.9161,4.8885,4.8799,4.8676,4.8449,4.8306,4.8226,4.8207,4.8121,4.8022,4.7922,4.7933,4.7881,4.7731,4.7689,4.7678,4.7593,4.7287,4.696,4.6695,4.6098,4.5571,4.5438,4.5035,4.4692,4.472,4.4637,4.4581,4.4567,4.4567,4.4567,4.4567,4.4567,4.4567,4.4567,4.4567,4.4567,4.4567,4.4553,4.4107,4.3529,4.2676,4.2316,4.1771,4.1074,4.0854,4.0505,4.0505,4.0505,4.0505,4.0505,4.0505,5.0277,5.0277,5.0277,5.0277,5.0277,5.0277,5.0277,5.0277,5.0277,5.0277,5.0277,5.0277,5.0277,5.023,5.0069,4.9974,4.9923,4.9756,4.9749,4.9877,4.9742,4.957,4.9498,4.9556,4.9512,4.9303,4.9272,4.9272,4.9257,4.9257,4.9468,4.9756,4.9797,4.9993,5.0171,4.9748,4.9295,4.9066,4.8487,4.7755,4.6991,4.6915,4.6495,4.5774,4.566,4.5818,4.6042,4.608,4.608,4.6118,4.608,4.6309,4.6762,4.6915,4.7224,4.7889,4.8454,4.8693,4.8803,4.9187,4.9318,4.9161,4.9044,4.8807,4.8504,4.8448,4.8354,4.8246,4.8148,4.8058,4.8014,4.7974,4.7922,4.7892,4.7892,4.784,4.771,4.7689,4.7529,4.7196,4.697,4.6753,4.6329,4.5635,4.5294,4.5228,4.4879,4.4581,4.4567,4.4567,4.4567,4.4567,4.4567,4.4567,4.4567,4.4567,4.4567,4.4567,4.4567,4.4567,4.4567,4.4321,4.3871,4.3075,4.2253,4.1607,4.104,4.0732,4.0574,4.0505,4.0505,4.0505,4.0505,4.0505,4.0505,5.0277,5.0277,5.0277,5.0277,5.0265,5.0188,5.0139,5.0088,4.9993,4.9916,4.991,4.991,4.9954,4.9877,4.9721,4.9613,4.957,4.9271,4.9232,4.9416,4.9394,4.9248,4.9113,4.8974,4.9007,4.9072,4.899,4.8924,4.8924,4.894,4.9097,4.9371,4.9424,4.9389,4.9441,4.8979,4.8523,4.7884,4.7295,4.6579,4.589,4.5706,4.5472,4.5028,4.5065,4.5109,4.5115,4.5235,4.5283,4.5262,4.5208,4.5376,4.579,4.5785,4.6013,4.6725,4.7226,4.7634,4.8063,4.8474,4.8741,4.8767,4.8676,4.8541,4.8335,4.8238,4.82,4.8187,4.8062,4.7988,4.7922,4.785,4.7829,4.7829,4.7829,4.7798,4.771,4.7689,4.745,4.7062,4.673,4.6376,4.5863,4.5372,4.5062,4.4981,4.4783,4.4567,4.4567,4.4567,4.4567,4.4567,4.4567,4.4567,4.4567,4.4567,4.4567,4.4567,4.4567,4.4567,4.4567,4.4164,4.3662,4.2458,4.1509,4.1158,4.0629,4.0595,4.0505,4.0505,4.0505,4.0505,4.0505,4.0505,4.0505,5.0259,5.0265,5.0236,5.02,5.0137,4.9884,4.9707,4.9628,4.949,4.9311,4.9251,4.9333,4.9371,4.934,4.9317,4.9287,4.9224,4.8915,4.8781,4.8902,4.9007,4.9015,4.8772,4.8541,4.8578,4.8693,4.8504,4.8382,4.8439,4.8402,4.8467,4.8859,4.8898,4.8617,4.8378,4.8078,4.7339,4.6193,4.5782,4.5286,4.4572,4.4513,4.4476,4.449,4.4657,4.4776,4.4806,4.5036,4.5213,4.523,4.4946,4.4814,4.477,4.4533,4.4896,4.5599,4.566,4.6562,4.7507,4.7777,4.8002,4.8628,4.8486,4.8296,4.8277,4.8219,4.817,4.8138,4.8012,4.7947,4.7871,4.7798,4.7746,4.7689,4.7636,4.7604,4.7636,4.7593,4.7162,4.6741,4.6352,4.585,4.5359,4.4893,4.472,4.4671,4.4643,4.4581,4.4567,4.4567,4.4567,4.4567,4.4567,4.4567,4.4567,4.4567,4.4567,4.4567,4.4567,4.4553,4.4384,4.3885,4.3229,4.1997,4.1091,4.0698,4.0505,4.0505,4.0505,4.0505,4.0505,4.0505,4.0505,4.0505,4.0505,4.9954,4.9897,4.9655,4.9563,4.9556,4.9468,4.9107,4.8648,4.9123,4.8963,4.8664,4.9055,4.9234,4.9241,4.9023,4.8915,4.883,4.8577,4.8421,4.843,4.8514,4.8541,4.843,4.8363,4.8354,4.8402,4.8373,4.8296,4.8296,4.8296,4.8495,4.879,4.8744,4.8522,4.8108,4.7447,4.6733,4.5726,4.5029,4.467,4.4437,4.4362,4.439,4.4404,4.4459,4.4499,4.4506,4.4572,4.472,4.4904,4.465,4.4506,4.4499,4.4404,4.4406,4.4535,4.5048,4.5637,4.6393,4.6964,4.7583,4.8301,4.8316,4.8236,4.8226,4.8078,4.8034,4.7963,4.7881,4.7783,4.7777,4.7689,4.7678,4.7646,4.7309,4.7096,4.7096,4.6741,4.6305,4.58,4.561,4.5333,4.4961,4.472,4.4567,4.4567,4.4567,4.4567,4.4567,4.4567,4.4567,4.4567,4.4567,4.4567,4.4567,4.4567,4.4567,4.4567,4.4553,4.4525,4.4121,4.3499,4.2676,4.1673,4.099,4.0539,4.0505,4.0505,4.0505,4.0505,4.0505,4.0505,4.0505,4.0505,4.0505,4.9584,4.957,4.9394,4.9272,4.9287,4.9161,4.8835,4.8504,4.8708,4.865,4.8352,4.865,4.8864,4.8847,4.8667,4.8596,4.8532,4.8411,4.8316,4.8306,4.8325,4.8316,4.8306,4.8296,4.8296,4.8296,4.8296,4.8296,4.8296,4.8296,4.8439,4.8439,4.8272,4.7776,4.7074,4.635,4.5613,4.4823,4.4265,4.3997,4.4034,4.4042,4.4026,4.4072,4.4155,4.4272,4.4348,4.4278,4.4334,4.4506,4.4369,4.4236,4.4221,4.4095,4.3941,4.3816,4.426,4.4844,4.5746,4.6332,4.7037,4.7887,4.8111,4.8101,4.8072,4.7998,4.7963,4.7902,4.7819,4.7741,4.7657,4.7529,4.7287,4.6972,4.6566,4.6448,4.681,4.6472,4.5888,4.5468,4.528,4.5142,4.4665,4.4581,4.4567,4.4567,4.4567,4.4567,4.4567,4.4567,4.4567,4.4567,4.4567,4.4567,4.4567,4.4567,4.4567,4.4567,4.444,4.4426,4.3739,4.3078,4.2237,4.1426,4.0885,4.0505,4.0505,4.0505,4.0505,4.0505,4.0505,4.0536,4.0536,4.0782,4.0751,4.9256,4.9256,4.9216,4.9209,4.9129,4.8856,4.8635,4.8536,4.8412,4.8262,4.8152,4.8261,4.842,4.8296,4.8401,4.8316,4.8325,4.8316,4.8306,4.8296,4.8296,4.8296,4.8296,4.8296,4.8296,4.8296,4.8296,4.8296,4.8296,4.8296,4.8296,4.8244,4.7683,4.681,4.6248,4.534,4.4396,4.3628,4.3413,4.32,4.3127,4.309,4.3061,4.3094,4.3265,4.349,4.3647,4.3692,4.3647,4.3964,4.3975,4.3955,4.39,4.3622,4.354,4.3487,4.3662,4.4224,4.5452,4.5863,4.6493,4.7677,4.8002,4.7982,4.7972,4.7968,4.7907,4.7861,4.7871,4.7731,4.7482,4.7129,4.6695,4.6293,4.5724,4.585,4.6376,4.6292,4.5737,4.5333,4.5214,4.4994,4.4776,4.4567,4.4567,4.4567,4.4567,4.4567,4.4567,4.4567,4.4567,4.4567,4.4567,4.4567,4.4567,4.4567,4.4567,4.4553,4.4293,4.4049,4.3214,4.2489,4.1771,4.111,4.0681,4.0505,4.0505,4.0505,4.0566,4.0597,4.0707,4.0707,4.0707,4.1168,4.1322,4.8927,4.8902,4.8613,4.8523,4.8514,4.843,4.8061,4.7574,4.8087,4.8003,4.7636,4.8003,4.8296,4.8296,4.8296,4.8296,4.8296,4.8296,4.8296,4.8296,4.8296,4.8296,4.8296,4.8287,4.8296,4.8296,4.8296,4.8296,4.8296,4.8296,4.8296,4.826,4.7929,4.7315,4.603,4.5553,4.4562,4.2983,4.2616,4.2323,4.1874,4.1792,4.1756,4.1764,4.1883,4.1838,4.1804,4.1687,4.1654,4.1997,4.2877,4.3532,4.3425,4.3351,4.33,4.3311,4.3286,4.3935,4.5258,4.5732,4.6334,4.7726,4.7937,4.7922,4.7922,4.7824,4.7772,4.7731,4.7756,4.7482,4.7039,4.6578,4.6196,4.5913,4.5558,4.5359,4.5507,4.5262,4.4961,4.4824,4.4769,4.472,4.4629,4.4581,4.4567,4.4567,4.4601,4.4567,4.4567,4.4567,4.4567,4.4567,4.4567,4.4567,4.4567,4.4606,4.4603,4.4557,4.4327,4.3944,4.3082,4.2543,4.2052,4.1341,4.0578,4.0566,4.0843,4.0768,4.0861,4.0891,4.1014,4.1199,4.1414,4.1722,4.1845,4.8578,4.855,4.8382,4.8296,4.8296,4.8296,4.8039,4.7783,4.8113,4.8076,4.7819,4.815,4.8296,4.8296,4.8296,4.8296,4.8287,4.8248,4.8229,4.8219,4.819,4.818,4.8256,4.82,4.82,4.8277,4.8296,4.8296,4.8296,4.8296,4.8296,4.8223,4.7966,4.7049,4.5957,4.5544,4.4488,4.3167,4.247,4.2057,4.169,4.1246,4.1021,4.1216,4.1565,4.1821,4.1106,4.1365,4.1266,4.1348,4.2068,4.2607,4.2277,4.2243,4.2354,4.2665,4.2703,4.3661,4.4954,4.5663,4.6217,4.7741,4.7814,4.7829,4.7809,4.771,4.7699,4.7636,4.7418,4.7028,4.6244,4.595,4.5661,4.5372,4.5169,4.4967,4.4947,4.4748,4.4567,4.4567,4.4609,4.4609,4.4567,4.4567,4.4567,4.4567,4.4635,4.4635,4.4615,4.4615,4.4567,4.4567,4.4567,4.4567,4.4567,4.4598,4.4596,4.4562,4.4452,4.4032,4.3409,4.2983,4.2589,4.1807,4.1076,4.1353,4.1568,4.1384,4.1384,4.1691,4.1925,4.2017,4.214,4.2294,4.2355,4.8296,4.8296,4.8296,4.8296,4.8296,4.8296,4.8296,4.826,4.8296,4.826,4.8296,4.8296,4.8296,4.8296,4.8296,4.8296,4.8277,4.8275,4.8246,4.8246,4.8151,4.8161,4.8217,4.8161,4.817,4.8287,4.8248,4.8238,4.8229,4.8248,4.8219,4.8129,4.7652,4.6863,4.5929,4.5205,4.4307,4.3098,4.2466,4.2063,4.1824,4.1269,4.0971,4.1137,4.1718,4.1909,4.1151,4.1271,4.141,4.0872,4.1401,4.132,4.1037,4.1127,4.1382,4.2249,4.2513,4.3587,4.5057,4.5692,4.6315,4.7591,4.7689,4.7689,4.7699,4.7678,4.7615,4.7306,4.6959,4.6304,4.5416,4.5241,4.5035,4.4789,4.4609,4.4635,4.4736,4.477,4.4804,4.4567,4.4567,4.4567,4.4567,4.4567,4.4567,4.4635,4.4702,4.477,4.477,4.4919,4.5108,4.5277,4.5413,4.5481,4.5447,4.537,4.5264,4.4815,4.4713,4.4156,4.3629,4.3077,4.2612,4.2252,4.1863,4.2078,4.2184,4.2091,4.2232,4.2602,4.2725,4.2774,4.2786,4.2848,4.294,4.8296,4.8296,4.8296,4.8296,4.8296,4.8296,4.8296,4.8296,4.8296,4.8296,4.8296,4.8296,4.8287,4.8287,4.8296,4.8296,4.8248,4.8209,4.8265,4.8265,4.818,4.819,4.819,4.8151,4.8209,4.8238,4.8151,4.8052,4.8082,4.8042,4.8111,4.8035,4.7879,4.7158,4.6063,4.5377,4.4382,4.2975,4.23,4.1853,4.1395,4.1157,4.0963,4.1036,4.1481,4.129,4.1024,4.0883,4.085,4.0732,4.0762,4.0726,4.1043,4.1969,4.2614,4.2823,4.3176,4.3973,4.5286,4.5991,4.6706,4.7446,4.7689,4.7689,4.7689,4.7636,4.741,4.6964,4.6337,4.5598,4.5346,4.522,4.4816,4.4649,4.477,4.4973,4.5365,4.55,4.5311,4.5007,4.4804,4.477,4.4973,4.5074,4.5108,4.5244,4.5379,4.5466,4.55,4.5853,4.621,4.638,4.653,4.653,4.653,4.637,4.6207,4.5417,4.503,4.4428,4.3856,4.3078,4.2605,4.2669,4.2571,4.2571,4.2663,4.2786,4.2879,4.3063,4.3236,4.3439,4.3513,4.3575,4.3913,4.8296,4.8296,4.8296,4.8296,4.8296,4.8296,4.8296,4.8296,4.8296,4.8277,4.8238,4.8265,4.819,4.8161,4.8151,4.8121,4.8118,4.8098,4.8088,4.8088,4.8038,4.8048,4.8088,4.8048,4.7972,4.7941,4.787,4.7962,4.8131,4.8111,4.8108,4.8072,4.8032,4.7372,4.6351,4.5777,4.4773,4.3351,4.2467,4.1848,4.1447,4.1445,4.1282,4.1011,4.1449,4.1459,4.0796,4.1124,4.0989,4.0772,4.0944,4.1325,4.1986,4.2702,4.3429,4.3238,4.3464,4.4341,4.5562,4.6359,4.683,4.7554,4.7678,4.7689,4.7625,4.7443,4.714,4.6804,4.6877,4.6378,4.6143,4.5807,4.578,4.5751,4.5684,4.5853,4.6157,4.6259,4.6056,4.5751,4.592,4.5954,4.5887,4.5887,4.5785,4.5887,4.6041,4.6177,4.6264,4.665,4.709,4.7056,4.709,4.709,4.7094,4.6975,4.6724,4.6023,4.539,4.4797,4.4309,4.3653,4.3618,4.3747,4.3587,4.3217,4.3556,4.3821,4.3698,4.3575,4.3821,4.4036,4.416,4.4344,4.4498,4.8296,4.8296,4.8296,4.8296,4.8296,4.8296,4.8296,4.8296,4.8296,4.8267,4.8226,4.8226,4.8151,4.8092,4.8062,4.8058,4.7984,4.8004,4.8004,4.7957,4.7886,4.7845,4.7892,4.785,4.7824,4.7886,4.7845,4.7917,4.8022,4.8068,4.8078,4.8028,4.7951,4.7521,4.67,4.6107,4.5299,4.4207,4.3233,4.244,4.2249,4.2114,4.1796,4.1153,4.2258,4.2331,4.1751,4.2041,4.2158,4.2049,4.2266,4.2764,4.3363,4.3978,4.4087,4.3725,4.3616,4.4765,4.5852,4.6747,4.7057,4.7425,4.7674,4.7702,4.7568,4.7311,4.7015,4.6861,4.6941,4.7102,4.6675,4.6733,4.6718,4.6684,4.665,4.6834,4.6955,4.7056,4.7192,4.709,4.7206,4.6969,4.6699,4.6462,4.6293,4.6496,4.665,4.6955,4.7075,4.7394,4.7665,4.7564,4.753,4.753,4.7474,4.7328,4.695,4.6322,4.5764,4.5186,4.4807,4.4401,4.4437,4.4314,4.416,4.3913,4.4375,4.4591,4.4283,4.419,4.4468,4.456,4.4468,4.4437,4.4529,4.8296,4.8296,4.8296,4.8296,4.8287,4.8287,4.8287,4.8287,4.8277,4.8296,4.8229,4.8267,4.8238,4.8209,4.8209,4.8219,4.818,4.8118,4.8058,4.8028,4.804,4.8036,4.8034,4.7972,4.8171,4.8187,4.8073,4.7886,4.7948,4.7887,4.7783,4.7793,4.7731,4.7379,4.6803,4.6404,4.5592,4.4416,4.3981,4.3584,4.3122,4.2921,4.2886,4.2886,4.3022,4.3256,4.3438,4.3645,4.3788,4.4394,4.4611,4.4874,4.5019,4.5055,4.5562,4.5852,4.6106,4.6204,4.6639,4.7119,4.7331,4.7438,4.7649,4.7631,4.7518,4.7547,4.753,4.7465,4.7284,4.7165,4.7101,4.6936,4.6853,4.6955,4.7124,4.7361,4.7597,4.78,4.7936,4.8139,4.8139,4.7631,4.7192,4.6955,4.6786,4.7022,4.7293,4.7582,4.7819,4.8105,4.8274,4.8173,4.8139,4.8139,4.7904,4.7771,4.7173,4.6606,4.5999,4.5476,4.4961,4.4591,4.4591,4.4468,4.4375,4.4344,4.4498,4.4591,4.4591,4.4591,4.4591,4.4591,4.456,4.4591,4.4591,4.8131,4.8131,4.8131,4.8131,4.8131,4.8131,4.8131,4.8131,4.8131,4.8092,4.8078,4.8068,4.8038,4.7982,4.7978,4.7941,4.7978,4.7957,4.7917,4.8145,4.8276,4.8499,4.867,4.8971,4.92,4.8992,4.8743,4.8508,4.8289,4.8005,4.7819,4.7798,4.772,4.7591,4.7047,4.6711,4.6178,4.5536,4.5065,4.464,4.4406,4.4288,4.4261,4.4348,4.4235,4.4488,4.4706,4.4841,4.492,4.5273,4.5309,4.5562,4.5852,4.6003,4.6194,4.6607,4.7135,4.7255,4.7289,4.7626,4.7621,4.7689,4.7865,4.7975,4.7683,4.7879,4.8032,4.7763,4.7965,4.7985,4.797,4.8037,4.8037,4.8003,4.78,4.8003,4.8308,4.8428,4.8631,4.8849,4.8951,4.8376,4.7936,4.7902,4.78,4.7936,4.8105,4.8308,4.8477,4.8646,4.8781,4.8815,4.8815,4.8815,4.8482,4.8247,4.7424,4.6751,4.6018,4.5439,4.4875,4.4591,4.4591,4.4591,4.4498,4.4529,4.4591,4.4591,4.4591,4.4591,4.4591,4.4591,4.4591,4.4591,4.4591,4.7978,4.7921,4.7972,4.8002,4.8002,4.8002,4.8002,4.8002,4.8012,4.7988,4.7963,4.7953,4.7866,4.7804,4.7824,4.7819,4.7804,4.7741,4.7912,4.8202,4.8568,4.8967,4.9278,4.9785,5.0014,5.0137,4.947,4.9231,4.8999,4.8549,4.812,4.785,4.7756,4.7652,4.7508,4.7145,4.6675,4.6276,4.5562,4.5236,4.5164,4.52,4.52,4.5236,4.5309,4.5417,4.5562,4.5599,4.5635,4.5997,4.6359,4.6794,4.7145,4.7497,4.7547,4.7787,4.8079,4.8103,4.7982,4.7998,4.8009,4.7997,4.8133,4.8135,4.8166,4.8498,4.867,4.8248,4.8541,4.8849,4.8984,4.8917,4.8815,4.8781,4.8815,4.8951,4.8984,4.8883,4.8849,4.8917,4.9018,4.9018,4.8748,4.8849,4.8883,4.8951,4.9018,4.9018,4.9018,4.8984,4.8984,4.9018,4.9018,4.9003,4.8783,4.8354,4.7605,4.6795,4.6074,4.5405,4.4787,4.4591,4.4591,4.4591,4.4591,4.4591,4.4591,4.4591,4.4591,4.4591,4.4591,4.4591,4.4591,4.4591,4.4591,4.784,4.7731,4.7911,4.7992,4.7982,4.8002,4.7992,4.7972,4.7982,4.7951,4.787,4.7921,4.7819,4.786,4.771,4.7741,4.7901,4.7922,4.8144,4.8547,4.901,4.9397,4.9831,5.0143,5.0318,5.0282,5.009,5.0028,4.9811,4.9231,4.8507,4.7833,4.7989,4.7808,4.7652,4.7508,4.7145,4.6675,4.5997,4.5599,4.5562,4.5526,4.5562,4.5526,4.549,4.5671,4.6349,4.6489,4.6763,4.7342,4.7637,4.8114,4.8334,4.8712,4.8789,4.8508,4.8658,4.8581,4.8329,4.8253,4.8133,4.7879,4.7926,4.8332,4.8617,4.8836,4.8898,4.8831,4.8951,4.8984,4.9018,4.9018,4.9018,4.9018,4.9018,4.9018,4.9018,4.9018,4.8951,4.8984,4.9018,4.9018,4.9018,4.9018,4.9018,4.9018,4.9018,4.9018,4.9018,4.9018,4.9018,4.9018,4.9018,4.8938,4.8814,4.8177,4.7221,4.6483,4.5787,4.5216,4.4667,4.4591,4.4591,4.4591,4.4591,4.4591,4.4591,4.4591,4.4591,4.4591,4.4591,4.4591,4.4591,4.4591,4.4591,4.772,4.7699,4.7793,4.7824,4.7824,4.7824,4.7824,4.7788,4.7824,4.761,4.7349,4.7015,4.6832,4.6866,4.6832,4.6832,4.6928,4.7333,4.7736,4.8365,4.9043,4.9888,5.046,5.1076,5.1622,5.1382,5.1092,5.0825,5.0753,4.9928,4.9608,4.9148,4.8638,4.8123,4.7906,4.7833,4.758,4.7399,4.6964,4.6783,4.6757,4.6794,4.7001,4.7508,4.7508,4.7652,4.79,4.764,4.7944,4.8138,4.8124,4.8494,4.8946,4.9222,4.8987,4.8587,4.8802,4.8713,4.8377,4.8411,4.8507,4.8582,4.858,4.8665,4.8984,4.9018,4.9018,4.8984,4.9052,4.912,4.9018,4.9018,4.9018,4.9018,4.9086,4.9154,4.912,4.9154,4.9018,4.9052,4.9018,4.9018,4.9018,4.9018,4.9018,4.9018,4.9018,4.9018,4.9018,4.9018,4.9018,4.8907,4.8876,4.8861,4.8702,4.7852,4.6812,4.6149,4.5515,4.503,4.4591,4.4591,4.4591,4.4591,4.4591,4.4591,4.4591,4.4591,4.4591,4.4591,4.4591,4.4591,4.4591,4.4591,4.4591,4.745,4.7439,4.7298,4.7418,4.7678,4.7689,4.7689,4.7689,4.7699,4.7529,4.7107,4.673,4.659,4.659,4.6707,4.6944,4.7287,4.7701,4.8125,4.8971,4.9985,5.0737,5.1311,5.1789,5.217,5.2184,5.1789,5.1368,5.1261,5.04,5.0029,4.9789,4.9488,4.8843,4.8677,4.8377,4.8377,4.8413,4.8215,4.8171,4.8102,4.7961,4.7978,4.8504,4.8469,4.8469,4.8435,4.8235,4.8283,4.8413,4.8446,4.8506,4.8882,4.9084,4.88,4.8654,4.8649,4.8763,4.8522,4.8545,4.8845,4.887,4.8929,4.8951,4.9018,4.9018,4.9018,4.9052,4.9154,4.9323,4.9357,4.9627,4.9864,5.0017,5.0017,5.0017,4.9627,4.9492,4.9255,4.9086,4.9052,4.9052,4.9052,4.9052,4.912,4.9086,4.9018,4.9018,4.9018,4.9018,4.9018,4.8876,4.872,4.8655,4.8561,4.7372,4.6325,4.602,4.5418,4.4918,4.4591,4.4622,4.4622,4.4591,4.4591,4.4591,4.4591,4.4622,4.4591,4.4591,4.4591,4.4591,4.4591,4.4591,4.4591,4.689,4.6869,4.6365,4.6753,4.7561,4.7668,4.7625,4.7529,4.7482,4.7439,4.7331,4.7276,4.729,4.7322,4.7191,4.751,4.8093,4.8601,4.9229,5.0066,5.046,5.1418,5.1873,5.2102,5.1933,5.1676,5.1435,5.1364,5.1458,5.0432,5.0113,5.0152,4.9902,4.9646,4.9976,4.9981,5.0017,4.9937,4.9361,4.916,4.8995,4.8733,4.8695,4.8795,4.8856,4.8917,4.8718,4.854,4.8553,4.8639,4.8802,4.8998,4.942,4.9905,4.9841,4.9568,4.9593,4.9472,4.9058,4.9046,4.9049,4.9068,4.9086,4.9221,4.9086,4.912,4.9289,4.9593,4.9796,5.0033,5.0304,5.0558,5.0761,5.0829,5.0761,5.066,5.027,5.0067,4.9864,4.956,4.9255,4.907,4.907,4.9138,4.9206,4.9187,4.9052,4.9052,4.9154,4.9187,4.9255,4.8923,4.8736,4.8466,4.8145,4.6812,4.5895,4.5606,4.5321,4.4879,4.4745,4.4837,4.4776,4.4683,4.4899,4.5207,4.4929,4.4652,4.4683,4.4714,4.4591,4.4591,4.4591,4.4591,4.4591,4.6353,4.6376,4.6159,4.6328,4.6625,4.6637,4.6648,4.6578,4.6281,4.611,4.6047,4.581,4.5988,4.6264,4.6586,4.7002,4.7611,4.8176,4.8841,4.9187,5.0066,5.0376,5.0858,5.126,5.1235,5.1043,5.0991,5.1026,5.0955,5.0244,5.0338,5.0458,5.0184,5.0307,5.0127,4.9947,4.9634,4.9987,4.9861,4.9782,4.9762,4.9602,4.9482,4.9574,4.9558,4.9379,4.9003,4.8783,4.8756,4.8864,4.9021,4.8933,4.94,4.9939,4.9585,4.9366,4.9369,4.9483,4.9572,4.971,4.9458,4.9357,4.9458,4.9695,4.9729,5.022,5.0356,5.0423,5.0608,5.0811,5.093,5.0998,5.11,5.11,5.1066,5.1032,5.0829,5.0829,5.0694,5.0338,4.9999,5.0186,5.0254,5.0051,5.0017,5.0101,5.0101,4.983,4.983,4.9729,4.9695,4.9172,4.8829,4.8434,4.7803,4.6837,4.6094,4.5837,4.5453,4.497,4.4929,4.5207,4.5268,4.533,4.5607,4.5823,4.5515,4.5207,4.4929,4.4837,4.4929,4.4745,4.4591,4.461,4.461,4.5825,4.58,4.5644,4.558,4.5644,4.5938,4.6098,4.6037,4.5711,4.5571,4.5567,4.5288,4.5402,4.5802,4.5998,4.6554,4.7329,4.7943,4.8763,4.886,4.9705,5.0265,5.0439,5.0446,5.0616,5.0507,5.0411,5.0411,5.0383,5.0209,5.0047,4.9984,5.0118,5.0028,4.9991,4.9963,5.0014,5.0257,5.0122,4.9937,4.99,4.9773,4.967,4.9735,4.9705,4.9644,4.9326,4.9114,4.9005,4.9028,4.89,4.8674,4.9229,4.929,4.9154,4.9289,4.9729,5.0015,5.0371,5.0473,5.027,4.9999,5.027,5.0439,5.0507,5.0845,5.0998,5.1133,5.1438,5.1539,5.1573,5.1607,5.1877,5.1877,5.1911,5.1911,5.1607,5.1573,5.1336,5.098,5.0777,5.1066,5.1336,5.1201,5.0998,5.1116,5.1183,5.0879,5.0541,5.0439,5.0288,4.9835,4.9216,4.8779,4.8136,4.7229,4.6571,4.6116,4.5777,4.5465,4.5588,4.5926,4.5926,4.5926,4.6111,4.6223,4.6049,4.5834,4.568,4.5576,4.5557,4.5268,4.4764,4.4795,4.4949,4.5294,4.5201,4.4817,4.4623,4.4789,4.558,4.5997,4.6047,4.5975,4.5938,4.595,4.587,4.6017,4.6142,4.6401,4.7202,4.8126,4.8603,4.9248,4.9931,5.0083,5.0314,5.0356,5.0397,5.0153,4.9959,4.9858,4.9844,4.98,4.957,4.929,4.9168,4.9301,4.9478,4.9774,4.9994,5.0271,5.0361,5.0294,5.0161,5.0085,4.9642,4.9542,4.9521,4.9438,4.932,4.9131,4.9029,4.9002,4.9021,4.8997,4.9,4.9068,4.9052,4.9492,5.0067,5.0761,5.098,5.1217,5.1235,5.137,5.1251,5.1336,5.1336,5.1336,5.1522,5.1776,5.1877,5.208,5.2249,5.2351,5.2757,5.3162,5.3162,5.3196,5.2926,5.2469,5.2232,5.1928,5.1623,5.137,5.1472,5.1742,5.1708,5.1911,5.208,5.2164,5.1995,5.1657,5.1285,5.1067,5.07,5.0059,4.9256,4.8566,4.8029,4.7357,4.6943,4.6728,4.6524,4.6647,4.6634,4.6634,4.6634,4.6634,4.6634,4.6634,4.6603,4.6542,4.6419,4.6142,4.5895,4.5422,4.5515,4.5669,4.4783,4.4803,4.4685,4.4567,4.4623,4.4906,4.5042,4.5029,4.5042,4.5042,4.5042,4.5597,4.6097,4.6615,4.7228,4.7977,4.8523,4.8937,4.9093,4.9443,4.9683,4.9536,4.9521,4.958,4.9391,4.9346,4.9305,4.9316,4.929,4.9018,4.9018,4.9049,4.9018,4.9168,4.9271,4.9436,5.0017,5.039,5.0356,5.0265,5.0279,5.0011,4.9786,4.9585,4.9466,4.935,4.9061,4.9034,4.9018,4.9052,4.9018,4.9154,4.9778,4.9812,5.0101,5.0777,5.1133,5.137,5.1844,5.1979,5.2148,5.257,5.2689,5.2418,5.2334,5.2367,5.2655,5.2689,5.2723,5.2858,5.2926,5.3264,5.3501,5.3501,5.3501,5.3298,5.2942,5.2875,5.257,5.2266,5.2013,5.2148,5.2351,5.2588,5.279,5.3027,5.3061,5.2858,5.2672,5.2232,5.1945,5.1576,5.1045,5.0291,4.9855,4.9381,4.8524,4.7838,4.7608,4.739,4.7329,4.7311,4.7311,4.7311,4.7311,4.7311,4.7311,4.7311,4.7281,4.6788,4.648,4.6326,4.6223,4.6315,4.6346,4.4567,4.4567,4.4567,4.4567,4.4567,4.4567,4.4567,4.4567,4.4567,4.4736,4.506,4.5529,4.6109,4.6743,4.7236,4.7778,4.8455,4.8501,4.8719,4.9092,4.9018,4.9061,4.9049,4.9018,4.9046,4.9018,4.9018,4.9077,4.9018,4.9018,4.9018,4.9018,4.9018,4.9018,4.9046,4.9187,4.9596,5.0012,5.0161,5.0108,5.0116,5.0151,4.98,4.9757,4.9654,4.9369,4.9129,4.9101,4.9154,4.9357,4.9424,4.9796,5.0489,5.0777,5.1048,5.1674,5.208,5.2367,5.2739,5.2773,5.3078,5.3348,5.3501,5.3213,5.3078,5.3078,5.323,5.3332,5.3399,5.3467,5.3467,5.3501,5.3501,5.3501,5.3501,5.3501,5.3467,5.3467,5.3213,5.2909,5.2875,5.3044,5.3247,5.3399,5.3467,5.3399,5.3332,5.3298,5.3162,5.296,5.2773,5.2521,5.2001,5.1405,5.1004,5.0559,4.9636,4.884,4.8309,4.8108,4.8019,4.7968,4.7958,4.7989,4.8019,4.7958,4.7896,4.7989,4.7896,4.7434,4.7219,4.7311,4.725,4.7096,4.7096,4.4649,4.4567,4.4567,4.4567,4.4567,4.4567,4.4567,4.4601,4.4702,4.5074,4.5602,4.5805,4.6278,4.6989,4.7361,4.7733,4.8225,4.836,4.8612,4.9018,4.9018,4.9018,4.9018,4.9018,4.9018,4.9018,4.9018,4.9018,4.9018,4.9018,4.9018,4.9018,4.9154,4.9255,4.9289,4.9492,4.99,5.028,5.0104,4.9816,4.9607,4.9348,4.9187,4.9302,4.9317,4.9187,4.9221,4.9323,4.9424,4.9932,5.027,5.0574,5.1217,5.1928,5.2249,5.2452,5.2875,5.3112,5.3247,5.3264,5.3332,5.3467,5.3501,5.345,5.3416,5.3382,5.3467,5.3501,5.3501,5.3501,5.3501,5.3501,5.3501,5.3501,5.3501,5.3501,5.3501,5.3501,5.3399,5.3179,5.3213,5.3348,5.3382,5.3501,5.3501,5.3501,5.3501,5.3501,5.3467,5.3365,5.3315,5.3213,5.2809,5.2317,5.2126,5.1552,5.0671,4.9914,4.9231,4.8645,4.8399,4.844,4.8553,4.843,4.8327,4.843,4.843,4.8399,4.8337,4.8276,4.8153,4.8399,4.8307,4.7927,4.7804,4.5108,4.4615,4.4567,4.4567,4.4567,4.4567,4.4567,4.4668,4.5196,4.5534,4.5805,4.6312,4.6955,4.7582,4.8105,4.8477,4.8612,4.8612,4.88,4.8951,4.9018,4.9018,4.9018,4.9018,4.9018,4.9018,4.9018,4.9086,4.9154,4.912,4.9086,4.9154,4.9492,4.983,4.9864,5.0168,5.0608,5.0879,5.0728,5.0592,5.071,5.066,5.066,5.0423,5.027,5.0168,5.0135,5.0101,5.0371,5.0777,5.0897,5.1336,5.2029,5.2773,5.3129,5.323,5.3348,5.3433,5.3501,5.3501,5.3501,5.3501,5.3501,5.3501,5.3501,5.3501,5.3501,5.3501,5.3501,5.3501,5.3501,5.3501,5.3501,5.3501,5.3501,5.3501,5.3501,5.3501,5.3501,5.3501,5.3501,5.3501,5.3501,5.3501,5.3501,5.3501,5.3501,5.3501,5.3501,5.3433,5.3433,5.3382,5.3416,5.3095,5.2921,5.2307,5.1252,5.0653,5.0075,4.9447,4.8749,4.8646,4.8583,4.8583,4.8553,4.8583,4.8583,4.8553,4.8553,4.8583,4.8583,4.8583,4.8583,4.8276,4.8307,4.4973,4.4601,4.4567,4.4567,4.4567,4.4567,4.4567,4.4736,4.5365,4.5872,4.6278,4.6955,4.7684,4.8326,4.8849,4.9018,4.9018,4.8984,4.8984,4.8984,4.9018,4.9018,4.9018,4.9052,4.9018,4.9018,4.9406,4.9526,4.9526,4.9932,5.0101,4.9999,5.0405,5.0608,5.0642,5.1048,5.1438,5.1641,5.1674,5.1844,5.1928,5.1674,5.1269,5.0998,5.0964,5.0897,5.0863,5.0811,5.115,5.1641,5.2013,5.2317,5.2841,5.3196,5.3433,5.3467,5.3467,5.3501,5.3501,5.3501,5.3501,5.3501,5.3501,5.3501,5.3501,5.3501,5.3501,5.3501,5.3501,5.3501,5.3501,5.3501,5.3501,5.3501,5.3501,5.3501,5.3501,5.3501,5.3501,5.3501,5.3501,5.3501,5.3501,5.3501,5.3501,5.3501,5.3501,5.3501,5.3501,5.3501,5.3501,5.3501,5.3501,5.3484,5.3263,5.2538,5.1586,5.1107,5.064,4.9618,4.8666,4.8625,4.8583,4.8583,4.8583,4.8583,4.8583,4.8583,4.8583,4.8583,4.8583,4.8583,4.8583,4.8583,4.8553,4.477,4.4736,4.4635,4.4567,4.4567,4.4567,4.4668,4.4871,4.5534,4.6278,4.6989,4.7718,4.8428,4.8815,4.9018,4.9018,4.9018,4.9018,4.9018,4.9018,4.9018,4.9018,4.9086,4.9154,4.9357,4.9661,5.0033,5.0168,5.0236,5.0642,5.093,5.1167,5.1302,5.1336,5.1336,5.1539,5.1911,5.2334,5.257,5.2841,5.2638,5.2283,5.1877,5.1607,5.1404,5.1404,5.1472,5.1505,5.1826,5.2334,5.2926,5.3129,5.3264,5.3433,5.3433,5.3501,5.3501,5.3501,5.3501,5.3501,5.3501,5.3501,5.3501,5.3501,5.3501,5.3501,5.3501,5.3501,5.3501,5.3501,5.3501,5.3501,5.3501,5.3501,5.3501,5.3501,5.3501,5.3501,5.3501,5.3501,5.3501,5.3501,5.3501,5.3501,5.3501,5.3501,5.3501,5.3501,5.3501,5.3501,5.3501,5.3501,5.3501,5.3484,5.3467,5.2729,5.1769,5.1032,5.0442,4.941,4.8625,4.8604,4.8583,4.8583,4.8583,4.8583,4.8583,4.8583,4.8583,4.8583,4.8583,4.8583,4.8583,4.8583,4.8583,4.55,4.5432,4.4838,4.4567,4.4601,4.4601,4.4939,4.5534,4.6244,4.6989,4.7684,4.8409,4.8917,4.9018,4.9018,4.9018,4.9018,4.9018,4.9018,4.9018,4.912,4.9086,4.9255,4.9695,5.0236,5.0574,5.0811,5.093,5.1082,5.1201,5.1269,5.137,5.1945,5.2114,5.2198,5.2469,5.2892,5.3112,5.3145,5.3315,5.3332,5.3129,5.3179,5.2841,5.2418,5.2655,5.2723,5.2385,5.2672,5.3078,5.3365,5.3467,5.3501,5.3501,5.3501,5.3501,5.3501,5.3501,5.3501,5.3501,5.3501,5.3501,5.3501,5.3501,5.3501,5.3501,5.3501,5.3501,5.3501,5.3501,5.3501,5.3501,5.3501,5.3501,5.3501,5.3501,5.3501,5.3501,5.3501,5.3501,5.3501,5.3501,5.3501,5.3501,5.3501,5.3501,5.3501,5.3501,5.3501,5.3501,5.3501,5.3501,5.3501,5.3501,5.3484,5.2799,5.1915,5.1126,5.0306,4.945,4.8852,4.8625,4.8583,4.8583,4.8583,4.8583,4.8583,4.8583,4.8583,4.8583,4.8583,4.8583,4.8583,4.8583,4.8583]}]]